[[{"header":{"parameterUnit":"m.s-1","parameterCategory":1,"la1":30.6,"la2":29.2853,"lo1":-89.7004,"lo2":-87.6739,"dy":0.0162,"dx":0.0183,"nx":112,"ny":82,"refTime":"2024-08-10T00:00:00:Z","depth":0,"parameterNumber":2,"parameterNumberName":"U-component_of_WINDS"},"data":[0.0,0.0,0.0,0.0,0.0,0.0,0.0,0.0,0.0,0.0,0.0,0.0,0.0,0.0,0.0,0.0,0.0,0.0,0.0,0.0,0.0,0.0,0.0,0.0,0.0,0.0,0.0,0.0,0.0,0.0,0.0,0.0,0.0,0.0,0.0,0.0,0.0,0.0,0.0,0.0,0.0,0.0,0.0,0.0,0.0,0.0,0.0,0.0,0.0,0.0,0.0,0.0,0.0,0.0,0.0,0.0,0.0,0.0,0.0,0.0,0.0,0.0,0.0,0.0,0.0,0.0,0.0,0.0,0.0,0.0,0.0,0.0,0.0,0.0,0.0,0.0,0.0,0.0,0.0,0.0,0.0,0.0,0.0,0.0,0.0,0.0,0.0,0.0,0.0,0.0,2.7808,2.9189,3.1996,3.3374,3.2392,3.145,2.9814,2.7265,0.0,0.0,0.0,0.0,0.0,0.0,0.0,0.0,0.0,0.0,0.0,0.0,0.0,0.0,0.0,0.0,0.0,0.0,0.0,0.0,0.0,0.0,0.0,0.0,0.0,0.0,0.0,0.0,0.0,0.0,0.0,0.0,0.0,0.0,0.0,0.0,0.0,0.0,0.0,0.0,0.0,0.0,0.0,0.0,0.0,0.0,0.0,0.0,0.0,0.0,0.0,0.0,0.0,0.0,0.0,0.0,0.0,0.0,0.0,0.0,0.0,0.0,0.0,0.0,0.0,0.0,0.0,0.0,0.0,0.0,0.0,0.0,0.0,0.0,0.0,0.0,0.0,0.0,0.0,0.0,0.0,0.0,0.0,0.0,0.0,0.0,0.0,0.0,0.0,0.0,0.0,0.0,0.0,0.0,0.0,0.0,0.0,0.0,0.0,0.0,0.0,0.0,0.0,0.0,2.9288,3.2349,3.3802,3.3957,3.2524,3.1469,2.9814,2.7264,0.0,0.0,0.0,0.0,0.0,0.0,0.0,0.0,0.0,0.0,0.0,0.0,0.0,0.0,0.0,0.0,0.0,0.0,0.0,0.0,0.0,0.0,0.0,0.0,0.0,0.0,0.0,0.0,0.0,0.0,0.0,0.0,0.0,0.0,0.0,0.0,0.0,0.0,0.0,0.0,0.0,0.0,0.0,0.0,0.0,0.0,0.0,0.0,0.0,0.0,0.0,0.0,0.0,0.0,0.0,0.0,0.0,0.0,0.0,0.0,0.0,0.0,0.0,0.0,0.0,0.0,0.0,0.0,0.0,0.0,0.0,0.0,0.0,0.0,0.0,0.0,0.0,0.0,0.0,0.0,0.0,0.0,0.0,0.0,0.0,0.0,0.0,0.0,0.0,0.0,0.0,0.0,0.0,0.0,0.0,0.0,0.0,0.0,0.0,0.0,0.0,0.0,0.0,2.8596,3.0747,3.3568,3.4311,3.4113,3.2912,3.1987,3.0146,2.7121,2.621,0.0,0.0,0.0,0.0,0.0,0.0,0.0,0.0,0.0,0.0,0.0,0.0,0.0,0.0,0.0,0.0,0.0,0.0,0.0,0.0,0.0,0.0,0.0,0.0,0.0,0.0,0.0,0.0,0.0,0.0,0.0,0.0,0.0,0.0,0.0,0.0,0.0,0.0,0.0,0.0,0.0,0.0,0.0,0.0,0.0,0.0,0.0,0.0,0.0,0.0,0.0,0.0,0.0,0.0,0.0,0.0,0.0,0.0,0.0,0.0,0.0,0.0,0.0,0.0,0.0,0.0,0.0,0.0,0.0,0.0,0.0,0.0,0.0,0.0,0.0,0.0,0.0,0.0,0.0,0.0,0.0,0.0,0.0,0.0,0.0,0.0,0.0,0.0,0.0,0.0,0.0,0.0,0.0,0.0,0.0,0.0,0.0,0.0,0.0,0.0,0.0,0.0,3.0463,3.239,3.4372,3.4708,3.4431,3.3564,3.2322,3.0299,2.7261,2.6686,0.0,0.0,0.0,0.0,0.0,0.0,0.0,0.0,0.0,0.0,0.0,0.0,0.0,0.0,0.0,0.0,0.0,0.0,0.0,0.0,0.0,0.0,0.0,0.0,0.0,0.0,0.0,0.0,0.0,0.0,0.0,0.0,0.0,0.0,0.0,0.0,0.0,0.0,0.0,0.0,0.0,0.0,0.0,0.0,0.0,0.0,0.0,0.0,0.0,0.0,0.0,0.0,0.0,0.0,0.0,0.0,0.0,0.0,0.0,0.0,0.0,0.0,0.0,0.0,0.0,0.0,0.0,0.0,0.0,0.0,0.0,0.0,0.0,0.0,0.0,0.0,0.0,0.0,0.0,0.0,0.0,0.0,0.0,0.0,0.0,0.0,0.0,0.0,0.0,0.0,0.0,0.0,0.0,0.0,0.0,0.0,0.0,0.0,0.0,0.0,0.0,0.0,3.2579,3.4428,3.5389,3.5562,3.5287,3.4491,3.2073,2.9823,2.8019,2.6342,0.0,0.0,0.0,0.0,0.0,0.0,0.0,0.0,0.0,0.0,0.0,0.0,0.0,0.0,0.0,0.0,0.0,0.0,0.0,0.0,0.0,0.0,0.0,0.0,0.0,0.0,0.0,0.0,0.0,0.0,0.0,0.0,0.0,0.0,0.0,0.0,0.0,0.0,0.0,0.0,0.0,0.0,0.0,0.0,0.0,0.0,0.0,0.0,0.0,0.0,0.0,0.0,0.0,0.0,0.0,0.0,0.0,0.0,0.0,0.0,0.0,0.0,0.0,0.0,0.0,0.0,0.0,0.0,0.0,0.0,0.0,0.0,0.0,0.0,0.0,0.0,0.0,0.0,0.0,0.0,0.0,0.0,0.0,0.0,0.0,0.0,0.0,0.0,0.0,0.0,0.0,0.0,0.0,0.0,0.0,0.0,0.0,0.0,0.0,0.0,0.0,0.0,3.305,3.4928,0.0,3.6124,3.5466,3.515,3.2706,3.0235,2.8025,0.0,0.0,0.0,0.0,0.0,0.0,0.0,0.0,0.0,0.0,0.0,0.0,0.0,0.0,0.0,0.0,0.0,0.0,0.0,0.0,0.0,0.0,0.0,0.0,0.0,0.0,0.0,0.0,0.0,0.0,0.0,0.0,0.0,0.0,0.0,0.0,0.0,0.0,0.0,0.0,0.0,0.0,0.0,0.0,0.0,0.0,0.0,0.0,0.0,0.0,0.0,0.0,0.0,0.0,0.0,0.0,0.0,0.0,0.0,0.0,0.0,0.0,0.0,0.0,0.0,0.0,0.0,0.0,0.0,0.0,0.0,0.0,0.0,0.0,0.0,0.0,0.0,0.0,0.0,0.0,0.0,0.0,0.0,0.0,0.0,0.0,0.0,0.0,0.0,0.0,0.0,0.0,0.0,0.0,0.0,0.0,0.0,0.0,0.0,0.0,0.0,0.0,3.1898,3.3844,3.5713,0.0,3.6848,3.6096,3.5855,3.3389,3.0838,2.8319,0.0,0.0,0.0,0.0,0.0,0.0,0.0,0.0,0.0,0.0,0.0,0.0,0.0,0.0,0.0,0.0,0.0,0.0,0.0,0.0,0.0,0.0,0.0,0.0,0.0,0.0,0.0,0.0,0.0,0.0,0.0,0.0,0.0,0.0,0.0,0.0,0.0,0.0,0.0,0.0,0.0,0.0,0.0,0.0,0.0,0.0,0.0,0.0,0.0,0.0,0.0,0.0,0.0,0.0,0.0,0.0,0.0,0.0,0.0,0.0,0.0,0.0,0.0,0.0,0.0,0.0,0.0,0.0,0.0,0.0,0.0,0.0,0.0,0.0,0.0,0.0,0.0,0.0,0.0,0.0,0.0,0.0,0.0,0.0,0.0,0.0,0.0,0.0,0.0,0.0,0.0,0.0,0.0,0.0,0.0,0.0,0.0,0.0,0.0,0.0,0.0,0.0,3.278,3.5225,3.6986,3.7748,3.7738,3.7377,3.6583,3.4054,3.1485,0.0,0.0,0.0,0.0,0.0,0.0,0.0,0.0,0.0,0.0,0.0,0.0,0.0,0.0,0.0,0.0,0.0,0.0,0.0,0.0,0.0,0.0,0.0,0.0,0.0,0.0,0.0,0.0,0.0,0.0,0.0,0.0,0.0,0.0,0.0,0.0,0.0,0.0,0.0,0.0,0.0,0.0,0.0,0.0,0.0,0.0,0.0,0.0,0.0,0.0,0.0,0.0,0.0,0.0,0.0,0.0,0.0,0.0,0.0,0.0,0.0,0.0,0.0,0.0,0.0,0.0,0.0,0.0,0.0,0.0,0.0,0.0,0.0,0.0,0.0,0.0,0.0,0.0,0.0,0.0,0.0,0.0,0.0,0.0,0.0,0.0,0.0,0.0,0.0,0.0,0.0,0.0,0.0,0.0,0.0,0.0,0.0,0.0,0.0,0.0,0.0,0.0,0.0,3.3419,3.5406,3.7054,3.8383,3.8014,3.7349,3.65,3.4541,3.23,2.9819,0.0,0.0,0.0,0.0,0.0,0.0,0.0,0.0,0.0,0.0,0.0,0.0,0.0,0.0,0.0,0.0,0.0,0.0,0.0,0.0,0.0,0.0,0.0,0.0,0.0,0.0,0.0,0.0,0.0,0.0,0.0,0.0,0.0,0.0,0.0,0.0,0.0,0.0,0.0,0.0,0.0,0.0,0.0,0.0,0.0,0.0,0.0,0.0,0.0,0.0,0.0,0.0,0.0,0.0,0.0,0.0,0.0,0.0,0.0,0.0,0.0,0.0,0.0,0.0,0.0,0.0,0.0,0.0,0.0,0.0,0.0,0.0,0.0,0.0,0.0,0.0,0.0,0.0,0.0,0.0,0.0,0.0,0.0,0.0,0.0,0.0,0.0,0.0,0.0,0.0,0.0,0.0,0.0,0.0,0.0,0.0,0.0,0.0,0.0,0.0,0.0,0.0,3.3722,3.5502,3.7091,3.8656,3.8398,3.7632,3.6387,3.4659,3.2575,3.0064,0.0,0.0,0.0,0.0,0.0,0.0,0.0,0.0,0.0,0.0,0.0,0.0,0.0,0.0,0.0,0.0,0.0,0.0,0.0,0.0,0.0,0.0,0.0,0.0,0.0,0.0,0.0,0.0,0.0,0.0,0.0,0.0,0.0,0.0,0.0,0.0,0.0,0.0,0.0,0.0,0.0,0.0,0.0,0.0,0.0,0.0,0.0,0.0,0.0,0.0,0.0,0.0,0.0,0.0,0.0,0.0,0.0,0.0,0.0,0.0,0.0,0.0,0.0,0.0,0.0,0.0,0.0,0.0,0.0,0.0,0.0,0.0,0.0,0.0,0.0,0.0,0.0,0.0,0.0,0.0,0.0,0.0,0.0,0.0,0.0,0.0,0.0,0.0,0.0,0.0,0.0,0.0,0.0,0.0,0.0,0.0,0.0,0.0,0.0,0.0,0.0,0.0,3.3864,3.5586,3.7155,3.8626,3.8719,3.7998,3.6241,3.4629,3.2666,3.0178,0.0,0.0,0.0,0.0,0.0,0.0,0.0,0.0,0.0,0.0,0.0,0.0,0.0,0.0,0.0,0.0,0.0,0.0,0.0,0.0,0.0,0.0,0.0,0.0,0.0,0.0,0.0,0.0,0.0,0.0,0.0,0.0,0.0,0.0,0.0,0.0,0.0,0.0,0.0,0.0,0.0,0.0,0.0,0.0,0.0,0.0,0.0,0.0,0.0,0.0,0.0,0.0,0.0,0.0,0.0,0.0,0.0,0.0,0.0,0.0,2.167,0.0,0.0,0.0,0.0,0.0,0.0,0.0,0.0,0.0,0.0,0.0,0.0,0.0,0.0,0.0,0.0,0.0,0.0,0.0,0.0,0.0,0.0,0.0,0.0,0.0,0.0,0.0,0.0,0.0,0.0,0.0,0.0,0.0,0.0,0.0,0.0,0.0,0.0,0.0,0.0,0.0,3.4504,3.6268,3.7617,3.8462,3.8658,3.7967,3.6152,3.5082,3.3694,3.1892,2.9511,0.0,0.0,0.0,0.0,0.0,0.0,0.0,0.0,0.0,0.0,0.0,0.0,0.0,0.0,0.0,0.0,0.0,0.0,0.0,0.0,0.0,0.0,0.0,0.0,0.0,0.0,0.0,0.0,0.0,0.0,0.0,0.0,0.0,0.0,0.0,0.0,0.0,0.0,0.0,0.0,0.0,0.0,0.0,0.0,0.0,0.0,0.0,0.0,0.0,0.0,0.0,0.0,0.0,0.0,0.0,0.0,0.0,0.0,0.0,0.0,2.1651,0.0,0.0,0.0,0.0,0.0,0.0,0.0,0.0,0.0,0.0,0.0,0.0,0.0,0.0,0.0,0.0,0.0,0.0,0.0,0.0,0.0,0.0,0.0,0.0,0.0,0.0,0.0,0.0,0.0,0.0,0.0,0.0,0.0,0.0,0.0,0.0,0.0,0.0,0.0,0.0,3.4706,3.6362,3.765,3.8355,3.8496,3.7857,3.6109,3.4811,3.3372,3.1709,2.9575,0.0,0.0,0.0,0.0,0.0,0.0,0.0,0.0,0.0,0.0,0.0,0.0,0.0,0.0,0.0,0.0,0.0,0.0,0.0,0.0,0.0,0.0,0.0,0.0,0.0,0.0,0.0,0.0,0.0,0.0,0.0,0.0,0.0,0.0,0.0,0.0,0.0,0.0,0.0,0.0,0.0,0.0,0.0,0.0,0.0,0.0,0.0,0.0,0.0,0.0,0.0,0.0,0.0,2.4493,2.4959,2.5836,2.6057,2.5974,2.5512,2.3854,2.2971,2.264,2.1079,0.0,0.0,0.0,0.0,0.0,0.0,0.0,0.0,0.0,0.0,0.0,0.0,0.0,0.0,0.0,0.0,0.0,0.0,0.0,0.0,0.0,0.0,0.0,0.0,2.5267,2.5126,0.0,0.0,0.0,0.0,0.0,0.0,0.0,0.0,0.0,0.0,0.0,0.0,3.5067,3.6535,3.7708,3.8528,3.8474,3.7713,3.6017,3.4486,3.2875,3.1199,2.9448,2.8085,0.0,0.0,0.0,0.0,0.0,0.0,0.0,0.0,0.0,0.0,0.0,0.0,0.0,0.0,0.0,0.0,0.0,0.0,0.0,0.0,0.0,0.0,0.0,0.0,0.0,0.0,0.0,0.0,0.0,0.0,0.0,0.0,1.5646,1.5918,0.0,0.0,0.0,0.0,0.0,0.0,0.0,0.0,0.0,0.0,0.0,0.0,0.0,2.2813,2.4258,2.3687,2.4479,2.6595,2.6782,2.7632,2.9099,2.9164,2.8512,2.7273,2.6869,0.0,2.4901,2.4166,0.0,0.0,0.0,0.0,0.0,0.0,0.0,0.0,0.0,0.0,0.0,0.0,0.0,0.0,0.0,0.0,0.0,0.0,0.0,0.0,0.0,0.0,2.569,2.593,2.6361,2.6718,0.0,2.6229,2.5847,2.5781,2.5871,0.0,0.0,0.0,0.0,0.0,0.0,0.0,3.6594,3.7658,3.8514,3.9304,3.8787,3.7713,3.5973,3.492,3.3665,3.2047,3.0188,2.8813,2.7994,2.7083,0.0,0.0,0.0,0.0,0.0,0.0,0.0,0.0,0.0,0.0,0.0,0.0,0.0,0.0,0.0,0.0,0.0,0.0,0.0,0.0,0.0,0.0,0.0,0.0,0.0,0.0,0.0,0.0,0.0,1.6001,1.6455,1.6963,1.6956,1.6935,0.0,0.0,0.0,0.0,0.0,0.0,0.0,0.0,0.0,2.3727,2.426,2.5229,2.674,2.6573,2.6996,2.8064,2.8186,2.863,2.9316,2.942,2.911,2.8472,2.8172,2.7632,2.6801,2.4487,2.3368,2.3014,0.0,0.0,0.0,0.0,2.3106,2.3258,2.4222,2.3988,0.0,2.431,0.0,0.0,0.0,0.0,0.0,0.0,0.0,0.0,0.0,0.0,2.6673,2.7171,2.7077,2.6978,2.7376,2.7536,2.7386,0.0,2.6748,2.7184,2.77,0.0,0.0,0.0,0.0,3.5218,3.7308,3.7905,3.843,3.926,3.8592,3.7618,3.6414,3.5105,3.3638,3.1996,3.0243,2.8916,2.8088,2.7225,2.6215,0.0,0.0,0.0,0.0,0.0,0.0,0.0,0.0,0.0,0.0,0.0,0.0,0.0,0.0,0.0,0.0,0.0,0.0,0.0,0.0,0.0,0.0,0.0,0.0,0.0,0.0,0.0,0.0,1.7037,1.7456,1.8054,1.8291,1.8369,0.0,0.0,0.0,0.0,0.0,0.0,2.0792,2.1892,2.3177,2.465,2.5812,2.6949,2.8068,2.8469,2.882,2.908,2.9171,2.9364,2.9587,2.9683,2.9653,2.9484,2.9111,2.875,2.8219,2.5046,2.3789,2.3763,2.3203,2.3329,2.3943,2.4899,2.5091,2.5093,2.6218,2.5937,2.5189,2.6027,0.0,2.5111,2.5707,0.0,0.0,0.0,0.0,2.6916,2.6952,2.7183,2.7617,2.8287,2.7968,2.7672,2.8205,2.8693,2.8697,0.0,2.7818,2.8346,2.857,0.0,0.0,0.0,0.0,3.5805,3.7969,3.8186,3.8492,3.9373,3.851,3.7593,3.675,3.5549,3.3999,3.2148,3.0861,2.9645,2.8362,2.7703,2.6951,2.6019,0.0,0.0,0.0,0.0,0.0,0.0,0.0,0.0,0.0,0.0,0.0,0.0,0.0,0.0,0.0,0.0,0.0,0.0,0.0,0.0,0.0,0.0,0.0,0.0,0.0,0.0,0.0,0.0,0.0,1.9011,1.9428,0.0,0.0,0.0,0.0,1.9535,2.0652,2.1241,2.1103,2.3167,2.4309,2.4259,2.5897,2.6798,2.6863,2.7838,2.8727,2.9565,2.976,3.0302,3.1089,3.1155,3.0874,3.0319,3.016,2.979,2.9094,2.7135,2.622,2.5999,2.5497,2.5314,2.5411,2.6347,2.6207,2.5791,2.7441,2.6997,2.5872,2.6614,2.6269,2.5552,2.5535,2.5561,0.0,0.0,2.618,2.6899,2.6827,2.7858,2.8911,2.9018,2.9239,2.9502,2.9752,2.9622,2.9314,0.0,2.9292,2.9913,2.9976,0.0,3.2468,3.2687,3.5314,3.7628,3.8724,3.885,3.9191,4.0074,3.8798,3.7558,3.6699,3.6521,3.5431,3.3005,3.2695,3.1564,2.9236,2.9042,2.8298,2.6881,2.6218,0.0,0.0,0.0,0.0,0.0,0.0,0.0,0.0,0.0,0.0,0.0,0.0,0.0,0.0,0.0,0.0,0.0,0.0,0.0,0.0,0.0,0.0,0.0,0.0,0.0,0.0,0.0,0.0,1.9437,2.0054,0.0,2.0318,2.1065,2.1444,2.1275,2.2589,2.3296,2.3103,2.4708,2.583,2.6254,2.7865,2.8929,2.9313,3.0451,3.1203,3.1596,3.1691,3.1951,3.2328,3.1958,3.1645,3.1358,3.042,2.9829,2.9479,2.8493,2.7923,2.7566,2.6999,2.7134,2.7636,2.8071,2.807,2.795,2.8575,2.8134,2.7237,2.6925,2.6914,2.6901,2.6212,2.6755,2.7601,2.7619,2.85,2.9481,2.9593,3.0015,3.0387,3.0352,3.0047,2.9809,2.9826,3.0058,3.0231,3.0006,3.0248,3.0612,3.1168,3.2179,3.3564,3.5348,3.6534,3.7993,4.0155,3.9899,3.9646,4.0088,3.9154,3.8132,3.731,3.6791,3.5863,3.4387,3.3357,3.1969,3.0095,2.9579,2.862,2.7194,2.7417,2.6806,0.0,0.0,0.0,0.0,0.0,0.0,0.0,0.0,0.0,0.0,0.0,0.0,0.0,0.0,0.0,0.0,0.0,0.0,0.0,0.0,0.0,0.0,0.0,0.0,0.0,0.0,1.9712,2.0323,2.1019,2.1417,2.1462,2.2297,2.2831,2.2884,2.3991,2.4686,2.4719,2.6109,2.7095,2.7529,2.9147,3.0183,3.0603,3.1762,3.2413,3.2488,3.2652,3.2741,3.2813,3.2433,3.2233,3.2183,3.1266,3.0831,3.0699,3.046,3.0048,2.9448,2.8421,2.8444,2.9077,2.9484,2.9523,2.9417,2.9526,2.9189,2.8617,2.8029,2.8117,2.8264,2.7542,2.8083,2.8997,2.9258,3.0074,3.0994,3.1376,3.1446,3.1428,3.1393,3.0872,3.0474,3.0786,3.1093,3.1376,3.1634,3.1517,3.161,3.2204,3.3214,3.4634,3.6763,3.7506,3.8634,4.0798,4.0504,4.0095,4.0024,3.9272,3.8469,3.7648,3.6845,3.6167,3.558,3.4102,3.2567,3.1064,3.0277,2.9224,2.7834,2.8297,2.7368,2.4978,0.0,0.0,0.0,0.0,0.0,0.0,0.0,0.0,0.0,0.0,0.0,0.0,0.0,0.0,0.0,0.0,0.0,0.0,0.0,0.0,0.0,0.0,0.0,1.8927,2.0073,2.1088,2.1728,2.2338,2.2867,2.3412,2.3247,2.3426,2.4233,2.4814,2.5336,2.5827,2.7356,2.8084,2.7887,2.9532,3.0466,3.0481,3.1516,3.2091,3.2152,3.2417,3.257,3.257,3.2689,3.2718,3.2718,3.2785,3.2741,3.2685,3.2917,3.2543,3.1666,2.9854,2.9349,2.9696,3.056,3.0506,3.0056,3.0233,3.0135,2.9907,2.9892,2.976,2.954,2.9351,2.9403,2.9696,3.0293,3.0678,3.1168,3.1861,3.2015,3.2015,3.2213,3.178,3.1645,3.2689,3.2701,3.274,3.3454,3.3191,3.2947,3.3121,3.4424,3.5752,3.6741,3.8257,0.0,4.0503,4.0736,4.0577,3.986,3.9231,3.8504,3.7648,3.6881,3.6435,3.6435,3.4989,3.3534,3.2133,3.1294,3.0216,2.8858,2.87,2.7495,2.5187,0.0,0.0,0.0,0.0,0.0,0.0,0.0,0.0,0.0,0.0,0.0,0.0,0.0,0.0,0.0,0.0,0.0,0.0,0.0,0.0,0.0,1.9377,2.0644,2.03,2.105,2.1827,2.2197,2.3306,2.4207,2.4601,2.5089,2.556,2.6,2.7233,2.7753,2.7201,2.9171,3.0085,2.947,3.1052,3.1946,3.193,3.2782,3.3269,3.3419,3.3468,3.3616,3.3794,3.3319,3.3121,3.3182,3.2685,3.2409,3.2409,3.2455,3.2368,3.2088,3.1564,3.1404,3.1477,3.1897,3.1637,3.1041,3.0595,3.0076,2.9609,2.9609,2.9455,2.928,2.9174,2.9941,3.0844,3.1124,3.2038,3.3007,3.3287,3.3338,3.3338,3.3304,3.3242,3.3231,3.3442,3.3413,3.3441,3.3744,3.411,3.435,3.4479,3.5532,3.687,3.8386,3.9413,0.0,4.1478,4.148,4.0951,3.9775,3.9576,3.8978,3.7573,3.7344,3.7255,3.7255,3.5774,3.4554,3.3767,3.2451,3.1111,2.9777,2.7958,2.7004,0.0,0.0,0.0,0.0,0.0,0.0,0.0,0.0,0.0,0.0,0.0,0.0,0.0,0.0,0.0,0.0,0.0,0.0,0.0,0.0,0.0,0.0,2.0716,2.1864,2.1941,2.2429,2.3011,2.3677,2.4342,2.5038,2.5731,2.6441,2.7076,2.7515,2.8654,2.9265,2.9028,3.0582,3.1244,3.0851,3.2057,3.276,3.276,3.3348,3.3658,3.3745,3.3797,3.3899,3.4034,3.3614,3.3469,3.36,3.3225,3.303,3.3077,3.3188,3.3008,0.0,0.0,0.0,0.0,0.0,3.2667,3.2303,3.1914,3.1542,3.1127,3.0748,3.0755,3.0806,3.0369,3.1055,3.209,3.2493,3.3328,3.4142,3.4567,3.4472,3.4216,3.4199,3.3936,3.3758,3.4065,3.4057,3.4159,3.4525,3.4951,0.0,3.5848,3.6575,3.7701,3.9448,4.0053,4.0674,4.1622,4.1666,4.1094,3.9734,3.9731,3.9171,3.7609,3.7237,0.0,0.0,0.0,3.4804,3.3929,3.2216,0.0,0.0,0.0,0.0,0.0,0.0,0.0,0.0,2.6105,2.6336,0.0,0.0,0.0,0.0,0.0,0.0,0.0,0.0,0.0,0.0,0.0,0.0,0.0,0.0,0.0,0.0,2.1958,2.2537,2.3832,2.4128,2.4517,2.5438,2.5416,2.5778,2.6829,2.7517,2.8186,2.8824,2.9508,3.0226,3.0881,0.0,0.0,0.0,0.0,3.3096,3.3096,3.3346,3.3503,3.3503,3.3607,3.3658,3.371,3.3694,3.3745,3.3899,3.405,3.4101,3.4101,3.4349,3.4023,3.3258,3.282,3.2706,3.2929,3.3439,3.3618,3.36,3.3641,0.0,0.0,3.2553,3.2664,3.3017,3.2209,3.251,3.3255,3.3985,3.4398,3.4776,3.5559,3.528,3.4814,3.4959,3.4321,3.3846,3.4609,3.4684,3.4827,3.5487,3.569,3.6067,3.722,3.756,3.8278,4.0036,4.0333,4.0612,4.1293,4.1515,4.1086,3.9858,0.0,0.0,3.7844,3.6988,3.6827,3.7541,3.6131,3.4676,3.3388,3.1383,3.0344,3.0369,2.9563,2.8691,2.7791,2.7789,2.7757,2.7743,2.7126,2.6903,0.0,0.0,0.0,0.0,0.0,0.0,0.0,0.0,0.0,0.0,0.0,0.0,0.0,0.0,0.0,2.2213,2.3916,2.5272,2.5859,2.6254,2.6142,2.5313,2.6592,2.7766,2.828,2.8918,2.9506,3.0017,3.0799,3.1285,3.1424,3.2251,3.2694,3.2694,3.298,3.3096,3.3096,3.3256,3.3346,3.3346,0.0,0.0,3.3555,3.3642,3.3745,3.3899,3.405,3.4101,3.4101,3.4151,3.4119,3.4007,3.3434,3.3233,3.3362,3.419,3.4197,3.3789,3.3879,3.3567,3.3057,3.2907,3.2904,3.2917,3.2794,3.3261,0.0,3.4125,3.4684,3.5199,3.5487,3.5464,3.5363,3.5464,3.5301,3.5233,3.5385,3.5329,3.5397,3.5694,3.6141,3.6876,3.7991,3.8291,3.8797,3.9973,4.0662,4.1098,4.1363,4.1318,4.1041,4.0493,3.9964,3.9284,3.8498,3.7772,3.7416,3.7577,3.6252,3.5076,3.4199,3.2651,3.1838,3.1946,2.9892,2.9053,2.9588,2.8286,2.7999,2.8695,2.7934,2.8003,0.0,0.0,0.0,0.0,0.0,0.0,0.0,0.0,0.0,0.0,0.0,1.8665,1.9987,0.0,2.2231,2.3807,2.4855,2.5754,2.667,2.7142,2.7158,2.6509,2.7585,2.8514,2.9007,2.9933,3.0624,3.0874,3.1574,3.2168,3.2633,3.3044,3.3341,3.3396,3.3544,3.3442,3.3096,3.3256,3.3309,3.3309,3.3309,3.3361,3.3398,3.345,3.3555,3.371,3.3848,3.3949,3.4,3.405,3.4151,3.4168,3.3844,3.386,3.3989,3.4511,3.4525,3.4275,3.4416,3.4259,3.3906,3.3539,3.3644,3.3831,3.3494,3.3894,3.4492,3.4601,3.4961,3.5337,3.5446,3.552,3.5549,3.5577,3.5622,3.5577,3.5549,3.5869,3.6168,3.6197,3.6743,3.7533,3.8628,3.8917,3.9313,4.0262,4.077,4.1105,4.1215,4.0913,4.0507,4.0164,3.9469,3.877,3.8162,3.7809,3.7577,3.7577,3.6165,3.5211,3.4947,3.3141,3.2208,3.2356,3.0841,3.0221,3.0589,2.9787,2.963,3.0038,2.9667,2.958,0.0,0.0,0.0,0.0,0.0,0.0,0.0,0.0,1.8996,1.9208,1.9593,2.0257,2.1421,2.2102,2.3163,2.5365,2.564,2.5977,2.7198,2.7762,2.8015,2.8093,2.8574,2.9141,2.9786,3.0874,3.1582,3.1582,3.209,3.2755,3.3494,3.365,3.3768,3.3935,3.4171,3.3975,3.33,3.3445,3.3435,3.3309,3.3309,3.3293,3.3346,3.3361,3.345,3.3607,3.3694,3.3848,3.3949,3.405,3.4101,3.4101,3.4101,3.425,3.4497,3.4594,3.4643,3.4691,3.4835,3.4899,3.48,3.4203,3.4419,3.4783,3.4187,3.4419,3.4899,3.5041,3.5152,3.5245,3.5446,3.552,3.5532,3.5577,3.5577,3.5594,3.552,3.6156,3.6726,3.6632,3.734,3.8198,3.9001,3.9399,3.9833,4.0611,4.084,4.0982,4.1111,4.0648,4.0228,4.0047,3.9221,3.8419,3.7666,3.7577,3.7631,3.7613,3.6238,3.545,3.5508,3.3586,3.2502,3.2508,3.1873,3.1454,3.132,3.1237,3.1164,3.1111,3.119,3.0929,1.7208,1.7214,1.729,1.7685,1.8191,1.8591,0.0,0.0,1.9356,2.0304,2.0588,2.127,2.3159,2.4029,2.4932,2.6361,2.7055,2.7715,2.8326,2.8896,2.9181,2.9066,2.9816,3.0649,3.1279,3.1898,3.2275,3.2275,3.2351,3.2554,3.2952,3.3472,3.3839,3.4085,3.4713,3.4713,3.3991,3.4123,3.3878,3.3309,3.3309,3.3346,3.3503,3.3607,3.3761,3.3848,3.4,3.405,3.4101,3.4101,3.4101,3.4101,3.4101,3.4201,3.4349,3.4448,3.4497,3.4546,3.4787,3.4899,3.4883,3.48,3.4833,3.4883,3.48,3.4833,3.4899,3.4899,3.4947,3.4994,3.5245,3.5337,3.5383,3.5577,3.5549,3.552,3.5594,3.603,3.6522,3.6726,3.781,3.8739,3.8971,3.9695,4.0302,4.0631,4.0905,4.1093,4.1093,4.1082,4.1188,4.1533,4.0294,3.8968,3.7719,3.7577,3.7613,3.7667,3.6774,3.6057,3.5624,3.4541,3.3746,3.3284,3.2459,3.2043,3.2099,3.1438,3.1146,3.119,3.125,3.1247,1.7339,1.7324,1.7504,0.0,1.8924,1.9558,2.0033,2.04,2.0941,2.2011,2.2551,2.3179,2.4233,2.5139,2.6013,0.0,2.7395,2.7922,2.8925,2.9243,2.9654,3.0265,3.0812,3.1142,3.1328,3.1903,3.2302,3.2398,3.2752,3.328,3.4051,3.4665,3.5154,3.5424,3.5723,3.5591,3.4991,3.4619,3.434,3.4176,3.3657,3.3503,3.3607,3.3607,3.3694,3.3899,3.3949,3.405,3.4101,3.4101,3.4101,3.4149,3.4672,3.4885,3.487,3.4513,3.4448,3.4546,3.4691,3.4787,3.4804,3.4899,3.4899,3.4899,3.4899,3.4899,3.4899,3.4994,3.4994,3.5188,3.5874,3.5765,3.5547,3.6151,3.5915,3.5667,3.6106,3.675,3.7408,3.7877,3.8903,3.9681,3.973,4.0199,4.0551,4.0697,4.084,4.0982,4.1111,4.0861,4.0456,3.9935,3.9004,3.8216,3.7703,3.7649,3.7721,3.781,3.704,3.6464,3.6242,3.5486,3.4727,3.4045,3.3773,3.3404,3.2944,3.3166,3.3012,3.2602,3.3159,3.3387,1.7484,1.7716,0.0,1.8905,1.9749,2.0581,2.1252,2.1638,2.2128,2.3243,2.3825,2.4418,2.5211,2.5933,2.6658,2.7487,2.7764,2.824,2.9273,2.9735,3.0268,3.1075,3.129,3.129,3.1197,3.1848,3.2302,3.2453,3.29,3.3522,3.4373,3.5076,3.566,3.6137,3.6311,3.6283,3.5888,3.5379,3.5138,3.5091,3.4229,3.3894,3.4034,3.379,3.3745,3.3949,3.3949,3.4,3.4117,3.4361,3.4443,3.4574,3.5407,3.5787,3.5705,3.497,3.4742,3.4873,3.4773,3.4888,3.5068,3.4918,3.5032,3.5164,3.4965,3.5032,3.5245,3.534,3.5538,3.5866,3.6438,3.6182,3.5975,3.6654,3.6349,3.6055,3.6814,3.7573,3.8314,3.8837,3.9679,4.0305,4.0337,4.06,4.0745,4.0745,4.0935,4.1076,4.1093,4.0882,4.0243,3.8978,3.8518,3.8132,3.7793,3.7757,3.7792,3.7916,3.7341,3.698,3.678,3.6287,3.5652,3.4875,3.4963,3.4745,3.4164,3.4845,3.4856,3.4308,3.496,3.531,0.0,0.0,1.9793,2.0004,2.0849,2.1756,2.2095,2.2026,2.2276,2.3618,2.3852,2.4384,2.6186,2.6576,2.6879,2.7819,2.8656,2.92,2.9362,3.052,3.1282,3.1236,3.1182,3.1182,3.1197,3.1888,3.2453,3.2578,3.2609,3.2788,3.3121,3.3787,3.4533,3.5394,3.6213,3.6587,3.6572,3.6757,3.6446,3.578,3.4962,3.4681,3.4913,3.4374,3.4101,3.4101,3.4101,3.4101,3.4149,3.5015,3.5359,3.5424,3.6313,3.6763,3.6767,3.5874,3.5662,3.5663,3.51,3.5363,3.5843,3.5131,3.5379,3.5827,3.5114,3.5396,3.6008,3.6137,3.6702,3.7152,3.6706,3.6599,3.6599,3.6772,3.6662,3.6801,3.7655,3.8333,3.8856,3.9151,3.9795,4.0337,4.0485,4.0728,4.0871,4.0871,4.1152,4.1307,4.114,4.1471,4.123,3.9802,3.9878,3.946,3.8007,3.7899,3.7916,3.7984,3.7898,3.759,3.7015,3.6844,3.6465,3.5752,3.5841,3.5836,3.5817,3.5969,3.6058,3.604,3.6182,3.6266,1.8978,1.9396,1.9841,2.0843,2.1398,2.1834,2.2415,2.2466,2.2899,2.4545,2.4548,2.4687,2.6031,2.6527,2.6871,2.7276,2.803,2.8893,2.9899,3.0458,3.0852,3.1136,3.129,3.1175,3.0692,3.1244,0.0,3.1913,3.2803,3.3481,3.3849,3.4911,3.5707,3.6172,3.6854,3.7277,3.7435,3.7102,3.6862,3.677,3.6185,3.5534,3.5013,3.4978,3.4655,3.4101,3.4201,3.425,3.4299,3.5183,3.5544,3.5658,3.7129,3.7659,3.7607,3.7481,3.7501,3.7318,3.5943,3.5646,3.5943,3.6224,3.6572,3.6821,3.6489,3.6688,3.7018,3.705,3.7234,3.7434,3.7441,3.7422,3.7374,3.7486,3.7486,3.7672,3.8464,3.8868,3.9238,3.9846,4.0331,4.0728,4.0776,4.0948,4.1134,4.1198,4.1335,4.1426,4.1577,4.1296,4.0978,4.0588,3.9828,3.9137,3.8744,3.8257,3.8002,3.814,3.8106,3.8032,3.7874,3.7824,3.7443,3.6739,3.6796,3.6553,3.6024,3.6692,3.6751,3.6256,3.6835,3.7103,2.0085,2.0459,2.069,2.1543,2.201,2.2378,2.3061,2.3197,2.3627,2.5334,2.5075,2.487,2.5903,2.6273,2.6449,2.6464,2.7531,2.8793,2.9833,3.0155,3.0554,3.1213,3.0966,3.0572,3.0156,3.0711,0.0,3.17,3.2594,3.3349,3.3925,3.4935,3.5733,3.6213,3.6911,3.7504,3.7992,3.7657,3.7359,3.7196,3.6907,3.6307,3.5453,3.5662,3.5522,3.5015,3.5132,3.5183,3.5232,3.6155,3.6518,3.6598,3.8148,3.8664,3.856,3.8485,3.8488,3.827,3.6754,3.6455,3.6754,3.7086,3.7419,3.7636,3.7319,3.7536,3.7886,3.7968,3.817,3.837,3.8314,3.8246,3.8181,3.8294,3.8343,3.8546,3.934,3.9591,3.9825,4.04,4.0728,4.0918,4.0995,4.118,4.1408,4.1577,4.1622,4.1561,4.141,4.0831,4.0517,4.0637,3.9654,3.9031,3.9211,3.8524,3.8156,3.8241,3.8274,3.8289,3.8322,3.8354,3.8132,3.7635,3.7729,3.7534,3.6955,3.7613,3.7661,3.7165,3.7679,3.7978,2.1183,2.1928,2.2275,2.2161,2.263,2.3289,2.3996,2.4019,2.4276,2.5761,2.5316,2.4872,2.5681,2.5827,2.5701,2.5563,2.7345,2.8843,2.918,2.9745,3.0424,0.0,0.0,0.0,0.0,0.0,0.0,3.1966,0.0,3.2426,3.3309,3.3988,3.4738,3.5633,3.6518,3.7375,3.8164,3.8335,3.7995,3.715,3.7316,3.6999,3.6372,3.6531,3.662,3.6692,3.6692,3.6727,3.6793,3.7812,3.8127,3.8121,3.9289,3.9642,3.9454,3.8873,3.8656,3.8505,3.7568,3.7734,3.832,3.7653,3.792,3.837,3.7819,3.8104,3.8707,3.8841,3.9396,3.9783,3.9191,3.9022,3.9039,3.9054,3.912,3.9455,4.0152,4.0436,4.0583,4.0823,4.0935,4.1012,4.1209,4.1453,4.1692,4.1962,4.197,4.1626,4.0817,4.0258,3.9996,4.0211,3.9642,3.9265,3.9441,3.88,3.8343,3.8307,3.8368,3.8382,3.8415,3.8478,3.8478,3.8433,3.8627,3.864,3.851,3.864,3.8707,3.8707,3.8707,3.875,2.1928,2.2184,2.242,2.2863,2.3054,2.3171,2.3333,2.3422,2.3524,2.3756,2.3743,2.3639,2.3647,2.4652,0.0,2.563,2.7067,0.0,2.9235,2.9515,0.0,2.9904,0.0,3.0052,2.9775,3.0401,0.0,0.0,3.2583,3.3234,3.4127,3.4786,3.5538,3.6534,3.7179,3.77,3.818,3.8335,3.8311,3.8076,3.8172,3.7893,3.7178,3.7371,3.72,3.6692,3.6795,3.6847,3.6948,3.7932,3.8334,3.8417,3.9444,3.9798,3.9661,3.958,3.9564,3.9547,3.914,3.8839,3.8605,3.8956,3.9293,3.9479,3.9345,3.9564,3.9867,3.9917,4.0135,4.0167,3.9484,3.964,3.988,3.9416,3.9674,4.0116,4.0402,4.0534,4.0697,4.0888,4.1198,4.1515,4.1754,4.1909,4.1995,4.2079,4.1706,4.1515,4.1682,4.17,4.1698,4.1895,4.1391,4.0818,4.0274,3.9634,3.9006,3.8405,3.8382,3.8415,3.8478,3.8609,3.8658,3.8627,3.8701,3.8732,3.8658,3.8732,3.875,3.8707,3.8792,3.8851,2.2666,2.2801,2.2978,2.36,2.3526,2.3319,2.3434,2.3377,2.3231,2.2979,2.2672,2.2467,2.2665,2.3577,2.4305,0.0,0.0,0.0,2.8458,2.9076,2.962,0.0,3.037,0.0,3.0261,3.1005,3.1671,0.0,3.2577,3.3098,3.3953,3.458,3.5348,3.6286,3.6685,3.715,3.781,3.8246,3.852,3.852,3.86,3.8482,3.8182,3.8269,3.8179,3.7837,0.0,3.8011,3.8096,3.8685,3.8955,3.9057,3.9716,3.9901,3.9781,3.9935,4.0054,4.0037,3.9986,3.9716,3.9479,3.98,3.9935,3.9986,4.0138,4.0288,4.0387,4.0387,4.0436,4.0383,3.9973,4.0129,4.0285,3.9956,4.0195,4.0502,4.0631,4.0793,4.0935,4.1152,4.1515,4.1841,4.2097,4.2163,4.2228,4.231,4.2113,4.2085,4.2356,4.1841,4.1468,4.1564,4.1015,4.0492,4.0074,3.9465,3.894,3.8564,3.8559,3.859,3.8634,3.8762,3.8792,3.875,3.8851,3.8851,3.878,3.8792,3.8792,3.878,3.8822,3.8892,2.3301,2.348,2.3658,2.4148,2.3926,2.3642,2.3714,2.3451,2.2996,2.2497,0.0,2.1377,2.2053,2.2505,2.2889,2.3127,0.0,2.7302,2.7519,2.8774,2.9894,3.0525,3.0935,3.1083,3.0982,3.1829,3.2408,3.2408,3.2459,3.276,3.3403,3.3972,3.4777,3.5768,3.595,3.6506,3.7452,3.8251,3.8616,3.8616,3.875,3.886,3.9023,3.9023,3.9148,3.9325,3.9325,3.9432,3.9554,3.9677,3.9729,3.9729,3.9969,4.0037,3.9952,4.0087,4.0188,4.0288,4.0305,4.0387,4.0485,4.0221,4.0121,4.0188,4.0436,4.0534,4.0534,4.0534,4.0534,4.0534,4.0534,4.0534,4.0551,4.0703,4.0786,4.0882,4.1073,4.1145,4.1279,4.156,4.1841,4.215,4.243,4.2399,4.2521,4.2897,4.2961,4.2985,4.3023,4.1647,4.0635,4.0601,4.0148,3.9781,3.9577,3.914,3.8829,3.8707,3.878,3.8792,3.8792,3.8939,3.8921,3.8822,3.8939,3.895,3.8892,3.8862,3.8862,3.8921,3.8892,3.8979,2.3465,2.3625,2.3784,2.399,2.3829,2.349,2.3001,2.2653,0.0,0.0,2.0457,2.0557,1.9978,2.1585,2.3113,2.3523,2.5606,2.7533,2.8435,2.923,3.0027,0.0,3.1321,3.18,3.1887,3.2515,0.0,0.0,3.3224,3.3525,3.4083,3.4349,3.5179,3.6765,3.7058,3.7562,3.8381,3.8645,3.875,3.875,3.8805,3.886,3.9023,3.9148,3.9325,3.9501,3.9573,0.0,3.9677,3.9798,3.9849,3.9901,4.0037,4.0087,4.0087,4.0188,4.0305,4.0305,4.0436,4.0534,4.0648,4.0485,4.0419,4.0485,4.06,4.0648,4.0697,4.0776,4.0823,4.0823,4.0823,4.0745,4.0882,4.1695,4.1833,4.185,4.2107,4.1789,4.156,4.1736,4.2037,4.2501,4.3233,4.3001,4.3195,4.4614,4.437,4.4068,4.4125,4.325,4.2359,4.1724,4.2267,4.1915,3.9987,4.0359,4.0178,3.8884,3.8792,3.8792,3.8792,3.8881,3.891,3.8862,3.895,3.8979,3.8979,3.9036,3.9045,3.9073,3.9221,3.9283,2.3797,2.3839,2.3925,2.4009,2.3583,2.2909,2.2088,0.0,0.0,0.0,1.9004,1.8983,1.9374,2.0909,0.0,2.2971,2.5312,2.7207,2.7731,2.9486,3.0828,3.1061,3.2139,3.2819,3.2714,3.3156,3.3398,3.3398,3.3555,3.3857,3.4451,3.5345,3.6107,3.6648,3.7578,3.8117,3.8172,3.8679,3.8969,3.904,3.9148,3.9255,3.9329,3.9085,3.9187,3.9573,3.9292,0.0,3.9798,3.9901,3.9952,4.0037,4.0138,4.0188,4.0238,4.0337,4.0485,4.0631,4.068,4.0823,4.0948,4.0901,4.0871,4.084,4.0905,4.0905,4.0974,4.1354,4.1457,4.1591,4.2054,4.2158,4.2262,4.2801,4.2967,4.291,4.2684,4.2527,4.2387,4.2126,4.2567,4.3148,4.3768,4.3671,4.3788,4.4704,4.429,4.3871,4.3871,4.3649,4.2935,4.1519,4.226,4.2051,4.0129,4.0793,4.0769,3.9534,3.946,3.9478,3.9418,3.952,3.9549,3.9538,3.9655,3.9537,3.912,3.9565,3.9602,3.9266,4.0205,4.0192,2.3651,2.3625,2.3599,2.3666,2.3065,2.2196,2.1285,1.9992,0.0,1.8736,1.7949,1.7713,1.9143,2.0414,2.1506,0.0,2.4764,2.6722,2.715,2.9637,3.147,0.0,3.2926,0.0,3.3503,3.3658,0.0,3.3658,3.389,3.4278,3.4681,3.613,3.6847,3.662,3.784,3.8341,3.8056,3.876,3.9202,3.9325,3.9484,3.959,3.9661,3.9143,3.9193,3.9696,3.9177,0.0,0.0,4.0003,4.0087,4.0188,4.0337,4.0404,4.0404,4.0583,4.0776,4.0935,4.0965,4.1088,4.1255,4.1255,4.1198,4.1123,4.1123,4.1123,4.1232,4.1881,4.2089,4.2327,4.3204,4.3461,4.3545,4.3847,4.4073,4.4038,4.3504,4.351,4.3398,4.2721,4.3309,4.3998,4.4075,4.4134,4.4304,4.4656,4.4162,4.3738,4.3738,4.391,4.3299,4.1479,4.2099,4.2,4.0456,4.1163,4.1305,4.0455,4.0233,4.0184,4.0277,4.0263,4.0304,4.0429,4.0595,4.03,3.9498,4.016,4.0122,3.9488,4.0761,4.0708,2.2224,2.2224,2.2215,2.2347,2.1973,2.1446,2.0792,0.0,1.8669,1.8784,1.7935,1.756,1.8679,2.0096,2.1344,2.2132,0.0,2.61,2.7997,2.9646,3.1197,3.253,0.0,0.0,3.405,3.405,3.405,3.405,3.4818,3.5207,3.5134,3.593,3.6787,3.7658,3.7912,3.8294,3.887,3.9276,3.9432,3.9484,3.9642,3.9677,3.9729,3.9782,3.9833,3.9884,4.0087,0.0,0.0,4.0387,4.0436,4.0485,4.06,4.0648,4.0697,4.0953,4.1047,4.1093,4.1134,4.1272,4.138,4.138,4.1318,4.1209,4.1209,4.1209,4.1366,4.2119,4.2345,4.2519,4.3349,4.3607,4.3812,4.4751,4.507,4.5194,4.5336,4.4947,4.4346,4.3632,4.4381,4.4907,4.4222,4.4231,4.4674,4.5627,4.5022,4.4581,4.4826,4.4755,4.4162,4.2686,4.3195,4.3028,4.1496,4.2088,4.2248,4.1403,4.0626,4.0485,4.1145,4.0667,4.0736,4.1431,4.1605,4.1305,4.0562,4.0656,4.0333,3.9669,3.982,3.9878,2.1925,2.1901,2.1756,2.1493,2.0782,2.0017,1.9442,1.8007,1.7064,1.8061,1.75,1.7278,1.8679,1.9841,2.1085,0.0,2.4364,2.624,2.8092,3.0106,3.1675,3.2336,3.3502,0.0,0.0,0.0,3.4349,3.4448,3.5168,3.5645,3.5695,3.6708,3.7658,3.8487,3.8788,3.9043,3.9325,3.952,3.9642,3.9746,3.9884,3.9986,4.007,3.973,3.9814,4.0254,3.991,0.0,0.0,4.06,4.0648,4.0631,4.0858,4.0953,4.0953,4.1105,4.1244,4.138,4.1408,4.1542,4.1648,4.1648,4.1542,4.1408,4.1363,4.1318,4.1475,4.2183,4.2723,4.3293,4.424,4.4957,4.5522,4.5917,4.61,4.607,4.5666,4.5526,4.5298,4.4576,4.4913,4.5279,4.5164,4.4802,4.4783,4.5291,4.4699,4.4199,4.4284,4.4313,4.4101,4.3534,4.3712,4.3421,4.2365,4.3015,4.3126,4.231,4.1464,4.1311,4.2106,4.1464,4.1456,4.2273,4.192,4.1381,4.0641,4.1207,4.1123,4.0446,4.1566,4.185,2.1288,2.1235,2.1076,2.0736,1.9863,1.8964,1.8523,1.6987,1.6017,1.7384,1.715,1.7079,1.8563,1.966,2.098,0.0,2.4461,2.6146,2.8163,3.0367,3.1827,3.1965,0.0,3.4512,0.0,3.4511,3.4804,3.4899,3.5379,3.5777,3.609,3.6986,3.7928,3.8801,3.9315,3.9537,3.9537,3.9729,3.9884,3.9935,4.0138,4.0288,4.032,3.989,3.999,4.0451,3.9987,0.0,0.0,4.0745,4.084,4.0871,4.1076,4.1186,4.1215,4.1272,4.1453,4.1604,4.1604,4.1648,4.1736,4.1736,4.1692,4.1604,4.1515,4.1515,4.1673,4.2352,4.3325,4.4313,4.497,4.5976,4.6731,4.6731,4.6842,4.6791,4.6248,4.6319,4.618,4.5323,4.5468,4.5615,4.5187,4.4893,4.4722,4.4672,4.4221,4.3883,4.3902,4.3929,4.4005,4.4067,4.3974,4.3738,4.3255,4.3689,4.3763,4.3237,4.2377,4.2284,4.3083,4.2389,4.2352,4.3089,4.2489,4.1782,4.0988,4.1691,4.1531,4.0565,4.2186,4.2621,1.995,1.9899,1.9863,1.997,1.9316,1.8545,1.825,1.689,1.5962,1.69,1.6933,1.7139,1.8223,1.9546,2.1143,2.3079,2.4017,2.5513,2.8398,3.0168,3.1275,0.0,0.0,3.4961,3.4072,3.4764,3.5291,3.5291,3.5308,0.0,3.6379,3.643,3.705,3.8352,3.9257,3.9677,3.9677,3.9969,4.0087,4.007,4.0387,4.0485,4.0485,4.0468,4.0468,4.0534,0.0,0.0,0.0,4.1047,4.1105,4.1209,4.1318,4.138,4.1426,4.156,4.1604,4.1604,4.1604,4.1604,4.1604,4.1604,4.1604,4.1604,4.1736,4.1797,4.1938,4.2696,4.4218,4.5559,4.5421,4.6191,4.6998,4.6998,4.7088,4.7267,4.7468,4.7493,4.7084,4.5754,4.6182,4.6079,4.3903,4.4228,4.4589,4.3994,4.3869,4.3902,4.4153,4.4011,4.3992,4.4255,4.4116,4.4036,4.4165,4.4085,4.4036,4.4184,4.3364,4.3252,4.4053,4.3492,4.3455,4.4072,4.3559,4.2835,4.1892,4.2025,4.128,3.9727,4.0688,4.1241,1.838,1.8849,1.9445,1.9124,1.8377,1.773,1.7819,1.6638,1.5748,1.6703,1.7143,1.763,1.8514,1.9491,2.0907,2.3288,0.0,0.0,0.0,0.0,0.0,3.1689,3.3946,3.52,0.0,0.0,3.5549,3.5639,3.5639,3.5695,3.584,3.6514,3.7401,3.8505,3.8874,3.9379,3.9969,4.0138,4.0288,4.0387,4.0534,4.0648,4.0648,4.0728,4.0776,0.0,0.0,0.0,0.0,4.0704,4.0926,4.1453,4.1515,4.1666,4.1815,4.1648,4.171,4.1858,4.1754,4.1797,4.1858,4.1858,4.1858,4.1858,4.1902,4.1884,4.2105,4.3474,4.4723,4.5782,4.6326,4.6801,4.7133,4.7187,4.7294,4.7425,4.7468,4.7621,4.7583,4.7157,4.6551,4.59,4.5295,4.4607,4.4063,4.3979,4.4042,4.4092,4.4184,4.4165,4.4226,4.4285,4.4195,4.4135,4.4184,4.4085,4.4085,4.4274,4.3394,4.3301,4.4199,4.3453,4.3088,4.329,4.3203,4.2508,4.1147,4.187,4.1756,4.0808,4.1768,4.1601,0.0,1.8715,1.9351,1.907,1.8258,1.7554,1.7679,1.6617,1.5801,1.6382,1.7165,1.7932,1.8518,1.9368,2.0839,2.3349,2.3853,0.0,0.0,0.0,0.0,3.2774,0.0,0.0,0.0,3.5528,3.58,3.5861,3.5861,3.5861,3.5844,3.6376,3.724,3.8466,3.8804,3.936,4.0221,4.0337,4.0436,4.0583,4.0697,4.0793,4.0793,4.0888,4.0716,0.0,0.0,0.0,0.0,4.0315,4.0683,4.1227,4.1587,4.1797,4.1962,4.1754,4.1797,4.1902,4.1902,4.1902,4.1945,4.2005,4.203,4.2115,4.2115,4.2055,4.2207,4.3287,4.4528,4.5605,4.6113,4.6819,4.7399,4.7363,4.7511,4.7657,4.7657,4.7806,4.7882,4.7612,4.6632,4.5846,4.5711,4.4653,4.3883,4.4055,4.4153,4.4214,4.4244,4.4255,4.4285,4.4285,4.4244,4.4214,4.4244,4.4085,4.4085,4.4285,4.3751,4.3695,4.4354,4.3791,4.3332,4.3015,4.281,4.2111,4.0841,4.1208,4.1355,4.1295,4.1604,4.1187,0.0,1.9258,1.942,1.9595,1.8743,1.7857,1.7714,1.6795,0.0,1.5985,1.7013,1.8007,1.8285,1.9234,2.0783,2.3224,2.366,0.0,0.0,2.9231,0.0,0.0,3.4123,0.0,3.5959,3.6088,3.6019,3.6019,3.6019,3.6062,3.6165,3.6122,3.6764,3.8362,3.8901,3.9586,4.0534,4.0534,4.0583,4.0697,4.084,4.0935,4.0935,4.0866,4.0452,0.0,0.0,0.0,0.0,3.9974,4.0496,4.0775,4.1498,4.1884,4.1987,4.1884,4.1841,4.1841,4.1945,4.1884,4.1823,4.1987,4.2139,4.2328,4.2328,4.2364,4.2417,4.2575,4.3886,4.5233,4.5132,4.6392,4.7657,4.7554,4.7741,4.7902,4.7902,4.8087,4.8007,4.7333,4.658,4.584,4.5271,4.4471,4.3979,4.4184,4.4214,4.4244,4.4285,4.4314,4.4314,4.4314,4.4244,4.4244,4.4285,4.4097,4.4116,4.4285,4.4314,4.4373,4.4487,4.4458,4.4045,4.3219,4.2434,4.1713,4.1017,4.028,4.0374,4.1201,4.0539,4.0196,1.836,0.0,1.9247,1.9001,1.8293,1.7648,0.0,1.6631,1.5788,1.5837,0.0,1.7495,1.8369,1.9249,2.0476,2.2385,0.0,2.4237,2.5532,0.0,0.0,3.3031,3.4272,3.5094,3.5397,3.6032,3.6318,3.6216,3.6318,3.6335,3.6225,3.6335,3.7068,3.8498,3.8677,3.9387,4.0631,4.0648,4.0745,4.0823,4.1,4.1047,4.1029,4.0516,4.0197,0.0,0.0,0.0,3.9992,3.9786,4.05,4.1697,4.1874,4.2072,4.2222,4.203,4.197,4.2019,4.1884,4.1909,4.2061,4.2181,4.2305,4.2445,4.2445,4.2898,4.3445,4.3504,4.4695,4.6002,4.6109,4.6915,4.7741,4.7829,4.801,4.8126,4.8126,4.8284,4.8382,4.8199,4.7129,4.6163,4.6045,4.492,4.4097,4.4184,4.4244,4.4285,4.4373,4.4383,4.4383,4.4383,4.4354,4.4344,4.4314,4.4195,4.4226,4.4373,4.4411,4.4458,4.4515,4.3904,4.3533,4.3415,4.2153,4.1737,4.2262,4.0842,4.0234,4.0463,4.0401,4.0358,1.8074,1.8699,1.9309,1.9152,1.8646,1.819,1.816,0.0,0.0,0.0,0.0,1.7953,1.9056,1.9576,2.0432,0.0,2.2933,0.0,0.0,0.0,3.1131,3.3171,3.4547,3.5434,0.0,3.6219,3.6502,3.6485,3.6544,3.6561,3.6502,3.6544,3.7141,3.8278,3.8252,3.9109,4.0931,4.0888,4.0935,4.1041,4.1105,4.1169,4.1134,4.0763,4.0252,0.0,0.0,0.0,3.9266,3.947,4.03,4.1492,4.1871,4.2139,4.2287,4.2097,4.2079,4.2103,4.2037,4.2121,4.2205,4.2346,4.2486,4.2566,4.2606,4.3012,4.3448,4.3786,4.4859,4.5988,4.6472,4.7202,4.7842,4.797,4.809,4.8187,4.8247,4.8401,4.855,4.8606,4.7714,4.6947,4.6962,4.5704,4.4736,4.4845,4.4557,4.4373,4.4383,4.4411,4.444,4.4411,4.4411,4.444,4.4458,4.4401,4.4401,4.444,4.4487,4.4524,4.4632,4.4207,4.3681,4.3066,4.1554,4.1052,4.1551,4.0673,4.027,4.0286,4.0389,4.0457,1.7932,1.8732,1.9323,1.942,1.9188,1.8881,1.8711,0.0,0.0,0.0,0.0,0.0,0.0,1.997,0.0,0.0,0.0,0.0,2.725,2.9229,3.1192,3.3511,3.457,0.0,3.6416,3.6544,3.6585,3.6702,3.6702,3.6725,3.6788,3.6725,3.7091,3.7982,3.7875,3.8903,4.1108,4.0995,4.0995,4.1035,4.108,4.1133,4.1237,4.0889,4.0149,3.9093,0.0,0.0,3.8292,3.9234,4.017,4.1073,4.1855,4.2205,4.2287,4.2145,4.2145,4.2163,4.2246,4.2287,4.2287,4.2463,4.2566,4.2609,4.2745,4.2842,4.3099,4.3981,4.482,4.5685,4.6524,4.7325,4.7966,4.805,4.813,4.8226,4.8324,4.8495,4.8642,4.8787,4.8131,4.7601,4.7765,4.6395,4.5338,4.5552,4.4907,4.4411,4.4411,4.4458,4.4468,4.444,4.4468,4.4524,4.4605,4.4605,4.4605,4.4551,4.4551,4.4546,4.4461,4.4467,4.382,4.2376,4.1072,4.0406,4.0443,4.0382,4.0375,4.0422,4.0504,4.0554,1.7468,1.8161,1.8804,1.8757,1.8872,1.8732,1.7783,0.0,0.0,0.0,0.0,0.0,0.0,2.0,2.0517,0.0,0.0,2.4929,0.0,0.0,3.0317,3.2193,0.0,3.514,3.6563,3.6708,3.6748,3.6702,3.6748,3.6748,3.6742,3.6748,3.7138,3.7965,3.7982,3.8853,4.0672,4.0376,4.0259,4.0287,4.0447,4.0867,4.149,3.961,3.8983,3.9376,0.0,3.8126,3.9312,3.962,4.0628,4.1943,4.2192,4.2287,4.2287,4.2287,4.2287,4.2287,4.2287,4.2246,4.2163,4.2405,4.2566,4.2609,4.2745,4.2955,4.3358,4.4711,4.5298,4.5706,4.6702,4.7545,4.8148,4.8229,4.8267,4.8324,4.8457,4.855,4.8642,4.8787,4.7768,4.7061,4.7686,4.6034,4.4842,4.5488,4.4907,4.4411,4.4487,4.444,4.444,4.4551,4.4578,4.4605,4.4685,4.4667,4.4738,4.4821,4.4821,4.427,4.2984,4.299,4.2597,4.1666,4.1475,4.1431,4.1536,4.0873,4.0558,4.0573,4.0646,4.064,1.724,1.7849,1.8329,1.8765,1.9209,1.9397,1.8877,0.0,0.0,0.0,0.0,0.0,0.0,0.0,2.0897,2.2637,0.0,2.6048,2.7673,2.9642,3.1515,0.0,0.0,3.5492,3.6643,3.6869,3.6908,3.6908,3.7009,3.7027,3.693,3.7009,3.7224,3.7479,3.7496,3.7928,3.8712,3.8989,3.9596,4.0463,4.1014,4.1004,4.0493,3.9941,3.9335,3.8818,0.0,3.8413,3.9529,3.9656,4.0641,4.2103,4.2246,4.2287,4.2287,4.2287,4.2346,4.2405,4.2346,4.2305,4.2346,4.2508,4.257,4.2649,4.2804,4.2918,4.3229,4.4467,4.514,4.5815,4.7174,4.7798,4.813,4.8267,4.8306,4.8344,4.8513,4.8569,4.8642,4.8804,4.8382,4.8124,4.8478,4.6981,4.5884,4.6296,4.5265,4.4487,4.4515,4.4496,4.4551,4.4659,4.4685,4.4738,4.4796,4.4846,4.47,4.4289,4.4326,4.3847,4.2694,4.2316,4.1954,4.1607,4.1198,4.1053,4.1155,4.0776,4.0612,4.0646,4.0681,4.0688,1.6926,1.7581,1.8009,1.8894,0.0,2.0027,1.9822,0.0,0.0,0.0,0.0,0.0,0.0,2.1217,0.0,2.3746,2.5472,2.7052,2.8372,3.0472,3.2458,3.3992,3.4847,3.5741,3.6764,3.6948,3.7009,3.7108,3.7164,3.7164,3.7091,3.7164,3.7164,3.7108,3.7108,3.7217,3.745,3.8068,3.8987,4.0212,4.0872,4.0772,3.9939,3.9992,3.9509,3.8651,3.8457,3.8828,3.957,3.9833,4.0801,4.2163,4.2246,4.2287,4.2287,4.2287,4.2387,4.2503,4.2387,4.2427,4.2526,4.2627,4.2649,4.2688,4.2862,4.2882,4.3101,4.4088,4.478,4.5615,4.7317,4.7758,4.7874,4.8192,4.8121,4.8124,4.8495,4.8458,4.8438,4.8802,4.8699,4.8613,4.888,4.7461,4.639,4.6655,4.5482,4.4542,4.4524,4.4578,4.4632,4.4693,4.477,4.4821,4.4919,4.482,4.4387,4.3525,4.3371,4.3134,4.2756,4.1819,4.1452,4.1711,4.0931,4.0554,4.0617,4.064,4.0662,4.0726,4.0725,4.075,1.6314,1.7184,1.8026,1.8959,0.0,0.0,1.9258,1.9657,0.0,2.0192,0.0,0.0,0.0,2.2476,2.3895,2.4927,2.6399,2.7735,2.8648,0.0,3.1777,3.3389,3.4284,3.5355,3.6829,3.697,3.7009,3.7108,3.7048,3.7048,3.7108,3.7048,3.7048,3.7108,3.7108,3.7538,3.8475,3.8546,3.8557,3.8483,3.8717,3.958,4.0842,3.8635,3.8368,3.9669,3.8883,3.9008,3.9846,4.0677,4.152,4.2287,4.2287,4.2287,4.2287,4.2287,4.2387,4.2503,4.2503,4.2526,4.2609,4.2745,4.2783,4.2783,4.2862,4.2882,4.3101,4.4049,4.436,4.4816,4.6592,4.711,4.7351,4.8043,4.7679,4.7425,4.8347,4.796,4.7755,4.8639,4.7701,4.7066,4.7932,4.6181,4.4928,4.5745,4.517,4.4605,4.4685,4.4632,4.4659,4.477,4.4815,4.4846,4.4967,4.436,4.3626,4.2826,4.2006,4.1933,4.2776,4.1318,4.0907,4.178,4.1007,4.064,4.0687,4.0752,4.0788,4.0788,4.0784,4.0807,1.6378,1.7237,1.8075,1.8974,0.0,0.0,0.0,0.0,0.0,2.0385,2.0142,0.0,0.0,0.0,2.4413,2.5778,2.7308,2.8739,2.9929,3.1164,3.2494,3.4056,3.4495,3.5359,3.7023,3.7182,3.7203,3.7261,3.7354,3.7354,3.7299,3.7354,3.7354,3.7299,3.7299,3.7479,3.7873,3.7873,3.8084,3.8504,3.9637,3.9961,3.9622,3.9676,3.9747,3.974,3.8958,3.9331,4.0544,4.0348,4.1105,4.2287,4.2287,4.2287,4.2328,4.2387,4.2468,4.2548,4.2548,4.2627,4.2745,4.2783,4.2783,4.2822,4.2974,4.2994,4.3104,4.3616,4.3725,4.4145,4.5827,4.6652,4.6981,4.68,4.6947,4.7076,4.7003,4.7204,4.7367,4.7374,4.7429,4.741,4.728,4.6135,4.5369,4.5754,4.5132,4.4632,4.4685,4.4693,4.4745,4.4846,4.4919,4.4805,4.4341,4.3586,4.2808,4.199,4.1686,4.1456,4.1315,4.077,4.0677,4.1114,4.0822,4.0688,4.0764,4.0792,4.0815,4.0856,4.0867,4.0849,1.6456,1.729,1.8141,0.0,0.0,0.0,0.0,0.0,0.0,2.0395,2.0387,0.0,0.0,0.0,0.0,0.0,2.8233,2.9624,3.0851,3.2038,3.3231,3.453,3.4953,3.5678,3.7173,3.7297,3.7372,3.7485,3.754,3.7503,3.7466,3.7503,3.7503,3.7411,3.7392,3.7411,3.7485,3.7735,3.8002,3.8322,3.9968,4.0221,3.9182,4.0253,4.0392,3.9797,3.9512,3.9993,4.1011,4.0726,4.1283,4.2287,4.2287,4.2287,4.2346,4.2445,4.2566,4.2609,4.2649,4.2727,4.2842,4.2842,4.286,4.2917,4.3067,4.3104,4.316,4.3359,4.3394,4.365,4.4766,4.5663,4.6194,4.5938,4.6122,4.6342,4.6192,4.641,4.6607,4.6465,4.6834,4.6999,4.6476,4.5809,4.535,4.5442,4.4998,4.4685,4.4745,4.4796,4.4751,4.4578,4.4657,4.4405,4.3588,4.2791,4.2125,4.1571,4.136,4.1125,4.0828,4.0623,4.0714,4.11,4.0861,4.075,4.0792,4.0818,4.0858,4.0898,4.0917,4.0926,1.6458,1.7333,1.8213,0.0,0.0,0.0,0.0,0.0,0.0,2.0167,0.0,2.1731,2.3142,0.0,0.0,2.7738,2.9211,3.0402,3.1203,3.2562,3.3775,3.4582,3.5447,3.6335,3.7226,3.7297,3.7392,3.7667,3.7522,3.7466,3.7577,3.7466,3.7392,3.7411,3.7411,3.7485,3.7703,3.8491,3.8491,3.7739,3.9315,4.0029,3.9896,3.9914,3.9914,3.9968,4.0753,4.1092,4.1163,4.1966,4.2287,4.2287,4.2287,4.2287,4.2328,4.2445,4.2566,4.2609,4.2745,4.2842,4.2882,4.2882,4.2994,4.3104,4.3104,4.316,4.3251,4.334,4.3394,4.3429,4.3497,4.4085,4.4911,4.5682,4.5349,4.5052,4.5985,4.5626,4.5323,4.612,4.5788,4.5426,4.548,4.4926,4.457,4.4685,4.4764,4.4821,4.4895,4.4895,4.4616,4.3889,4.3847,4.3569,4.277,4.203,4.1608,4.1589,4.0893,4.0847,4.1654,4.0992,4.1034,4.197,4.1199,4.0807,4.0807,4.0859,4.0907,4.0888,4.0971,4.1011,1.5722,1.6873,0.0,1.832,0.0,0.0,0.0,0.0,0.0,0.0,0.0,2.197,2.3231,0.0,0.0,2.8603,3.011,3.1338,3.2031,3.2508,3.3124,3.397,3.4836,3.5741,3.672,3.7273,3.7649,3.781,3.7685,3.7631,3.7667,3.7577,3.7577,3.7595,3.7595,3.7667,3.7846,3.8097,3.8367,3.869,3.9175,3.9279,3.9165,4.0253,4.0753,4.077,4.1002,4.1413,4.1948,4.2297,4.2445,4.2445,4.249,4.2468,4.2445,4.2548,4.257,4.2609,4.2745,4.2842,4.2882,4.2882,4.2994,4.3104,4.316,4.3269,4.3376,4.3446,4.3463,4.3497,4.3548,4.3731,4.397,4.4228,4.466,4.4909,4.458,4.4846,4.5087,4.4798,4.5134,4.5342,4.4937,4.4693,4.4605,4.4764,4.4789,4.4821,4.4895,4.4967,4.4715,4.39,4.3893,4.3384,4.1991,4.1705,4.1359,4.0801,4.0578,4.0623,4.0924,4.0747,4.081,4.1144,4.0981,4.0868,4.0869,4.0936,4.098,4.0979,4.0999,4.102,1.5811,1.6937,0.0,1.8423,1.9555,2.0619,2.0796,0.0,0.0,0.0,0.0,2.3106,2.4775,2.6476,0.0,3.0034,3.1021,3.1817,3.255,3.2889,3.3385,3.4233,3.5083,3.6024,3.7022,3.7541,3.7846,3.8021,3.7898,3.781,3.7792,3.7757,3.7739,3.7703,3.7757,3.7828,3.7951,3.8275,3.8509,3.8671,3.8995,3.8887,3.8491,4.0027,4.0685,4.0721,4.1403,4.1899,4.2328,4.2468,4.2526,4.2503,4.2548,4.2548,4.2548,4.2588,4.2649,4.2688,4.2804,4.288,4.2882,4.2882,4.2994,4.3104,4.3178,4.3286,4.3411,4.3463,4.3497,4.3532,4.3582,4.3634,4.3701,4.3734,4.4184,4.4522,4.3976,4.4382,4.4693,4.4221,4.4659,4.5011,4.4617,4.4605,4.4685,4.477,4.4865,4.4895,4.4967,4.4775,4.4309,4.3493,4.3194,4.2508,4.1188,4.1109,4.095,4.0482,4.0539,4.0598,4.064,4.0694,4.0764,4.0792,4.0888,4.0927,4.0935,4.0988,4.1006,4.1019,4.0682,4.0544,1.6467,0.0,0.0,1.9074,1.9946,0.0,2.1288,2.132,2.1597,2.2905,0.0,2.4657,2.7058,2.8073,2.9341,3.1722,3.196,3.2076,3.284,3.3458,3.4122,3.4833,3.5774,3.6665,3.7521,3.7719,3.7859,3.7975,3.7925,3.7859,3.7791,3.7931,3.7915,3.7739,3.7846,3.7951,3.8036,3.874,3.874,3.8036,3.8758,3.8688,3.7988,3.9424,4.0211,4.0387,4.1877,4.2445,4.2328,4.249,4.2548,4.2503,4.2503,4.2566,4.2609,4.2609,4.2688,4.2822,4.2862,4.2882,4.2882,4.2882,4.2994,4.3141,4.3178,4.3305,4.3411,4.3497,4.3497,4.3532,4.36,4.3719,4.3837,4.3915,4.3992,4.4005,4.4005,4.4147,4.4285,4.4214,4.4373,4.4496,4.4515,4.4632,4.4719,4.4815,4.4862,4.4924,4.4988,4.4271,4.3516,4.2775,4.2049,4.1282,4.0473,4.046,4.0504,4.0504,4.0626,4.0707,4.0725,4.0769,4.0804,4.0818,4.0936,4.0999,4.1003,4.0993,4.1039,4.1081,4.0209,3.9809,1.6453,1.7337,0.0,0.0,2.0305,2.1647,2.2758,2.2989,2.2954,2.2959,2.3561,2.4764,2.7063,2.8682,3.0194,3.1908,3.257,3.2949,3.3165,3.3265,3.3347,3.3508,3.4961,3.576,3.5281,3.641,3.6946,3.6363,3.6772,3.703,3.7048,3.7592,3.7916,3.7949,3.7949,3.8054,3.814,3.8321,3.8337,0.0,3.8355,3.8337,3.8262,3.959,4.0861,4.2002,4.236,4.2445,4.2328,4.2445,4.2548,4.2588,4.2588,4.2667,4.2745,4.2649,4.2688,4.2783,4.2822,4.2842,4.2882,4.2882,4.3013,4.3178,4.3214,4.3322,4.3497,4.3497,4.3497,4.3532,4.3719,4.3771,4.3869,4.4092,4.4153,4.4135,4.4005,4.4147,4.4285,4.4285,4.4401,4.4524,4.4632,4.4719,4.4821,4.4943,4.4486,4.4138,4.4179,4.3519,4.2738,4.1953,4.1759,4.1332,4.0466,4.0508,4.0603,4.064,4.0675,4.0738,4.0856,4.0826,4.0818,4.0869,4.0965,4.0996,4.1,4.0993,4.1039,4.1085,4.0207,3.983,0.0,0.0,0.0,1.9953,0.0,2.2926,2.3395,2.4157,2.4623,2.4229,2.4797,2.5949,2.7881,2.9558,3.1133,3.2657,3.3172,3.3386,3.3393,3.3334,3.3412,3.381,3.4697,3.5266,3.5217,3.5991,3.6463,3.649,3.6725,3.7058,3.7419,3.7837,3.802,3.7984,3.807,3.814,3.8192,3.8192,3.8241,3.8307,3.8274,3.8492,3.8891,3.9788,4.0845,4.2009,4.2386,4.2508,4.245,4.2609,4.2688,4.2688,4.2609,4.2688,4.2842,4.2727,4.2783,4.2955,4.2974,4.3013,4.305,4.305,4.3123,4.3214,4.3305,4.3393,4.3532,4.3548,4.3634,4.3701,4.3818,4.3915,4.3992,4.4153,4.4214,4.4226,4.4147,4.4296,4.4411,4.4401,4.4524,4.4659,4.4738,4.4821,4.4787,4.4478,4.4135,4.3802,4.3363,4.2718,4.2124,4.1737,4.1347,4.0973,4.0573,4.0612,4.0668,4.0739,4.0769,4.0826,4.0898,4.0908,4.0898,4.0906,4.0968,4.1025,4.1052,4.1045,4.0866,4.0494,3.9625,3.9023,0.0,0.0,1.8938,2.1196,2.2903,0.0,2.3747,2.493,2.5972,2.5615,2.6277,2.7417,2.9038,3.0436,3.1884,3.3496,3.3698,3.3615,3.3577,3.3549,3.3803,3.4418,3.4648,3.5023,3.5709,3.5848,3.6243,3.6973,3.7017,3.7283,3.7899,3.8083,3.814,3.8036,3.814,3.8192,3.8192,3.8192,3.8241,3.8307,3.8307,3.8725,3.9509,3.9878,4.0524,4.1497,4.225,4.2609,4.2609,4.2747,4.2804,4.2783,4.2649,4.2709,4.2882,4.2804,4.2917,4.3104,4.3142,4.3087,4.3032,4.316,4.3123,4.3068,4.3339,4.3446,4.3495,4.3416,4.3623,4.3846,4.373,4.3893,4.4109,4.4195,4.4304,4.4314,4.4314,4.4458,4.4551,4.4515,4.4659,4.4815,4.4821,4.4938,4.4805,4.4121,4.3914,4.3559,4.2833,4.2009,4.1539,4.1585,4.0962,4.0579,4.0687,4.0732,4.0769,4.0812,4.0867,4.0917,4.0915,4.0971,4.091,4.0715,4.0889,4.0955,4.0883,4.0871,4.0533,3.9863,3.8824,3.7977,0.0,0.0,2.0319,0.0,2.3068,2.3798,0.0,0.0,2.5893,0.0,2.6859,2.8315,2.9917,3.0923,3.2017,3.3688,3.3895,3.386,3.386,3.3807,3.3762,3.3751,3.44,3.4903,3.4965,3.5593,3.606,3.6223,3.6783,3.7144,3.7235,3.7827,3.8192,3.8174,3.8192,3.8192,3.8192,3.8192,3.8241,3.8307,3.8307,3.871,3.9422,3.9372,4.0149,4.1591,4.2307,4.2609,4.2609,4.2566,4.2645,4.2783,4.2649,4.2709,4.2882,4.2804,4.2917,4.3104,4.3104,4.2705,4.2267,4.2977,4.2794,4.2463,4.3175,4.3481,4.3435,4.2754,4.3185,4.367,4.3089,4.3485,4.4067,4.4325,4.4383,4.4354,4.4314,4.443,4.4515,4.4515,4.4659,4.4821,4.4943,4.5057,4.5065,4.5017,4.3884,4.2986,4.289,4.1632,4.0766,4.0746,4.0712,4.0675,4.07,4.0812,4.0886,4.0886,4.0907,4.0921,4.0974,4.1,4.0676,3.9953,4.065,4.0662,3.9969,3.9969,3.9921,3.9763,3.8147,3.7313,1.7161,1.9589,2.1946,0.0,2.3528,2.4485,2.4622,0.0,2.6573,2.6573,2.7793,2.9186,3.0312,3.1158,3.2186,3.379,3.4023,3.3998,3.3947,3.3921,3.3868,3.378,3.4119,3.4339,3.4293,3.5036,3.5713,3.624,3.6863,3.738,3.7822,3.8107,3.8241,3.8192,3.8192,3.8192,3.8192,3.8192,3.8241,3.8307,3.8387,3.8536,3.8785,3.9204,3.9949,4.1017,4.1717,4.206,4.2134,4.2526,4.2745,4.2842,4.2688,4.2495,4.2377,4.2811,4.2814,4.2649,4.314,4.281,4.2223,4.2571,4.2512,4.2268,4.2176,4.2603,4.2936,4.2155,4.2298,4.2605,4.2321,4.2547,4.2894,4.3025,4.3482,4.3847,4.3847,4.4204,4.4447,4.4127,4.4159,4.4128,4.3722,4.3697,4.3611,4.3193,4.266,4.2115,4.1615,4.1001,4.0607,4.0635,4.0688,4.0738,4.0815,4.0867,4.0927,4.0945,4.0952,4.077,4.0344,4.0325,3.9725,3.8424,3.9661,3.9938,3.9139,3.908,3.8844,3.838,3.7561,3.6943,0.0,0.0,2.2353,2.2322,2.3531,2.4675,0.0,0.0,2.7169,0.0,2.8464,2.9849,3.0837,3.1464,3.2367,3.3961,3.4197,3.4173,3.4124,3.4074,3.4023,3.3947,3.3947,3.4013,3.4215,3.4788,3.5478,3.6371,3.6953,3.7528,3.8054,3.8212,3.8274,3.8192,3.8192,3.8192,3.8192,3.7993,3.8008,3.8223,3.815,3.8168,3.8292,3.8909,3.9404,3.9931,4.089,4.1323,4.1415,4.1917,4.219,4.2247,4.2075,4.1935,4.1887,4.2523,4.2504,4.226,4.2949,4.2558,4.1783,4.1985,4.1926,4.1733,4.1378,4.1804,4.2261,4.1516,4.1539,4.1764,4.1586,4.1788,4.2018,4.2044,4.2585,4.317,4.3448,4.395,4.4165,4.3531,4.3449,4.3285,4.2724,4.2676,4.2507,4.1934,4.1813,4.1566,4.0908,4.0694,4.0642,4.0694,4.0738,4.0784,4.0888,4.0908,4.0956,4.1007,4.0809,4.0422,3.9811,3.9589,3.8783,3.7338,3.8531,3.8864,3.8279,3.82,3.7867,3.7269,3.6988,3.6506,0.0,1.9787,0.0,2.1351,2.2628,0.0,0.0,0.0,0.0,2.729,2.8555,3.019,3.1826,3.2064,3.254,3.4211,3.4473,3.4473,3.4386,3.4269,3.4173,3.4099,3.4023,3.4312,3.5143,3.5192,3.5579,3.6427,3.7,3.7277,3.727,3.7921,3.8274,3.8192,3.8192,3.8192,3.8192,3.7431,3.738,3.8018,3.7395,3.7464,3.8225,3.8262,3.8212,3.8235,3.9788,4.0492,4.0546,4.04,4.0418,4.051,4.0454,4.0924,4.163,4.1741,4.1905,4.2132,4.2307,4.1411,4.032,4.1095,4.0837,4.0369,4.1132,4.1519,4.1497,4.0681,4.1101,4.166,4.1008,4.141,4.2044,4.2172,4.2234,4.2523,4.341,4.3617,4.344,4.2709,4.2579,4.2604,4.2692,4.2697,4.2718,4.2813,4.2249,4.1777,4.1732,4.1117,4.0694,4.0694,4.0815,4.0897,4.0907,4.0965,4.0991,4.0999,4.0278,3.985,3.9799,3.9013,3.8179,3.7322,3.7397,3.7415,3.7376,3.7297,3.7258,3.7176,3.6297,3.5849,0.0,0.0,0.0,2.1468,2.2615,2.3706,2.3644,2.5483,2.7203,2.7285,2.8623,3.0131,3.1352,3.1845,3.2608,3.4298,3.4602,3.4561,3.4427,3.4404,3.434,3.4245,3.4197,3.4303,3.4575,3.5062,3.5499,3.5769,3.6445,3.6775,3.6564,3.6808,3.7137,3.754,3.7526,3.7479,3.7413,3.7235,3.6949,3.6602,3.7012,3.7285,3.7464,3.8005,3.8207,3.8158,3.8755,3.9245,3.9679,4.0149,4.0438,4.0564,4.0456,4.0419,4.0448,4.0974,4.0982,4.0785,4.1397,4.0927,4.0075,4.0413,4.0411,4.0269,3.9991,4.0393,4.0812,4.0023,4.0057,4.0277,4.0121,4.032,4.0702,4.1387,4.159,4.1734,4.2107,4.2557,4.2686,4.1941,4.1854,4.1781,4.1301,4.1259,4.1311,4.1415,4.1243,4.1089,4.1092,4.0894,4.0568,4.0042,4.0034,3.9868,3.94,3.9349,3.9344,3.939,3.9131,3.8717,3.8153,3.787,3.7303,3.6426,3.6399,3.6406,3.6395,3.6381,3.6339,3.6281,3.5336,3.4904,1.7558,0.0,0.0,0.0,0.0,2.3025,2.3176,0.0,2.6491,2.7156,2.8412,2.9767,3.0953,3.1523,3.226,3.3633,3.3898,3.3953,3.407,3.4127,3.4199,3.4413,3.4409,3.4363,3.4293,3.479,3.5076,3.4995,3.5729,0.0,3.5836,3.6093,3.641,3.6827,3.6783,3.6721,3.6644,3.6466,3.6163,3.5752,3.6466,3.6867,3.7062,3.7878,3.8241,3.8156,3.8174,3.843,3.892,3.9373,3.9696,3.9835,3.9713,3.9654,3.9692,4.0269,4.0258,4.0018,4.0646,4.0357,3.9734,3.9774,3.9937,3.9955,3.9386,3.9735,4.0176,3.9695,3.9575,3.9599,3.9735,3.9823,4.0022,4.0694,4.0872,4.0955,4.1036,4.1604,4.1903,4.1169,4.1131,4.1031,4.0485,4.0469,4.0569,4.0617,4.0687,4.0636,4.0362,4.0378,4.0091,3.9276,3.9196,3.9004,3.8533,3.8466,3.8449,3.8495,3.8251,3.7832,3.7219,3.6958,3.6391,3.5451,3.5431,3.5275,3.4957,3.5242,3.5215,3.4882,3.4207,3.3697,0.0,0.0,0.0,0.0,0.0,0.0,2.2248,0.0,2.5186,2.6951,2.7994,2.9082,3.075,3.112,3.1417,3.2201,3.2372,3.2656,3.3355,3.3408,3.3689,3.4517,3.4588,3.4524,3.4458,3.4431,3.434,3.4221,3.4865,3.5225,3.5091,3.5846,3.6203,3.6065,3.6102,3.6042,3.5872,3.509,3.5042,3.5693,3.5765,3.6282,3.7126,3.7878,3.8156,3.8101,3.8156,3.8225,3.8192,3.807,3.8052,3.8101,3.8052,3.8608,3.9504,3.963,3.9808,4.0001,4.0133,3.9741,3.9183,3.921,3.929,3.942,3.9477,3.9551,3.9618,3.9689,3.9689,3.9735,3.9867,4.0057,4.0176,4.0099,4.012,4.0177,4.023,4.0788,4.1112,4.0442,4.036,4.0411,4.0406,4.0496,4.0582,4.0662,4.0706,4.0436,3.9655,3.9568,3.9256,3.8447,3.8369,3.8377,3.8422,3.8432,3.8422,3.8434,3.767,3.7187,3.7122,3.6281,3.5398,3.4464,3.4451,3.3999,3.3045,3.3935,3.3925,3.3083,3.2918,3.2267,1.6696,0.0,0.0,0.0,0.0,0.0,0.0,0.0,2.4747,2.699,2.7675,2.8374,2.9926,3.0248,3.0322,3.057,3.1648,3.2502,3.2619,3.2676,3.2732,3.288,3.3427,3.3763,3.3634,3.418,3.4495,0.0,3.4521,3.4604,3.455,3.5184,3.5514,3.5376,3.6002,3.5964,3.5253,3.5128,3.5128,3.5217,3.5791,3.6504,3.7259,3.8004,3.8318,3.8318,3.8336,3.8336,3.8336,3.8189,3.8189,3.8256,3.8303,3.8547,3.8925,3.9032,3.9105,3.9243,3.9369,3.9287,3.9156,3.9301,3.9399,3.9476,3.9483,3.9577,3.9674,3.9689,3.9758,3.9889,4.0077,4.0157,4.0063,3.9451,3.9353,3.925,3.8738,3.8823,3.93,4.0319,4.0539,4.0545,4.0615,4.0159,3.9843,3.9893,3.9372,3.8928,3.8758,3.8741,3.8419,3.7624,3.752,3.7299,3.6749,3.6687,3.6698,3.6692,3.5854,3.5325,3.524,3.4411,3.3782,3.3422,3.3383,3.2863,3.1872,3.2883,3.3214,3.2856,3.1986,3.0894,0.0,0.0,0.0,0.0,0.0,0.0,2.2265,2.2923,0.0,0.0,2.7422,2.7975,2.9602,2.9959,2.9972,2.9956,3.0823,3.1602,3.1842,3.1916,3.2049,3.2297,3.2769,3.3034,3.2935,3.3689,3.4139,3.3992,3.4311,3.4495,3.4427,3.4806,3.4971,3.4853,3.5317,3.5284,3.4718,3.4744,3.47,3.4621,3.5368,3.5983,3.6479,3.7485,3.7985,3.8083,3.83,3.8415,3.8446,3.8322,3.8322,3.8368,3.8401,3.8528,3.875,3.8851,3.8921,3.9007,3.9175,3.9229,3.9301,3.9399,3.9277,3.9151,3.9489,3.9453,3.9286,3.9315,3.9178,3.9052,3.9201,3.9291,3.9191,3.8706,3.8654,3.8599,3.8141,3.8112,3.8459,3.9392,3.9605,3.9656,3.9693,3.9331,3.9044,3.9083,3.8684,3.826,3.7936,3.7897,3.7578,3.6754,3.6321,3.5929,3.5468,3.5077,3.4869,3.4835,3.4296,3.3939,3.3877,3.3355,3.2831,3.2351,3.227,3.168,3.0579,3.1699,3.1943,3.1328,3.0526,2.9467,1.5406,1.6034,0.0,0.0,1.8395,0.0,2.1765,2.2182,2.3031,0.0,2.6892,2.7384,2.9269,2.9665,2.9703,2.9718,2.9848,3.0224,3.1048,3.1181,3.1428,3.2134,3.2305,3.2346,3.2259,3.2996,3.345,3.3427,3.4218,3.4687,3.4645,3.4626,3.4583,3.452,3.4473,3.4409,3.434,3.4221,3.4185,3.4278,3.4866,3.5219,3.542,3.6633,3.7367,3.7632,3.812,3.8405,3.8541,3.8478,3.8478,3.851,3.8446,3.859,3.8851,3.895,3.9045,3.9156,3.9346,3.9451,3.9502,3.9408,3.8987,3.8641,3.9241,3.9028,3.8588,3.867,3.8284,3.7824,3.789,3.8031,3.808,3.7924,3.7983,3.8025,3.7873,3.7923,3.7994,3.7866,3.8098,3.8306,3.8306,3.8285,3.8257,3.8263,3.8148,3.7792,3.7008,3.683,3.6474,3.5683,3.4901,3.4445,3.4435,3.3735,3.3243,3.3174,3.3025,3.29,3.2838,3.2671,3.2154,3.1221,3.108,3.0374,2.915,3.0356,3.03,2.9052,2.8713,2.7955,1.5406,1.6033,1.6893,1.7732,0.0,0.0,2.1567,2.1435,2.1812,0.0,2.462,2.4596,2.7376,2.7456,2.7313,2.789,2.8533,2.9289,3.0205,3.0335,3.0377,3.0481,3.1105,3.149,3.137,3.2144,3.2901,3.3507,3.4358,3.4831,3.4772,3.4772,3.4713,3.4672,3.4689,3.4687,3.4623,3.4602,3.4836,3.5399,3.5472,3.582,3.643,3.6638,3.7082,3.7681,3.7771,3.8214,3.8803,3.8743,3.8634,3.851,3.8609,3.8792,3.896,3.9045,3.921,3.935,3.9452,3.9521,3.9481,3.8889,3.8637,3.8477,3.7991,3.779,3.7795,3.801,3.797,3.7921,3.8035,3.8124,3.8005,3.7362,3.721,3.7036,3.6319,3.6237,3.6309,3.6317,3.7432,3.8382,3.8374,3.7808,3.7364,3.742,3.6254,3.5296,3.5135,3.4491,3.3997,3.3832,3.3609,3.3478,3.3464,3.3264,3.3103,3.3045,3.2317,3.185,3.1808,3.0997,3.0411,3.0048,2.9483,2.8627,2.7459,2.8787,2.8809,2.7614,2.7263,2.6259,1.5409,1.5727,1.6375,1.7671,0.0,0.0,0.0,2.1366,2.1811,2.4493,2.4534,2.4726,2.6934,2.7158,2.7108,2.7447,2.7831,2.8145,2.8251,2.9317,3.0098,3.0098,3.049,3.0723,3.0665,3.1409,3.2229,3.3048,3.352,3.3937,3.4337,3.4355,3.4526,3.4944,3.4946,3.4927,3.4888,3.4791,3.4919,3.5251,3.518,3.5333,3.5651,3.5988,3.6366,3.6723,3.706,3.7414,3.7794,3.7738,3.7663,3.7679,3.8479,3.8892,3.9073,3.9192,3.9107,3.892,3.9016,3.8803,3.8455,3.8123,3.775,3.747,3.7528,3.7368,3.7187,3.7352,3.7134,3.6875,3.6947,3.6997,3.695,3.6538,3.6456,3.6339,3.5891,3.5488,3.5203,3.5256,3.5602,3.6031,3.6448,3.5807,3.5279,3.5306,3.4569,3.3981,3.3955,3.3579,3.3283,3.3248,3.2796,3.2492,3.2454,3.1965,3.1626,3.1564,3.1046,3.071,3.0608,2.9576,2.8615,2.7832,2.7731,2.7136,2.595,2.6375,2.6402,2.5985,2.5512,2.4401,0.0,0.0,0.0,0.0,0.0,1.8335,0.0,0.0,0.0,2.3822,2.4303,0.0,0.0,0.0,0.0,0.0,0.0,0.0,0.0,2.7935,0.0,2.9478,2.9907,3.0136,2.997,3.0706,3.152,3.2327,3.2397,3.2772,3.363,3.37,3.4022,3.471,3.4683,3.4651,3.4632,3.4471,3.4358,3.4358,3.4469,3.4463,3.4419,3.5158,3.5577,3.5736,3.6279,3.6596,3.6749,3.6679,3.6723,3.6879,3.8016,3.8572,3.8745,3.8908,3.8643,3.8237,3.8348,3.7978,3.7432,3.7338,3.6765,3.6293,3.7064,3.6958,3.6621,3.6665,3.627,3.5815,3.5815,3.5852,3.5896,3.5896,3.5776,3.5647,3.5642,3.4959,3.4345,3.4345,3.3683,3.3398,3.4224,3.3825,3.3398,3.3374,3.3244,3.3115,3.3038,3.2868,3.2734,3.2663,3.1961,3.1457,3.1403,3.0478,2.9874,2.9823,2.9504,2.9262,2.9119,2.8104,2.6944,2.5707,2.6012,2.5586,2.4355,2.3902,2.3885,2.4338,2.3696,2.2555,0.0,0.0,0.0,0.0,1.6846,0.0,0.0,0.0,2.0017,2.163,0.0,0.0,0.0,0.0,0.0,0.0,0.0,0.0,2.4286,2.5735,2.6836,2.6917,2.8855,2.9912,2.9212,2.9928,3.0757,3.1565,3.1684,3.2075,3.2872,3.2976,3.3015,3.3077,3.3068,3.3034,3.2966,3.2893,3.2828,3.2759,3.3486,3.3772,3.3733,3.4482,3.519,3.5799,3.5871,3.6269,3.6883,3.6932,3.6956,3.6951,3.6935,3.7112,3.7333,3.7347,3.7448,3.76,3.7622,3.7642,3.7557,3.6826,3.6138,3.5623,3.5794,3.5862,3.5929,3.5921,3.5904,3.5885,3.5888,3.5886,3.5898,3.5898,3.5312,3.4745,3.4744,3.4057,3.3452,3.3455,3.2751,3.2459,3.3379,3.3455,3.3375,3.3327,3.2653,3.2137,3.2069,3.1324,3.079,3.073,3.0521,3.0362,3.0285,2.9402,2.884,2.878,2.7806,2.7177,2.7044,2.6286,2.5569,2.4941,2.4462,2.3632,2.241,2.1906,2.2027,2.2733,2.1961,2.087,0.0,0.0,0.0,0.0,0.0,0.0,1.8906,0.0,1.9743,0.0,0.0,0.0,0.0,0.0,0.0,0.0,2.2976,0.0,0.0,0.0,2.5324,0.0,0.0,0.0,2.8332,2.8624,2.918,2.9998,3.0113,3.0733,3.209,3.2186,3.241,3.2904,3.2917,3.2891,3.2858,3.2761,3.2703,3.2688,3.2939,3.3291,3.3712,3.3543,3.4131,3.5202,3.4769,3.4971,3.5593,3.5127,3.4924,3.4908,3.437,3.5346,3.7107,3.7241,3.7068,3.6805,3.6878,3.669,3.6306,3.5522,3.5129,3.4836,3.4395,3.4299,3.4464,3.501,3.4818,3.4669,3.5642,3.5525,3.5252,3.5724,3.5188,3.4525,3.4491,3.3429,3.2478,3.2435,3.1728,3.109,3.0989,3.1451,3.1799,3.1734,3.1387,3.1106,3.1043,3.0614,3.0294,3.0241,2.9646,2.9209,2.9063,2.8158,2.7548,2.74,2.6652,2.5842,2.5052,2.4971,2.4213,2.2668,2.2654,2.2015,2.0702,2.0186,1.9937,2.0008,2.0025,1.9374,1.573,0.0,0.0,0.0,0.0,0.0,0.0,0.0,0.0,0.0,0.0,0.0,0.0,0.0,0.0,0.0,0.0,2.1798,0.0,2.237,0.0,0.0,0.0,0.0,0.0,2.7338,2.7692,2.833,0.0,2.906,3.0575,3.0879,3.1298,3.1934,3.2204,3.2339,3.2316,3.2225,3.2167,3.2173,3.2288,3.2634,3.3179,3.28,3.3211,3.4187,3.3654,3.3676,3.4054,3.3431,3.3204,3.3204,3.2617,3.3828,3.5927,3.6026,3.5778,3.5362,3.5461,3.5224,3.4789,3.4274,3.4126,3.4078,3.3492,3.3331,3.3473,3.4147,3.3862,3.365,3.4864,3.4694,3.4341,3.4897,3.4348,3.3652,3.3568,3.2368,3.1302,3.1268,3.0571,2.9775,2.9137,2.9737,3.0186,2.989,2.9795,2.9727,2.9629,2.9692,2.9608,2.93,2.8747,2.8218,2.783,2.6858,2.6027,2.551,2.504,2.4296,2.3237,2.3418,2.2696,2.0926,2.1038,2.0538,1.9405,1.8841,1.8327,1.7866,1.8369,1.808,0.0,0.0,0.0,1.6889,0.0,0.0,0.0,0.0,1.83,0.0,0.0,0.0,0.0,0.0,0.0,0.0,0.0,0.0,0.0,0.0,0.0,0.0,0.0,0.0,0.0,2.6131,2.6602,0.0,2.6718,0.0,2.796,2.8811,2.9294,2.9322,3.0192,3.0646,3.0588,3.0588,3.0577,3.0576,3.1287,3.1661,3.168,3.2383,3.2722,3.2768,3.2749,3.2683,3.2566,3.2616,3.2629,3.2622,3.2603,3.2726,3.2919,3.2794,3.2817,3.2922,3.2987,3.3139,3.3281,3.332,3.3329,3.3362,3.3379,3.3399,3.3395,3.3437,3.3372,3.3314,3.3375,3.33,3.3209,3.3103,3.2323,3.1565,3.1421,3.0585,2.987,2.987,2.9201,2.8646,2.862,2.8967,2.8956,2.8107,2.7941,2.7835,2.7701,2.8198,2.8215,2.7295,2.7567,2.7477,2.6636,2.5517,2.43,2.3003,2.266,2.2241,2.1705,2.1293,2.0861,2.0348,1.9645,1.9058,1.865,1.8014,1.7503,1.7034,1.7186,1.7047,0.0,0.0,1.7781,1.7555,0.0,0.0,0.0,0.0,0.0,0.0,0.0,0.0,0.0,0.0,0.0,0.0,0.0,0.0,0.0,0.0,0.0,0.0,0.0,0.0,0.0,0.0,0.0,0.0,2.6313,0.0,0.0,2.8724,2.9226,2.9263,3.0122,3.0604,3.0632,3.0595,3.0567,3.0558,3.0771,3.1174,3.173,3.1357,3.177,3.2807,3.2217,3.2253,3.267,3.2091,3.1895,3.1889,3.1348,3.1205,3.1407,3.2423,3.2872,3.2952,3.3103,3.3206,3.3177,3.2664,3.2517,3.24,3.1843,3.1679,3.1793,3.2319,3.1991,3.1695,3.275,3.2485,3.2039,3.2388,3.1737,3.0983,3.0808,3.0021,2.9326,2.9286,2.8614,2.7867,2.7233,2.6889,2.687,2.7423,2.7447,2.7357,2.722,2.7264,2.7159,2.6746,2.6206,2.5695,2.5221,2.3996,2.2989,2.2303,2.2051,2.1688,2.1087,2.0731,2.023,1.9579,1.902,1.8447,1.7854,1.7325,1.674,1.6225,1.5832,1.5776,1.8201,1.839,0.0,1.8352,1.831,0.0,1.8351,0.0,1.911,0.0,0.0,0.0,0.0,0.0,0.0,0.0,0.0,0.0,0.0,1.8665,0.0,0.0,0.0,0.0,0.0,0.0,2.378,2.4002,2.4778,0.0,0.0,0.0,2.8173,2.8853,2.9721,3.0347,3.0695,3.0661,3.0642,3.0642,3.0591,3.0856,3.1342,3.0752,3.1052,3.2044,3.1482,3.1538,3.1981,3.1411,3.121,3.1182,3.0665,3.0511,3.0703,3.1675,3.21,3.2203,3.2329,3.2382,3.2333,3.1809,3.1631,3.1522,3.0934,3.0732,3.0799,3.132,3.0945,3.0629,3.1569,3.1283,3.0785,3.109,3.0583,2.9975,2.9715,2.8944,2.8356,2.8426,2.7394,2.6413,2.6036,2.5161,2.4867,2.5925,2.6034,2.5965,2.5838,2.5902,2.5789,2.5368,2.4859,2.4275,2.3657,2.274,2.2073,2.1764,2.1462,2.1055,2.0481,2.0124,1.9579,1.8907,1.8422,1.7828,1.7214,1.6625,1.602,1.5478,1.4846,1.4652]},{"header":{"parameterUnit":"m.s-1","parameterCategory":1,"la1":30.6,"la2":29.2853,"lo1":-89.7004,"lo2":-87.6739,"dy":0.0162,"dx":0.0183,"nx":112,"ny":82,"refTime":"2024-08-10T00:00:00:Z","depth":0,"parameterNumber":3,"parameterNumberName":"V-component_of_WINDS"},"data":[0.0,0.0,0.0,0.0,0.0,0.0,0.0,0.0,0.0,0.0,0.0,0.0,0.0,0.0,0.0,0.0,0.0,0.0,0.0,0.0,0.0,0.0,0.0,0.0,0.0,0.0,0.0,0.0,0.0,0.0,0.0,0.0,0.0,0.0,0.0,0.0,0.0,0.0,0.0,0.0,0.0,0.0,0.0,0.0,0.0,0.0,0.0,0.0,0.0,0.0,0.0,0.0,0.0,0.0,0.0,0.0,0.0,0.0,0.0,0.0,0.0,0.0,0.0,0.0,0.0,0.0,0.0,0.0,0.0,0.0,0.0,0.0,0.0,0.0,0.0,0.0,0.0,0.0,0.0,0.0,0.0,0.0,0.0,0.0,0.0,0.0,0.0,0.0,0.0,0.0,0.8105,0.7958,0.8499,0.8787,0.868,0.8722,0.8549,0.8012,0.0,0.0,0.0,0.0,0.0,0.0,0.0,0.0,0.0,0.0,0.0,0.0,0.0,0.0,0.0,0.0,0.0,0.0,0.0,0.0,0.0,0.0,0.0,0.0,0.0,0.0,0.0,0.0,0.0,0.0,0.0,0.0,0.0,0.0,0.0,0.0,0.0,0.0,0.0,0.0,0.0,0.0,0.0,0.0,0.0,0.0,0.0,0.0,0.0,0.0,0.0,0.0,0.0,0.0,0.0,0.0,0.0,0.0,0.0,0.0,0.0,0.0,0.0,0.0,0.0,0.0,0.0,0.0,0.0,0.0,0.0,0.0,0.0,0.0,0.0,0.0,0.0,0.0,0.0,0.0,0.0,0.0,0.0,0.0,0.0,0.0,0.0,0.0,0.0,0.0,0.0,0.0,0.0,0.0,0.0,0.0,0.0,0.0,0.0,0.0,0.0,0.0,0.0,0.0,0.8815,0.9276,0.9374,0.9178,0.8487,0.8653,0.8549,0.7947,0.0,0.0,0.0,0.0,0.0,0.0,0.0,0.0,0.0,0.0,0.0,0.0,0.0,0.0,0.0,0.0,0.0,0.0,0.0,0.0,0.0,0.0,0.0,0.0,0.0,0.0,0.0,0.0,0.0,0.0,0.0,0.0,0.0,0.0,0.0,0.0,0.0,0.0,0.0,0.0,0.0,0.0,0.0,0.0,0.0,0.0,0.0,0.0,0.0,0.0,0.0,0.0,0.0,0.0,0.0,0.0,0.0,0.0,0.0,0.0,0.0,0.0,0.0,0.0,0.0,0.0,0.0,0.0,0.0,0.0,0.0,0.0,0.0,0.0,0.0,0.0,0.0,0.0,0.0,0.0,0.0,0.0,0.0,0.0,0.0,0.0,0.0,0.0,0.0,0.0,0.0,0.0,0.0,0.0,0.0,0.0,0.0,0.0,0.0,0.0,0.0,0.0,0.0,0.8743,0.9254,1.0183,1.0082,0.9782,0.9437,0.9399,0.9217,0.8616,0.8453,0.0,0.0,0.0,0.0,0.0,0.0,0.0,0.0,0.0,0.0,0.0,0.0,0.0,0.0,0.0,0.0,0.0,0.0,0.0,0.0,0.0,0.0,0.0,0.0,0.0,0.0,0.0,0.0,0.0,0.0,0.0,0.0,0.0,0.0,0.0,0.0,0.0,0.0,0.0,0.0,0.0,0.0,0.0,0.0,0.0,0.0,0.0,0.0,0.0,0.0,0.0,0.0,0.0,0.0,0.0,0.0,0.0,0.0,0.0,0.0,0.0,0.0,0.0,0.0,0.0,0.0,0.0,0.0,0.0,0.0,0.0,0.0,0.0,0.0,0.0,0.0,0.0,0.0,0.0,0.0,0.0,0.0,0.0,0.0,0.0,0.0,0.0,0.0,0.0,0.0,0.0,0.0,0.0,0.0,0.0,0.0,0.0,0.0,0.0,0.0,0.0,0.0,0.9314,0.9825,1.0755,1.0528,1.0363,1.0262,1.0114,0.9772,0.9254,0.9124,0.0,0.0,0.0,0.0,0.0,0.0,0.0,0.0,0.0,0.0,0.0,0.0,0.0,0.0,0.0,0.0,0.0,0.0,0.0,0.0,0.0,0.0,0.0,0.0,0.0,0.0,0.0,0.0,0.0,0.0,0.0,0.0,0.0,0.0,0.0,0.0,0.0,0.0,0.0,0.0,0.0,0.0,0.0,0.0,0.0,0.0,0.0,0.0,0.0,0.0,0.0,0.0,0.0,0.0,0.0,0.0,0.0,0.0,0.0,0.0,0.0,0.0,0.0,0.0,0.0,0.0,0.0,0.0,0.0,0.0,0.0,0.0,0.0,0.0,0.0,0.0,0.0,0.0,0.0,0.0,0.0,0.0,0.0,0.0,0.0,0.0,0.0,0.0,0.0,0.0,0.0,0.0,0.0,0.0,0.0,0.0,0.0,0.0,0.0,0.0,0.0,0.0,1.0272,1.0773,1.0904,1.0873,1.0704,1.0299,1.0189,0.9906,0.9511,0.9458,0.0,0.0,0.0,0.0,0.0,0.0,0.0,0.0,0.0,0.0,0.0,0.0,0.0,0.0,0.0,0.0,0.0,0.0,0.0,0.0,0.0,0.0,0.0,0.0,0.0,0.0,0.0,0.0,0.0,0.0,0.0,0.0,0.0,0.0,0.0,0.0,0.0,0.0,0.0,0.0,0.0,0.0,0.0,0.0,0.0,0.0,0.0,0.0,0.0,0.0,0.0,0.0,0.0,0.0,0.0,0.0,0.0,0.0,0.0,0.0,0.0,0.0,0.0,0.0,0.0,0.0,0.0,0.0,0.0,0.0,0.0,0.0,0.0,0.0,0.0,0.0,0.0,0.0,0.0,0.0,0.0,0.0,0.0,0.0,0.0,0.0,0.0,0.0,0.0,0.0,0.0,0.0,0.0,0.0,0.0,0.0,0.0,0.0,0.0,0.0,0.0,0.0,1.0659,1.1264,0.0,1.1563,1.1182,1.1083,1.0706,1.0337,0.9855,0.0,0.0,0.0,0.0,0.0,0.0,0.0,0.0,0.0,0.0,0.0,0.0,0.0,0.0,0.0,0.0,0.0,0.0,0.0,0.0,0.0,0.0,0.0,0.0,0.0,0.0,0.0,0.0,0.0,0.0,0.0,0.0,0.0,0.0,0.0,0.0,0.0,0.0,0.0,0.0,0.0,0.0,0.0,0.0,0.0,0.0,0.0,0.0,0.0,0.0,0.0,0.0,0.0,0.0,0.0,0.0,0.0,0.0,0.0,0.0,0.0,0.0,0.0,0.0,0.0,0.0,0.0,0.0,0.0,0.0,0.0,0.0,0.0,0.0,0.0,0.0,0.0,0.0,0.0,0.0,0.0,0.0,0.0,0.0,0.0,0.0,0.0,0.0,0.0,0.0,0.0,0.0,0.0,0.0,0.0,0.0,0.0,0.0,0.0,0.0,0.0,0.0,1.0287,1.0997,1.169,0.0,1.224,1.1903,1.1823,1.1497,1.092,1.0307,0.0,0.0,0.0,0.0,0.0,0.0,0.0,0.0,0.0,0.0,0.0,0.0,0.0,0.0,0.0,0.0,0.0,0.0,0.0,0.0,0.0,0.0,0.0,0.0,0.0,0.0,0.0,0.0,0.0,0.0,0.0,0.0,0.0,0.0,0.0,0.0,0.0,0.0,0.0,0.0,0.0,0.0,0.0,0.0,0.0,0.0,0.0,0.0,0.0,0.0,0.0,0.0,0.0,0.0,0.0,0.0,0.0,0.0,0.0,0.0,0.0,0.0,0.0,0.0,0.0,0.0,0.0,0.0,0.0,0.0,0.0,0.0,0.0,0.0,0.0,0.0,0.0,0.0,0.0,0.0,0.0,0.0,0.0,0.0,0.0,0.0,0.0,0.0,0.0,0.0,0.0,0.0,0.0,0.0,0.0,0.0,0.0,0.0,0.0,0.0,0.0,0.0,1.0414,1.136,1.2196,1.263,1.2902,1.287,1.2597,1.2311,1.1772,0.0,0.0,0.0,0.0,0.0,0.0,0.0,0.0,0.0,0.0,0.0,0.0,0.0,0.0,0.0,0.0,0.0,0.0,0.0,0.0,0.0,0.0,0.0,0.0,0.0,0.0,0.0,0.0,0.0,0.0,0.0,0.0,0.0,0.0,0.0,0.0,0.0,0.0,0.0,0.0,0.0,0.0,0.0,0.0,0.0,0.0,0.0,0.0,0.0,0.0,0.0,0.0,0.0,0.0,0.0,0.0,0.0,0.0,0.0,0.0,0.0,0.0,0.0,0.0,0.0,0.0,0.0,0.0,0.0,0.0,0.0,0.0,0.0,0.0,0.0,0.0,0.0,0.0,0.0,0.0,0.0,0.0,0.0,0.0,0.0,0.0,0.0,0.0,0.0,0.0,0.0,0.0,0.0,0.0,0.0,0.0,0.0,0.0,0.0,0.0,0.0,0.0,0.0,1.1101,1.1933,1.2668,1.331,1.3182,1.2952,1.2836,1.2572,1.2157,1.1372,0.0,0.0,0.0,0.0,0.0,0.0,0.0,0.0,0.0,0.0,0.0,0.0,0.0,0.0,0.0,0.0,0.0,0.0,0.0,0.0,0.0,0.0,0.0,0.0,0.0,0.0,0.0,0.0,0.0,0.0,0.0,0.0,0.0,0.0,0.0,0.0,0.0,0.0,0.0,0.0,0.0,0.0,0.0,0.0,0.0,0.0,0.0,0.0,0.0,0.0,0.0,0.0,0.0,0.0,0.0,0.0,0.0,0.0,0.0,0.0,0.0,0.0,0.0,0.0,0.0,0.0,0.0,0.0,0.0,0.0,0.0,0.0,0.0,0.0,0.0,0.0,0.0,0.0,0.0,0.0,0.0,0.0,0.0,0.0,0.0,0.0,0.0,0.0,0.0,0.0,0.0,0.0,0.0,0.0,0.0,0.0,0.0,0.0,0.0,0.0,0.0,0.0,1.1365,1.2138,1.2862,1.3594,1.3503,1.3326,1.3154,1.2872,1.2423,1.1767,0.0,0.0,0.0,0.0,0.0,0.0,0.0,0.0,0.0,0.0,0.0,0.0,0.0,0.0,0.0,0.0,0.0,0.0,0.0,0.0,0.0,0.0,0.0,0.0,0.0,0.0,0.0,0.0,0.0,0.0,0.0,0.0,0.0,0.0,0.0,0.0,0.0,0.0,0.0,0.0,0.0,0.0,0.0,0.0,0.0,0.0,0.0,0.0,0.0,0.0,0.0,0.0,0.0,0.0,0.0,0.0,0.0,0.0,0.0,0.0,0.0,0.0,0.0,0.0,0.0,0.0,0.0,0.0,0.0,0.0,0.0,0.0,0.0,0.0,0.0,0.0,0.0,0.0,0.0,0.0,0.0,0.0,0.0,0.0,0.0,0.0,0.0,0.0,0.0,0.0,0.0,0.0,0.0,0.0,0.0,0.0,0.0,0.0,0.0,0.0,0.0,0.0,1.1495,1.2253,1.2975,1.3678,1.3997,1.3924,1.355,1.312,1.2621,1.2116,0.0,0.0,0.0,0.0,0.0,0.0,0.0,0.0,0.0,0.0,0.0,0.0,0.0,0.0,0.0,0.0,0.0,0.0,0.0,0.0,0.0,0.0,0.0,0.0,0.0,0.0,0.0,0.0,0.0,0.0,0.0,0.0,0.0,0.0,0.0,0.0,0.0,0.0,0.0,0.0,0.0,0.0,0.0,0.0,0.0,0.0,0.0,0.0,0.0,0.0,0.0,0.0,0.0,0.0,0.0,0.0,0.0,0.0,0.0,0.0,0.9479,0.0,0.0,0.0,0.0,0.0,0.0,0.0,0.0,0.0,0.0,0.0,0.0,0.0,0.0,0.0,0.0,0.0,0.0,0.0,0.0,0.0,0.0,0.0,0.0,0.0,0.0,0.0,0.0,0.0,0.0,0.0,0.0,0.0,0.0,0.0,0.0,0.0,0.0,0.0,0.0,0.0,1.2388,1.3022,1.3599,1.4189,1.4166,1.4007,1.3787,1.3467,1.3103,1.2563,1.2149,0.0,0.0,0.0,0.0,0.0,0.0,0.0,0.0,0.0,0.0,0.0,0.0,0.0,0.0,0.0,0.0,0.0,0.0,0.0,0.0,0.0,0.0,0.0,0.0,0.0,0.0,0.0,0.0,0.0,0.0,0.0,0.0,0.0,0.0,0.0,0.0,0.0,0.0,0.0,0.0,0.0,0.0,0.0,0.0,0.0,0.0,0.0,0.0,0.0,0.0,0.0,0.0,0.0,0.0,0.0,0.0,0.0,0.0,0.0,0.0,0.981,0.0,0.0,0.0,0.0,0.0,0.0,0.0,0.0,0.0,0.0,0.0,0.0,0.0,0.0,0.0,0.0,0.0,0.0,0.0,0.0,0.0,0.0,0.0,0.0,0.0,0.0,0.0,0.0,0.0,0.0,0.0,0.0,0.0,0.0,0.0,0.0,0.0,0.0,0.0,0.0,1.2804,1.3505,1.4077,1.4531,1.4489,1.4248,1.3952,1.3625,1.323,1.2811,1.2402,0.0,0.0,0.0,0.0,0.0,0.0,0.0,0.0,0.0,0.0,0.0,0.0,0.0,0.0,0.0,0.0,0.0,0.0,0.0,0.0,0.0,0.0,0.0,0.0,0.0,0.0,0.0,0.0,0.0,0.0,0.0,0.0,0.0,0.0,0.0,0.0,0.0,0.0,0.0,0.0,0.0,0.0,0.0,0.0,0.0,0.0,0.0,0.0,0.0,0.0,0.0,0.0,0.0,1.2886,1.3132,1.3521,1.3134,1.295,1.2999,1.1506,1.0772,1.0557,1.0111,0.0,0.0,0.0,0.0,0.0,0.0,0.0,0.0,0.0,0.0,0.0,0.0,0.0,0.0,0.0,0.0,0.0,0.0,0.0,0.0,0.0,0.0,0.0,0.0,1.0401,1.0536,0.0,0.0,0.0,0.0,0.0,0.0,0.0,0.0,0.0,0.0,0.0,0.0,1.3286,1.3933,1.4475,1.479,1.4769,1.4571,1.4188,1.3758,1.3366,1.2923,1.2652,1.2358,0.0,0.0,0.0,0.0,0.0,0.0,0.0,0.0,0.0,0.0,0.0,0.0,0.0,0.0,0.0,0.0,0.0,0.0,0.0,0.0,0.0,0.0,0.0,0.0,0.0,0.0,0.0,0.0,0.0,0.0,0.0,0.0,0.8717,0.8419,0.0,0.0,0.0,0.0,0.0,0.0,0.0,0.0,0.0,0.0,0.0,0.0,0.0,1.3105,1.3724,1.3265,1.3569,1.4666,1.424,1.4385,1.4907,1.478,1.4293,1.3672,1.3691,0.0,1.2078,1.1397,0.0,0.0,0.0,0.0,0.0,0.0,0.0,0.0,0.0,0.0,0.0,0.0,0.0,0.0,0.0,0.0,0.0,0.0,0.0,0.0,0.0,0.0,1.0707,1.0741,1.1326,1.1826,0.0,1.1337,1.1038,1.1143,1.0982,0.0,0.0,0.0,0.0,0.0,0.0,0.0,1.4323,1.455,1.4881,1.5383,1.4986,1.4571,1.4352,1.4197,1.3859,1.3274,1.3204,1.2979,1.261,1.2629,0.0,0.0,0.0,0.0,0.0,0.0,0.0,0.0,0.0,0.0,0.0,0.0,0.0,0.0,0.0,0.0,0.0,0.0,0.0,0.0,0.0,0.0,0.0,0.0,0.0,0.0,0.0,0.0,0.0,0.9238,0.931,0.9403,0.9496,0.9533,0.0,0.0,0.0,0.0,0.0,0.0,0.0,0.0,0.0,1.4398,1.4649,1.5159,1.583,1.5497,1.5586,1.604,1.5785,1.5789,1.6,1.5808,1.5478,1.5139,1.4744,1.4385,1.3952,1.2343,1.1524,1.1225,0.0,0.0,0.0,0.0,1.0288,1.0234,1.0219,1.012,0.0,1.0007,0.0,0.0,0.0,0.0,0.0,0.0,0.0,0.0,0.0,0.0,1.1736,1.1814,1.2126,1.2437,1.2693,1.2767,1.2625,0.0,1.219,1.2317,1.2116,0.0,0.0,0.0,0.0,1.4498,1.5168,1.5411,1.5624,1.5862,1.569,1.539,1.5083,1.4721,1.4278,1.3747,1.3465,1.3178,1.2875,1.2695,1.2364,0.0,0.0,0.0,0.0,0.0,0.0,0.0,0.0,0.0,0.0,0.0,0.0,0.0,0.0,0.0,0.0,0.0,0.0,0.0,0.0,0.0,0.0,0.0,0.0,0.0,0.0,0.0,0.0,0.9787,1.0078,1.0371,1.0507,1.0605,0.0,0.0,0.0,0.0,0.0,0.0,1.331,1.3947,1.4837,1.6084,1.6444,1.6839,1.7369,1.7276,1.7146,1.7129,1.7012,1.6953,1.6996,1.6708,1.6522,1.6343,1.5724,1.5529,1.5401,1.3177,1.2121,1.1913,1.1192,1.1065,1.1229,1.1347,1.1303,1.1107,1.1264,1.1076,1.0887,1.1115,0.0,1.1115,1.1311,0.0,0.0,0.0,0.0,1.2338,1.2212,1.246,1.2731,1.2816,1.3042,1.3347,1.368,1.415,1.423,0.0,1.3493,1.3749,1.3322,0.0,0.0,0.0,0.0,1.5568,1.5922,1.6209,1.6339,1.641,1.6247,1.5957,1.5694,1.5273,1.4872,1.4229,1.3902,1.351,1.3075,1.2918,1.2496,1.1858,0.0,0.0,0.0,0.0,0.0,0.0,0.0,0.0,0.0,0.0,0.0,0.0,0.0,0.0,0.0,0.0,0.0,0.0,0.0,0.0,0.0,0.0,0.0,0.0,0.0,0.0,0.0,0.0,0.0,1.0701,1.1387,0.0,0.0,0.0,0.0,1.2266,1.3348,1.4193,1.4571,1.5774,1.6629,1.6908,1.7386,1.7653,1.7696,1.7735,1.7864,1.8029,1.7705,1.7671,1.7949,1.7716,1.7379,1.6892,1.6977,1.6598,1.5797,1.3901,1.3288,1.3462,1.2505,1.221,1.2325,1.2496,1.229,1.2026,1.2506,1.2161,1.1519,1.2059,1.211,1.1983,1.2111,1.2056,0.0,0.0,1.2208,1.2329,1.2438,1.3139,1.379,1.3609,1.4499,1.5276,1.4915,1.5256,1.5341,0.0,1.4525,1.459,1.4459,0.0,1.5313,1.4982,1.6094,1.695,1.6838,1.6892,1.6939,1.7011,1.6469,1.6039,1.5862,1.588,1.5498,1.4609,1.4728,1.4385,1.3324,1.3465,1.312,1.218,1.1605,0.0,0.0,0.0,0.0,0.0,0.0,0.0,0.0,0.0,0.0,0.0,0.0,0.0,0.0,0.0,0.0,0.0,0.0,0.0,0.0,0.0,0.0,0.0,0.0,0.0,0.0,0.0,0.0,1.1564,1.2169,0.0,1.2634,1.3355,1.3993,1.4283,1.5165,1.5862,1.6177,1.7221,1.8002,1.8384,1.8973,1.9421,1.9865,1.9775,1.9687,1.9648,1.942,1.9293,1.9233,1.8824,1.8547,1.8379,1.774,1.7396,1.7105,1.5875,1.5004,1.4427,1.3608,1.3381,1.3554,1.3464,1.3239,1.3033,1.3173,1.2821,1.2341,1.2413,1.2622,1.2831,1.2998,1.3267,1.3537,1.3545,1.4055,1.4538,1.4354,1.4558,1.4821,1.4804,1.4981,1.5106,1.5115,1.5647,1.599,1.5704,1.5662,1.5766,1.5881,1.6219,1.6461,1.6671,1.7133,1.7515,1.7564,1.766,1.7652,1.7327,1.7025,1.6778,1.6417,1.6188,1.5873,1.549,1.5114,1.4485,1.3557,1.3324,1.2742,1.1613,1.1638,1.1378,0.0,0.0,0.0,0.0,0.0,0.0,0.0,0.0,0.0,0.0,0.0,0.0,0.0,0.0,0.0,0.0,0.0,0.0,0.0,0.0,0.0,0.0,0.0,0.0,0.0,0.0,1.1903,1.2515,1.3134,1.371,1.4071,1.4758,1.54,1.5875,1.6643,1.7286,1.7713,1.8623,1.9326,1.9727,2.0314,2.0841,2.123,2.1123,2.0949,2.0797,2.0502,2.0359,2.0206,1.9778,1.9656,1.9626,1.8879,1.8617,1.8721,1.7942,1.7174,1.6408,1.5191,1.4728,1.4736,1.462,1.432,1.3953,1.3768,1.3611,1.3497,1.3369,1.3638,1.4092,1.4261,1.4619,1.4935,1.5069,1.5489,1.5792,1.5729,1.5764,1.5755,1.5738,1.5815,1.5864,1.5941,1.6532,1.7036,1.7176,1.7023,1.6807,1.6854,1.7198,1.7552,1.7831,1.8091,1.8221,1.8378,1.8459,1.8272,1.7715,1.7485,1.7127,1.6762,1.6404,1.6103,1.6028,1.5362,1.4585,1.3588,1.3243,1.248,1.1245,1.1505,1.1197,1.0282,0.0,0.0,0.0,0.0,0.0,0.0,0.0,0.0,0.0,0.0,0.0,0.0,0.0,0.0,0.0,0.0,0.0,0.0,0.0,0.0,0.0,0.0,0.0,1.0928,1.2061,1.2986,1.3511,1.43,1.5135,1.5866,1.6277,1.6633,1.7047,1.7781,1.8492,1.9111,1.9966,2.0592,2.0824,2.1456,2.1731,2.1642,2.1661,2.1544,2.1382,2.1052,2.0849,2.0849,2.0625,2.0544,2.0544,2.0288,2.0359,2.0523,2.0073,1.9748,1.931,1.7236,1.6185,1.5873,1.5993,1.5544,1.4741,1.442,1.4535,1.4911,1.4985,1.5245,1.5624,1.5936,1.5964,1.5956,1.6534,1.6398,1.6052,1.6498,1.6666,1.6666,1.6237,1.6987,1.7722,1.7565,1.8033,1.8524,1.8927,1.8398,1.7703,1.7334,1.792,1.8413,1.8318,1.8866,0.0,1.9428,1.9212,1.8814,1.827,1.7672,1.7143,1.6762,1.642,1.6222,1.6222,1.5578,1.4668,1.3474,1.3203,1.2439,1.115,1.1233,1.083,0.9921,0.0,0.0,0.0,0.0,0.0,0.0,0.0,0.0,0.0,0.0,0.0,0.0,0.0,0.0,0.0,0.0,0.0,0.0,0.0,0.0,0.0,1.1816,1.2589,1.244,1.2899,1.3573,1.4553,1.5426,1.6328,1.7306,1.7731,1.8316,1.9239,1.9968,2.0349,2.0405,2.1487,2.1958,2.1707,2.2354,2.2682,2.2671,2.2954,2.2972,2.2754,2.2681,2.2461,2.2157,2.1741,2.1509,2.1343,2.0923,2.0846,2.0846,2.0776,2.0621,2.0443,1.8685,1.7949,1.79,1.759,1.7088,1.6505,1.6012,1.574,1.5578,1.5578,1.5827,1.6147,1.6338,1.6768,1.7273,1.7252,1.7577,1.7921,1.7979,1.8007,1.8007,1.7989,1.8143,1.8326,1.8347,1.8521,1.8632,1.8609,1.8713,1.8845,1.8526,1.8497,1.8584,1.8826,1.9436,0.0,1.9562,1.9785,1.9533,1.8547,1.814,1.7661,1.7024,1.6724,1.6587,1.6587,1.5928,1.5114,1.4073,1.3525,1.257,1.1207,1.0662,1.0366,0.0,0.0,0.0,0.0,0.0,0.0,0.0,0.0,0.0,0.0,0.0,0.0,0.0,0.0,0.0,0.0,0.0,0.0,0.0,0.0,0.0,0.0,1.2882,1.3662,1.3978,1.4084,1.4589,1.5821,1.6651,1.7532,1.878,1.9298,1.9853,2.0734,2.1397,2.1754,2.1875,2.2733,2.3119,2.2829,2.3398,2.3693,2.3693,2.3677,2.3677,2.3519,2.3446,2.3298,2.3065,2.278,2.2575,2.2345,2.1991,2.1862,2.179,2.1656,2.1538,0.0,0.0,0.0,0.0,0.0,1.8295,1.7906,1.7599,1.7304,1.7166,1.7044,1.7312,1.7696,1.7711,1.8202,1.8714,1.876,1.8952,1.9219,1.9259,1.9108,1.8966,1.8957,1.8908,1.8905,1.9077,1.9171,1.9228,1.9335,1.9573,0.0,1.9565,1.9243,1.9106,1.9454,1.9861,2.0058,2.0076,2.0209,1.9822,1.8634,1.8316,1.7851,1.704,1.6676,0.0,0.0,0.0,1.5224,1.4141,1.3016,0.0,0.0,0.0,0.0,0.0,0.0,0.0,0.0,0.9308,0.894,0.0,0.0,0.0,0.0,0.0,0.0,0.0,0.0,0.0,0.0,0.0,0.0,0.0,0.0,0.0,0.0,1.3989,1.4496,1.5551,1.5669,1.6074,1.7158,1.7879,1.8815,2.0217,2.083,2.1337,2.1918,2.2438,2.2881,2.3376,0.0,0.0,0.0,0.0,2.449,2.449,2.4116,2.3897,2.3897,2.3751,2.3677,2.3604,2.3593,2.3519,2.3298,2.3075,2.3001,2.3001,2.2628,2.2306,2.2013,2.1111,2.0636,2.0278,1.9697,1.9311,1.9107,1.9033,0.0,0.0,1.8889,1.9241,1.9643,1.9545,1.9728,2.0081,2.042,2.0262,2.0078,2.0324,2.0062,1.9697,1.9478,1.9418,1.9541,1.9781,1.9924,2.0107,2.0488,2.0605,2.0614,2.0314,1.9971,1.982,2.007,2.0219,2.0359,2.0701,2.0473,1.9928,1.8692,0.0,0.0,1.6849,1.6468,1.6397,1.6714,1.5992,1.5078,1.3915,1.2362,1.1421,1.1354,1.0542,1.0372,1.0877,1.039,1.0309,1.0511,0.9873,0.9395,0.0,0.0,0.0,0.0,0.0,0.0,0.0,0.0,0.0,0.0,0.0,0.0,0.0,0.0,0.0,1.4494,1.5457,1.649,1.7442,1.8213,1.8475,1.7889,1.9056,2.0266,2.131,2.1891,2.2538,2.3346,2.374,2.4006,2.4113,2.4413,2.4637,2.4637,2.4515,2.449,2.449,2.4273,2.4116,2.4116,0.0,0.0,2.3824,2.3666,2.3519,2.3298,2.3075,2.3001,2.3001,2.2927,2.2798,2.2509,2.1816,2.1479,2.1459,2.1468,2.1162,2.0706,2.0558,2.0169,1.9765,1.9675,1.9869,2.0073,1.99,2.0183,0.0,2.0606,2.0737,2.0941,2.0799,2.0682,2.0623,2.0372,2.0381,2.0342,2.043,2.0604,2.0643,2.0401,2.0761,2.097,2.0735,2.0467,2.0304,2.0367,2.0607,2.0828,2.0736,2.0826,2.0462,1.9314,1.8742,1.8214,1.7443,1.6916,1.6659,1.673,1.5763,1.4889,1.4253,1.3192,1.2541,1.2263,1.14,1.108,1.121,1.0787,1.0608,1.0586,1.0167,0.9916,0.0,0.0,0.0,0.0,0.0,0.0,0.0,0.0,0.0,0.0,0.0,1.3252,1.3608,0.0,1.5136,1.5908,1.6765,1.77,1.8675,1.9629,2.0004,1.9437,2.0412,2.1487,2.2258,2.3072,2.3711,2.4121,2.4558,2.4907,2.504,2.5241,2.5238,2.5166,2.4935,2.4746,2.449,2.4273,2.42,2.42,2.42,2.4127,2.4043,2.397,2.3824,2.3604,2.3372,2.3224,2.315,2.3075,2.2927,2.283,2.2507,2.2199,2.2073,2.2092,2.1889,2.1626,2.1401,2.1097,2.0777,2.0553,2.0718,2.0935,2.0626,2.0872,2.1241,2.11,2.111,2.1128,2.0984,2.0819,2.0731,2.0644,2.0566,2.0644,2.0731,2.0918,2.0987,2.0898,2.132,2.167,2.1522,2.124,2.1124,2.1295,2.1337,2.1284,2.1114,2.0846,2.0307,1.905,1.851,1.7976,1.7191,1.6833,1.673,1.673,1.5913,1.5219,1.4744,1.3643,1.2931,1.2664,1.1762,1.1525,1.1819,1.1509,1.1374,1.1455,1.1166,1.084,0.0,0.0,0.0,0.0,0.0,0.0,0.0,0.0,1.3425,1.3701,1.4235,1.4718,1.5139,1.5765,1.6598,1.7678,1.8204,1.8873,1.9851,2.0731,2.1303,2.1169,2.1827,2.2564,2.3167,2.4121,2.4675,2.4675,2.5071,2.5362,2.5585,2.5704,2.5678,2.5456,2.5401,2.514,2.4641,2.4411,2.4292,2.42,2.42,2.4189,2.4116,2.4127,2.397,2.3751,2.3593,2.3372,2.3224,2.3075,2.3001,2.3001,2.3001,2.2777,2.2402,2.2252,2.2176,2.2101,2.1873,2.1807,2.1745,2.1373,2.1507,2.1735,2.1362,2.1507,2.1807,2.1578,2.1436,2.1282,2.0984,2.0819,2.0722,2.0644,2.0644,2.0654,2.0819,2.1086,2.1311,2.1471,2.1885,2.2276,2.2291,2.2064,2.1966,2.205,2.183,2.1562,2.1401,2.0935,2.0167,1.8887,1.8394,1.7711,1.677,1.673,1.6656,1.6648,1.6134,1.5599,1.5072,1.3998,1.3297,1.2969,1.2235,1.2074,1.2416,1.2147,1.2119,1.2255,1.2051,1.1641,1.3026,1.2855,1.262,1.2268,1.2737,1.3322,0.0,0.0,1.3491,1.4819,1.5027,1.5383,1.6903,1.7699,1.8449,1.9506,2.0111,2.0696,2.154,2.2273,2.2799,2.2914,2.3191,2.3518,2.411,2.4809,2.5216,2.5216,2.5276,2.5206,2.4944,2.5453,2.5616,2.5222,2.5687,2.5687,2.5152,2.4906,2.4613,2.42,2.42,2.4116,2.3897,2.3751,2.353,2.3372,2.315,2.3075,2.3001,2.3001,2.3001,2.3001,2.3001,2.2852,2.2628,2.2478,2.2402,2.2327,2.1949,2.1807,2.1797,2.1745,2.1766,2.1797,2.1745,2.1766,2.1807,2.1807,2.1731,2.1655,2.1282,2.1128,2.1051,2.0644,2.0731,2.0819,2.0654,2.1223,2.162,2.1311,2.205,2.2705,2.25,2.2573,2.257,2.2176,2.175,2.1392,2.1392,2.1159,2.0648,1.981,1.9004,1.7965,1.6794,1.673,1.6648,1.6476,1.6277,1.5772,1.4847,1.4751,1.4324,1.3448,1.3197,1.3027,1.2888,1.2384,1.2112,1.2051,1.184,1.1683,1.3305,1.3293,1.325,0.0,1.3561,1.395,1.4158,1.4484,1.4937,1.5556,1.661,1.7467,1.785,1.8858,1.9871,0.0,2.0926,2.1425,2.2396,2.2847,2.3272,2.4074,2.4073,2.4222,2.4587,2.5151,2.5465,2.5312,2.5588,2.5768,2.5659,2.624,2.637,2.5974,2.6193,2.5977,2.5306,2.4922,2.4607,2.4265,2.4118,2.3897,2.3751,2.3751,2.3593,2.3298,2.3224,2.3075,2.3001,2.3001,2.3001,2.3034,2.3167,2.3199,2.308,2.2735,2.2478,2.2327,2.2101,2.1949,2.1959,2.1807,2.1807,2.1807,2.1807,2.1807,2.1807,2.1655,2.1655,2.1563,2.1449,2.1173,2.1043,2.0977,2.084,2.08,2.1056,2.154,2.1925,2.2089,2.2461,2.2794,2.2708,2.2513,2.2362,2.2097,2.183,2.1562,2.1401,2.082,2.006,1.8941,1.7981,1.7215,1.659,1.6566,1.6402,1.6245,1.6009,1.5666,1.5291,1.4972,1.4562,1.4015,1.3645,1.3411,1.3143,1.2898,1.2755,1.2515,1.248,1.2483,1.366,1.3966,0.0,1.4311,1.4814,1.5299,1.5441,1.5939,1.6524,1.6887,1.8199,1.925,1.9345,2.0261,2.1204,2.1572,2.1789,2.2163,2.2871,2.3232,2.3755,2.4718,2.4667,2.4667,2.4815,2.522,2.5465,2.5241,2.5589,2.5838,2.5784,2.6312,2.6508,2.6255,2.6381,2.612,2.5599,2.5236,2.4833,2.4457,2.419,2.3954,2.372,2.366,2.3519,2.3224,2.3224,2.315,2.3012,2.3068,2.3123,2.3102,2.3436,2.3463,2.3409,2.2928,2.267,2.2431,2.2153,2.2119,2.2126,2.1925,2.189,2.1973,2.1849,2.189,2.1917,2.1763,2.1778,2.1764,2.1571,2.1313,2.1085,2.1162,2.0986,2.1027,2.1469,2.1912,2.2232,2.2536,2.2679,2.2803,2.2706,2.2274,2.2008,2.2008,2.1651,2.1383,2.1392,2.0606,1.9519,1.8176,1.7351,1.6778,1.6335,1.6319,1.6237,1.5997,1.5851,1.5602,1.5423,1.5031,1.4676,1.4357,1.4037,1.3686,1.3457,1.3376,1.3293,1.3084,1.3071,1.3027,0.0,0.0,1.6244,1.5983,1.6958,1.7855,1.7496,1.752,1.7958,1.9125,1.9488,2.0101,2.1875,2.2201,2.2355,2.2628,2.2896,2.3123,2.3043,2.3845,2.455,2.4735,2.4803,2.4803,2.4815,2.5139,2.5241,2.5111,2.5135,2.4933,2.462,2.5001,2.5437,2.5716,2.595,2.6098,2.6086,2.5858,2.552,2.4937,2.4709,2.4397,2.3995,2.3295,2.3001,2.3001,2.3001,2.3001,2.3034,2.3286,2.3403,2.3446,2.3694,2.3646,2.3423,2.3186,2.2939,2.272,2.2039,2.2097,2.2397,2.1952,2.2108,2.2387,2.1942,2.2118,2.2391,2.2145,2.2381,2.2544,2.173,2.1451,2.1451,2.123,2.1381,2.1569,2.185,2.2355,2.266,2.2264,2.2515,2.2706,2.2441,2.1998,2.1731,2.1731,2.1195,2.0934,2.1302,2.0564,1.9445,1.8349,1.7755,1.7055,1.6231,1.6087,1.5997,1.5733,1.5989,1.5763,1.4955,1.5167,1.5011,1.4535,1.4209,1.4116,1.4109,1.3717,1.3482,1.3475,1.3259,1.32,1.5575,1.6203,1.6797,1.7335,1.7797,1.8159,1.8314,1.8437,1.8709,1.9437,2.0056,2.0623,2.1173,2.177,2.2151,2.2088,2.2396,2.288,2.3465,2.3797,2.4213,2.4767,2.4667,2.4466,2.4195,2.4631,0.0,2.4598,2.5171,2.5345,2.4819,2.5715,2.6182,2.604,2.6531,2.6712,2.6456,2.5979,2.5572,2.5154,2.4522,2.4194,2.3952,2.3482,2.3156,2.3001,2.2852,2.2777,2.281,2.3067,2.3193,2.3268,2.3654,2.3876,2.3958,2.3535,2.332,2.3206,2.2679,2.26,2.2679,2.2745,2.2742,2.2674,2.269,2.2592,2.2463,2.2372,2.2483,2.2493,2.1945,2.1824,2.1905,2.1752,2.1752,2.186,2.2207,2.2327,2.2427,2.2544,2.2356,2.1998,2.1909,2.1544,2.1186,2.1105,2.0835,2.0654,2.0391,1.9808,1.9109,1.8604,1.7628,1.6916,1.6446,1.6042,1.5741,1.5506,1.559,1.5462,1.5015,1.509,1.4938,1.4379,1.4125,1.394,1.3738,1.3627,1.3467,1.3286,1.3407,1.3413,1.6779,1.7397,1.7907,1.8563,1.8798,1.9029,1.9522,1.9725,2.0002,2.0607,2.1134,2.1524,2.1544,2.2046,2.2292,2.1815,2.2394,2.3006,2.3518,2.3772,2.4087,2.4607,2.4194,2.3778,2.3454,2.3886,0.0,2.4105,2.4673,2.4903,2.4648,2.5616,2.6081,2.595,2.645,2.6628,2.6479,2.6002,2.5676,2.5326,2.4777,2.4375,2.4139,2.3829,2.3511,2.3286,2.3144,2.3067,2.3099,2.3256,2.3377,2.3541,2.3722,2.3926,2.4095,2.3584,2.3355,2.3337,2.3078,2.3002,2.3078,2.3062,2.3043,2.3063,2.2982,2.289,2.2764,2.2589,2.2709,2.2715,2.2232,2.2193,2.2266,2.2109,2.2026,2.2142,2.2485,2.2399,2.2303,2.2394,2.1998,2.1642,2.1454,2.1096,2.0645,2.0391,2.03,2.0158,1.9751,1.9148,1.8571,1.8306,1.7345,1.6668,1.6342,1.5859,1.5416,1.5257,1.5173,1.5082,1.4999,1.4915,1.4733,1.4447,1.42,1.394,1.3817,1.3783,1.3707,1.3527,1.3714,1.3635,1.8172,1.8894,1.9448,1.9607,2.0021,2.0514,2.0951,2.125,2.1667,2.2493,2.2496,2.2494,2.2821,2.295,2.2739,2.1736,2.2742,2.3566,2.3211,2.366,2.4093,0.0,0.0,0.0,0.0,0.0,0.0,2.3653,0.0,2.3885,2.42,2.4694,2.5123,2.5417,2.5689,2.5928,2.6229,2.5979,2.5749,2.5532,2.5289,2.4956,2.4418,2.418,2.4009,2.3828,2.3828,2.3737,2.378,2.3743,2.394,2.4169,2.3841,2.3937,2.4059,2.3473,2.3227,2.3251,2.3248,2.3351,2.3368,2.2961,2.3124,2.3398,2.2724,2.2895,2.3143,2.2879,2.309,2.3317,2.2627,2.2529,2.2539,2.2434,2.2359,2.2323,2.2717,2.253,2.2264,2.182,2.1651,2.1463,2.0997,2.0555,2.011,1.9679,1.9571,1.9521,1.936,1.8666,1.8017,1.7484,1.6929,1.6465,1.5935,1.5382,1.5104,1.509,1.4824,1.4734,1.465,1.4482,1.4482,1.4657,1.425,1.4159,1.4398,1.4159,1.4088,1.4088,1.4088,1.3913,1.8894,1.9285,1.949,1.9962,2.0218,2.041,2.0552,2.054,2.063,2.1017,2.0914,2.0914,2.1199,2.1714,0.0,2.1506,2.2312,0.0,2.3047,2.3164,0.0,2.3364,0.0,2.3269,2.2539,2.2909,0.0,0.0,2.4001,2.4368,2.4568,2.5158,2.5584,2.57,2.6276,2.6521,2.624,2.5979,2.5841,2.5804,2.5626,2.52,2.4724,2.4502,2.4158,2.3828,2.3668,2.3587,2.3538,2.3588,2.3606,2.3657,2.3584,2.3677,2.3831,2.3547,2.3421,2.3411,2.3634,2.3453,2.3311,2.3523,2.3493,2.3487,2.3292,2.3073,2.2901,2.2814,2.2707,2.261,2.2112,2.2313,2.2563,2.2074,2.2332,2.2581,2.2511,2.2353,2.2097,2.1741,2.1105,2.0473,2.0027,1.9654,1.9471,1.9288,1.8787,1.8592,1.9216,1.8894,1.8565,1.8216,1.7357,1.6699,1.6272,1.5612,1.5071,1.4838,1.4734,1.465,1.4482,1.4243,1.4166,1.425,1.399,1.3906,1.4166,1.3906,1.3913,1.4088,1.3737,1.3568,1.9444,1.9646,1.9799,2.0425,2.0361,2.0271,2.0733,2.0501,2.0283,2.051,2.0414,2.0407,2.0769,2.1043,2.1221,0.0,0.0,0.0,2.2234,2.2615,2.2934,0.0,2.3304,0.0,2.2803,2.3047,2.3329,0.0,2.3778,2.4158,2.4443,2.5009,2.5447,2.5645,2.5926,2.6013,2.5744,2.5797,2.5738,2.5738,2.5549,2.523,2.4796,2.4734,2.444,2.4105,0.0,2.3867,2.3805,2.3706,2.3639,2.3584,2.3394,2.3503,2.3667,2.3406,2.3242,2.3232,2.3319,2.3162,2.2908,2.3327,2.3406,2.3319,2.3057,2.2794,2.2618,2.2618,2.253,2.2385,2.2157,2.2358,2.2561,2.2148,2.228,2.2451,2.2176,2.1919,2.1651,2.1195,2.0473,1.9845,1.9296,1.9104,1.8912,1.8727,1.8202,1.7972,1.8527,1.8193,1.7923,1.775,1.6989,1.636,1.6089,1.5347,1.4753,1.4419,1.4321,1.4237,1.4062,1.3822,1.3737,1.3913,1.3568,1.3568,1.3828,1.3737,1.3737,1.3828,1.3652,1.3392,1.9813,1.9965,2.0117,2.0716,2.0345,2.0015,2.0888,2.0566,2.0167,2.0345,0.0,2.0375,2.0655,2.0713,2.061,2.0372,0.0,2.1523,2.1404,2.2079,2.2835,2.3423,2.3206,2.3106,2.3241,2.3445,2.3546,2.3546,2.3475,2.3693,2.4269,2.4682,2.5036,2.5396,2.5172,2.509,2.5262,2.5438,2.5559,2.5559,2.5285,2.5115,2.4861,2.4861,2.47,2.4454,2.4454,2.4282,2.412,2.3841,2.3754,2.3754,2.3309,2.3232,2.3416,2.3144,2.2969,2.2794,2.2803,2.2618,2.2441,2.2872,2.3047,2.2969,2.253,2.2353,2.2353,2.2353,2.2353,2.2353,2.2353,2.2353,2.2362,2.233,2.226,2.2082,2.1724,2.1419,2.1032,2.0382,1.9845,1.932,1.8891,1.8767,1.8489,1.8209,1.7905,1.7695,1.7601,1.7251,1.6936,1.6714,1.6221,1.577,1.549,1.4829,1.4325,1.4088,1.3828,1.3737,1.3737,1.3313,1.3307,1.3652,1.3313,1.3222,1.3392,1.3476,1.3476,1.3307,1.3392,1.3137,1.9952,1.9823,1.9693,1.9688,1.9731,1.971,1.9472,1.9519,0.0,0.0,1.9244,1.9508,1.9293,1.9953,2.0359,1.9914,2.0828,2.1608,2.1623,2.2126,2.2627,0.0,2.3602,2.3746,2.3595,2.406,0.0,0.0,2.3918,2.4134,2.4763,2.4728,2.4977,2.5505,2.5113,2.5098,2.5525,2.5337,2.5285,2.5285,2.52,2.5115,2.4861,2.47,2.4454,2.4206,2.4013,0.0,2.3841,2.3677,2.359,2.3503,2.3232,2.3144,2.3144,2.2969,2.2803,2.2803,2.253,2.2353,2.2185,2.2441,2.252,2.2441,2.2274,2.2185,2.2097,2.1909,2.182,2.182,2.182,2.2008,2.2082,2.2053,2.2126,2.2135,2.1686,2.1063,2.0382,2.0019,1.9379,1.8923,1.891,1.8364,1.8003,1.8252,1.7814,1.7359,1.7159,1.7037,1.6899,1.6541,1.6331,1.5776,1.4851,1.4689,1.4327,1.377,1.3737,1.3737,1.3737,1.3483,1.3398,1.3476,1.3222,1.3137,1.3137,1.2966,1.2875,1.279,1.246,1.2198,1.9617,1.9565,1.946,1.9356,1.9354,1.9309,1.8948,0.0,0.0,0.0,1.8193,1.8412,1.871,1.9159,0.0,1.9447,2.0134,2.0689,2.0708,2.162,2.2398,2.2775,2.3351,2.3844,2.3987,2.3979,2.4043,2.4043,2.3824,2.4039,2.4687,2.498,2.5049,2.4952,2.5109,2.511,2.5027,2.4999,2.4946,2.4871,2.47,2.4529,2.4337,2.3951,2.3896,2.4013,2.3609,0.0,2.3677,2.3503,2.3416,2.3232,2.3057,2.2969,2.2882,2.2706,2.2441,2.2176,2.2087,2.182,2.1544,2.1633,2.1731,2.183,2.175,2.175,2.1786,2.1988,2.2043,2.1998,2.2126,2.218,2.2235,2.2044,2.1893,2.1746,2.1281,2.0627,1.9878,1.942,1.9063,1.8761,1.8354,1.7978,1.7691,1.7609,1.7001,1.6621,1.6621,1.6211,1.5946,1.5938,1.58,1.5409,1.4408,1.4346,1.4237,1.3806,1.378,1.3786,1.3959,1.3608,1.3521,1.3614,1.3269,1.2942,1.2711,1.2856,1.2677,1.2381,1.2388,1.2096,1.8897,1.8961,1.9025,1.8909,1.8845,1.8791,1.8503,1.7844,0.0,1.7625,1.7486,1.7559,1.8246,1.8543,1.8695,0.0,1.9348,1.9773,1.9817,2.1043,2.2036,0.0,2.3055,0.0,2.3897,2.3677,0.0,2.3677,2.362,2.3779,2.4397,2.4948,2.4971,2.4469,2.4927,2.5018,2.4596,2.4693,2.4615,2.4454,2.4196,2.4024,2.3831,2.3403,2.3433,2.3734,2.3308,0.0,0.0,2.3329,2.3144,2.2969,2.2706,2.2627,2.2627,2.2264,2.1909,2.1651,2.1553,2.1275,2.0907,2.0907,2.1105,2.1293,2.1293,2.1293,2.1464,2.2035,2.2144,2.2152,2.2371,2.2384,2.2307,2.21,2.1734,2.136,2.0984,2.0289,1.9549,1.8909,1.8832,1.8563,1.7919,1.7719,1.7452,1.703,1.6402,1.6027,1.6027,1.5549,1.5227,1.5097,1.5219,1.4976,1.4128,1.4174,1.4122,1.3831,1.3755,1.3837,1.4164,1.3667,1.3485,1.3724,1.3288,1.2803,1.2359,1.2663,1.2458,1.1791,1.2171,1.1865,1.7836,1.7836,1.7909,1.7776,1.8113,1.8316,1.7758,0.0,1.7639,1.7516,1.7472,1.7408,1.7571,1.8254,1.8554,1.7763,0.0,1.9757,1.9878,2.0758,2.1642,2.2462,0.0,0.0,2.3075,2.3075,2.3075,2.3075,2.3264,2.3525,2.381,2.4235,2.4465,2.4456,2.4386,2.4514,2.4882,2.4423,2.4282,2.4196,2.3937,2.3841,2.3754,2.3551,2.3464,2.3493,2.3028,0.0,0.0,2.2618,2.253,2.2441,2.2274,2.2185,2.2097,2.166,2.1482,2.1392,2.1186,2.0916,2.0744,2.0744,2.0826,2.0997,2.0997,2.0997,2.1077,2.1577,2.1692,2.1781,2.2088,2.2099,2.2083,2.1948,2.1739,2.1435,2.09,2.0247,1.9628,1.8972,1.861,1.8258,1.7867,1.7423,1.7037,1.6833,1.6721,1.6337,1.5654,1.5739,1.5422,1.449,1.4873,1.4816,1.3985,1.4185,1.4136,1.3954,1.3692,1.3743,1.4167,1.3508,1.3236,1.3562,1.3018,1.253,1.2015,1.2043,1.1756,1.1094,1.1137,1.0778,1.7834,1.7894,1.7855,1.7405,1.7438,1.7401,1.6752,1.6428,1.6407,1.6916,1.6826,1.6831,1.7342,1.7865,1.8168,0.0,1.878,1.9505,1.9946,2.0885,2.1567,2.1811,2.2386,0.0,0.0,0.0,2.2628,2.2478,2.2839,2.3037,2.296,2.3839,2.4456,2.4756,2.4355,2.4279,2.4454,2.41,2.3937,2.3764,2.3493,2.3319,2.3135,2.2708,2.264,2.2775,2.2351,0.0,0.0,2.2274,2.2185,2.2176,2.1839,2.166,2.166,2.1284,2.1015,2.0744,2.0645,2.0374,2.0201,2.0201,2.0374,2.0645,2.0736,2.0826,2.0905,2.1494,2.1768,2.194,2.2057,2.1927,2.1835,2.1779,2.1619,2.1361,2.0931,2.0388,1.9696,1.9151,1.8603,1.8065,1.745,1.6974,1.641,1.6038,1.5719,1.5435,1.5248,1.5042,1.4756,1.4355,1.4626,1.4634,1.397,1.4184,1.4221,1.3952,1.3773,1.3923,1.4191,1.3773,1.367,1.3939,1.3318,1.275,1.2231,1.2108,1.1695,1.1217,1.1041,1.0726,1.7471,1.7505,1.7451,1.6942,1.6741,1.6558,1.6173,1.5634,1.5467,1.6211,1.6203,1.6278,1.6862,1.7394,1.7839,0.0,1.8685,1.9171,1.9812,2.0676,2.1166,2.0957,0.0,2.2199,0.0,2.2092,2.1959,2.1807,2.2108,2.2356,2.2333,2.3111,2.3815,2.4482,2.4211,2.411,2.411,2.3754,2.3493,2.3406,2.3057,2.2794,2.2696,2.2225,2.2167,2.2422,2.2051,0.0,0.0,2.2008,2.183,2.1731,2.1383,2.1212,2.1114,2.0916,2.0555,2.0292,2.0292,2.0201,2.0019,2.0019,2.011,2.0292,2.0473,2.0473,2.0551,2.1116,2.1483,2.1733,2.1812,2.1561,2.142,2.142,2.1224,2.0955,2.0591,2.014,1.9721,1.8889,1.8486,1.7853,1.6895,1.6451,1.5947,1.5382,1.5011,1.479,1.4796,1.4592,1.4298,1.4106,1.4394,1.4423,1.395,1.4195,1.422,1.3944,1.3871,1.3841,1.4102,1.3773,1.3761,1.4209,1.3397,1.2774,1.2433,1.2053,1.1615,1.1154,1.091,1.0627,1.63,1.6331,1.6374,1.6244,1.5994,1.5909,1.6217,1.5681,1.5214,1.5554,1.5721,1.5843,1.5981,1.6842,1.7585,1.7951,1.8429,1.8879,1.9335,2.0063,2.0407,0.0,0.0,2.111,2.0879,2.1095,2.1205,2.1205,2.1215,0.0,2.1859,2.1889,2.2372,2.3502,2.3705,2.3841,2.3841,2.3309,2.3144,2.3135,2.2618,2.2441,2.2441,2.2432,2.2432,2.2353,0.0,0.0,0.0,2.1482,2.1284,2.0997,2.0826,2.0744,2.0654,2.0382,2.0292,2.0292,2.0292,2.0292,2.0292,2.0292,2.0292,2.0292,2.0019,1.9936,2.0004,2.0365,2.0619,2.0883,2.118,2.105,2.0925,2.0925,2.0719,2.0308,1.9783,1.9672,1.9383,1.8139,1.7959,1.7573,1.6088,1.5879,1.568,1.4827,1.4892,1.4796,1.4027,1.4406,1.44,1.3636,1.4016,1.4202,1.3925,1.4112,1.4202,1.3931,1.3673,1.3637,1.389,1.3193,1.3182,1.3896,1.2903,1.2384,1.2409,1.1951,1.1351,1.0738,1.0617,1.0187,1.556,1.5332,1.4988,1.4411,1.4038,1.379,1.3673,1.3838,1.418,1.4456,1.4902,1.5325,1.5674,1.6211,1.6855,1.7549,0.0,0.0,0.0,0.0,0.0,1.961,2.0296,2.0631,0.0,0.0,2.0731,2.0576,2.0576,2.0713,2.1006,2.0975,2.1703,2.3251,2.3243,2.3196,2.3309,2.3057,2.2794,2.2618,2.2353,2.2185,2.2185,2.1998,2.1909,0.0,0.0,0.0,0.0,2.074,2.0517,2.0555,2.0473,2.0209,1.9945,2.0201,2.0119,1.9853,2.0027,1.9936,1.9853,1.9853,1.9853,1.9853,1.9762,1.9754,1.9971,2.0504,2.0736,2.0864,2.099,2.0837,2.0617,2.0395,2.0197,1.9887,1.9783,1.9361,1.8984,1.8576,1.7869,1.7161,1.6374,1.5687,1.5172,1.4502,1.431,1.422,1.3931,1.3925,1.3732,1.3539,1.3829,1.4022,1.3931,1.4112,1.4112,1.3642,1.3578,1.3549,1.3619,1.3389,1.3379,1.3649,1.3003,1.239,1.1896,1.1415,1.0702,0.9986,0.9835,0.9604,0.0,1.3848,1.3362,1.2802,1.2607,1.2521,1.2379,1.2866,1.3377,1.3504,1.4213,1.4848,1.4995,1.5684,1.6502,1.7436,1.741,0.0,0.0,0.0,0.0,1.9402,0.0,0.0,0.0,2.0101,2.0255,2.0186,2.0186,2.0186,2.0177,2.0267,2.0962,2.232,2.2516,2.2725,2.2872,2.2706,2.253,2.2264,2.2097,2.1919,2.1919,2.1741,2.1649,0.0,0.0,0.0,0.0,2.021,1.9952,1.9996,2.0059,1.9936,1.9679,2.0027,1.9936,1.9762,1.9762,1.9762,1.9671,1.9587,1.9487,1.9304,1.9304,1.9387,1.957,1.9841,1.9941,2.0066,2.017,2.0115,1.9998,1.9983,1.968,1.9376,1.9376,1.8952,1.838,1.8157,1.7435,1.6573,1.5963,1.5375,1.479,1.4208,1.4027,1.3835,1.3738,1.3636,1.3539,1.3539,1.3738,1.3835,1.3738,1.4112,1.4112,1.3539,1.3481,1.3463,1.3244,1.3284,1.3248,1.3151,1.2681,1.2075,1.1615,1.0945,1.0215,0.9629,0.9414,0.9131,0.0,1.1859,1.1669,1.1256,1.1542,1.1875,1.1948,1.2371,0.0,1.2659,1.3532,1.4259,1.4094,1.5163,1.6384,1.7342,1.7508,0.0,0.0,1.8712,0.0,0.0,1.9012,0.0,1.9524,1.9696,1.9863,1.9863,1.9863,1.9784,1.9636,1.9715,2.017,2.0829,2.1674,2.2169,2.2353,2.2353,2.2264,2.2097,2.183,2.1651,2.1651,2.1615,2.1396,0.0,0.0,0.0,0.0,1.9713,1.9533,1.9449,1.9793,1.9754,1.9579,1.9754,1.9845,1.9845,1.9671,1.9754,1.9837,1.9579,1.9204,1.8735,1.8735,1.8751,1.8775,1.8512,1.8628,1.8852,1.9041,1.9216,1.9376,1.9576,1.9168,1.8869,1.8869,1.8338,1.783,1.7228,1.6609,1.6008,1.5258,1.488,1.4502,1.3931,1.3835,1.3738,1.3539,1.3443,1.3443,1.3443,1.3738,1.3738,1.3539,1.401,1.4016,1.3539,1.3443,1.3249,1.2861,1.2748,1.263,1.2393,1.1868,1.147,1.1279,1.0323,0.9786,0.9512,0.8987,0.8727,0.8222,0.0,1.002,0.9114,0.9778,1.0292,0.0,1.0092,1.1365,1.1296,0.0,1.2537,1.3593,1.4374,1.5014,1.5601,0.0,1.5966,1.6266,0.0,0.0,1.8122,1.8415,1.866,1.892,1.9058,1.9311,1.946,1.9311,1.932,1.9566,1.932,1.9606,2.0578,2.0782,2.1274,2.2176,2.2185,2.2008,2.182,2.1571,2.1482,2.1472,2.0979,2.0703,0.0,0.0,0.0,1.9939,1.9297,1.9209,1.9555,1.9637,1.9396,1.902,1.9487,1.9571,1.9371,1.9754,1.9654,1.9279,1.9112,1.8835,1.8566,1.8566,1.8652,1.8665,1.8578,1.8972,1.929,1.8981,1.9074,1.9168,1.884,1.8429,1.8233,1.8233,1.7813,1.7371,1.7187,1.6343,1.567,1.5407,1.4704,1.401,1.3931,1.3738,1.3539,1.3249,1.3147,1.3147,1.3147,1.3244,1.3346,1.3443,1.3829,1.3732,1.3249,1.305,1.2958,1.2764,1.2486,1.2073,1.1836,1.0803,1.0213,0.9951,0.9242,0.892,0.8785,0.8128,0.7845,0.6534,0.7366,0.8146,0.7496,0.8156,0.8774,0.7802,0.0,0.0,0.0,0.0,1.1659,1.2434,1.3517,1.444,0.0,1.4964,0.0,0.0,0.0,1.7079,1.7823,1.8273,1.8643,0.0,1.8955,1.9002,1.8993,1.8922,1.8931,1.9002,1.8922,1.9129,1.982,1.9913,2.0467,2.1535,2.1741,2.1651,2.1365,2.1284,2.1203,2.1186,2.0882,2.0509,0.0,0.0,0.0,1.947,1.8826,1.8899,1.9348,1.9413,1.9204,1.8827,1.9296,1.9288,1.9188,1.9379,1.9196,1.9012,1.8743,1.8473,1.8288,1.8195,1.8036,1.8108,1.8361,1.8581,1.8814,1.8658,1.8832,1.8966,1.8534,1.822,1.8016,1.7799,1.7378,1.6955,1.6855,1.6081,1.5481,1.5372,1.463,1.3998,1.3711,1.3516,1.3249,1.3147,1.305,1.2953,1.305,1.305,1.2953,1.2958,1.3152,1.3152,1.2953,1.2861,1.2662,1.2273,1.2052,1.1602,1.0937,0.9976,0.9289,0.9116,0.8645,0.8285,0.8105,0.7577,0.7316,0.574,0.5996,0.6325,0.6216,0.6842,0.7437,0.7229,0.0,0.0,0.0,0.0,0.0,0.0,1.26,0.0,0.0,0.0,0.0,1.5653,1.6119,1.676,1.7725,1.8188,0.0,1.8957,1.8922,1.8843,1.87,1.87,1.8612,1.8442,1.8612,1.8797,1.8937,1.9194,1.9715,2.072,2.1114,2.1114,2.0908,2.0819,2.0845,2.0898,2.0722,2.0237,1.9598,0.0,0.0,1.8884,1.8504,1.8625,1.9044,1.9074,1.9012,1.8827,1.9096,1.9096,1.9104,1.892,1.8827,1.8827,1.8574,1.8288,1.8087,1.7815,1.7527,1.7413,1.7993,1.8108,1.7996,1.8209,1.8522,1.8653,1.8325,1.8115,1.7911,1.7589,1.7054,1.663,1.6324,1.5755,1.5237,1.5175,1.4517,1.3969,1.3601,1.3302,1.305,1.305,1.2958,1.2856,1.2953,1.2856,1.2662,1.237,1.237,1.237,1.2565,1.2565,1.2145,1.1395,1.1293,1.0824,0.9978,0.92,0.8681,0.8412,0.8124,0.7757,0.7401,0.7051,0.6877,0.4762,0.4739,0.4907,0.5158,0.6132,0.6725,0.5564,0.0,0.0,0.0,0.0,0.0,0.0,1.1373,1.1846,0.0,0.0,1.4321,0.0,0.0,1.6035,1.6492,0.0,1.7808,1.863,1.8603,1.8523,1.87,1.8523,1.8523,1.862,1.8523,1.8617,1.8929,1.8937,1.916,1.9618,2.0351,2.0624,2.0527,2.0166,2.0153,2.0348,1.9212,1.8803,1.8887,0.0,1.8287,1.8751,1.837,1.8515,1.9115,1.8896,1.8827,1.8827,1.8827,1.8827,1.8827,1.8827,1.892,1.9104,1.8658,1.8288,1.8087,1.7815,1.7355,1.7188,1.8064,1.8072,1.7889,1.7694,1.7895,1.8122,1.7793,1.7687,1.7589,1.7279,1.6955,1.663,1.6324,1.5291,1.4613,1.5035,1.3964,1.3177,1.3474,1.3302,1.305,1.2861,1.2953,1.2953,1.2565,1.2467,1.237,1.2078,1.2073,1.1883,1.1487,1.1487,1.1038,1.0122,0.9925,0.9541,0.9047,0.8532,0.8053,0.7605,0.7207,0.6969,0.6881,0.6438,0.6346,0.3901,0.3672,0.3563,0.3775,0.4656,0.5334,0.4619,0.0,0.0,0.0,0.0,0.0,0.0,0.0,1.0995,1.2742,0.0,1.3996,1.456,1.5431,1.6231,0.0,0.0,1.789,1.847,1.8282,1.8201,1.8201,1.7951,1.7959,1.8112,1.7951,1.7955,1.828,1.8288,1.8294,1.8465,1.9016,1.9419,1.9735,1.9673,1.9558,1.9314,1.8837,1.8657,1.8515,0.0,1.8322,1.8749,1.8387,1.8628,1.9188,1.892,1.8827,1.8827,1.8827,1.8743,1.8658,1.8743,1.8835,1.8743,1.8373,1.8179,1.7994,1.7621,1.734,1.7247,1.7516,1.7781,1.7932,1.799,1.8109,1.8115,1.7687,1.7582,1.7477,1.706,1.6842,1.663,1.6211,1.5487,1.4943,1.5053,1.414,1.3374,1.3494,1.3193,1.2861,1.2764,1.2759,1.2565,1.2175,1.2078,1.1883,1.1585,1.1389,1.1249,1.1042,1.0642,1.0123,0.9465,0.9091,0.8726,0.8276,0.7822,0.7424,0.7072,0.6732,0.6523,0.6438,0.608,0.5899,0.3099,0.2863,0.2651,0.2529,0.0,0.3938,0.3763,0.0,0.0,0.0,0.0,0.0,0.0,0.9725,0.0,1.2626,1.3331,1.3933,1.4613,1.5526,1.636,1.7134,1.7564,1.7917,1.823,1.8121,1.7951,1.77,1.7627,1.7627,1.7691,1.7627,1.7627,1.77,1.77,1.7652,1.7663,1.7954,1.8387,1.8858,1.9059,1.8904,1.8518,1.8543,1.8423,1.8229,1.8137,1.8312,1.8662,1.8469,1.8702,1.9104,1.892,1.8827,1.8827,1.8827,1.8651,1.8481,1.8651,1.8558,1.8381,1.8094,1.7994,1.79,1.7426,1.7326,1.7305,1.7145,1.7414,1.7853,1.8163,1.8213,1.8018,1.7779,1.7634,1.7397,1.6935,1.6685,1.6442,1.6092,1.5589,1.5211,1.4944,1.4171,1.3521,1.3378,1.2934,1.2667,1.2662,1.2467,1.2273,1.1975,1.1683,1.1487,1.1096,1.076,1.0554,1.055,1.0013,0.9464,0.8991,0.8603,0.8151,0.7731,0.7217,0.6877,0.6615,0.6346,0.6077,0.5905,0.5633,0.5455,0.2365,0.2491,0.2533,0.1784,0.0,0.0,0.2749,0.3113,0.0,0.347,0.0,0.0,0.0,1.0721,1.2638,1.277,1.3451,1.4056,1.4284,0.0,1.5757,1.6285,1.6721,1.7244,1.7963,1.8031,1.7951,1.77,1.787,1.787,1.77,1.787,1.787,1.77,1.77,1.7704,1.7636,1.7668,1.7877,1.8356,1.7951,1.8037,1.8613,1.7709,1.7587,1.8078,1.7823,1.788,1.8159,1.8217,1.8486,1.8827,1.8827,1.8827,1.8827,1.8827,1.8651,1.8481,1.8481,1.8381,1.8087,1.7815,1.7721,1.7721,1.7426,1.7326,1.7305,1.7352,1.7362,1.7428,1.7652,1.7497,1.7351,1.7843,1.759,1.7261,1.7121,1.6749,1.6327,1.6274,1.5499,1.4727,1.4769,1.3679,1.2883,1.2794,1.2527,1.237,1.2078,1.2273,1.2175,1.1683,1.159,1.1389,1.09,1.0241,0.9772,0.9592,0.9409,0.9105,0.8703,0.8125,0.7674,0.7461,0.677,0.6346,0.6171,0.5727,0.546,0.546,0.5188,0.501,0.1866,0.1736,0.1581,0.1368,0.0,0.0,0.0,0.0,0.0,0.2413,0.3416,0.0,0.0,0.0,1.2574,1.2993,1.369,1.4407,1.5085,1.5453,1.5936,1.661,1.6824,1.7055,1.756,1.7635,1.7546,1.7375,1.7221,1.7221,1.7294,1.7221,1.7221,1.7294,1.7294,1.7278,1.726,1.726,1.7456,1.7853,1.7959,1.8001,1.7849,1.7873,1.7905,1.811,1.7754,1.7924,1.837,1.8282,1.8409,1.8827,1.8827,1.8827,1.8735,1.8651,1.8465,1.828,1.828,1.8094,1.7815,1.7721,1.7721,1.7628,1.7254,1.7153,1.7088,1.6742,1.6675,1.6725,1.7134,1.7327,1.7449,1.7265,1.7203,1.7134,1.676,1.6484,1.6194,1.5621,1.5068,1.4608,1.423,1.3556,1.2902,1.2689,1.2516,1.2273,1.2078,1.1975,1.178,1.1389,1.1096,1.0654,1.0237,0.9862,0.949,0.9117,0.8861,0.8529,0.7937,0.7556,0.7081,0.6604,0.6192,0.5899,0.5638,0.528,0.5102,0.4926,0.4837,0.4654,0.1259,0.1095,0.0911,0.0,0.0,0.0,0.0,0.0,0.0,0.2144,0.3824,0.0,0.0,0.0,0.0,0.0,1.3846,1.469,1.5382,1.5713,1.6208,1.6841,1.6953,1.7113,1.7334,1.7392,1.7229,1.6886,1.6812,1.6894,1.6976,1.6894,1.6894,1.7049,1.7139,1.7049,1.6886,1.6998,1.7119,1.7263,1.7795,1.7802,1.7445,1.7922,1.8089,1.8032,1.7903,1.812,1.8474,1.8346,1.8489,1.8827,1.8827,1.8827,1.8743,1.8566,1.8288,1.8087,1.7994,1.7807,1.7527,1.7527,1.7535,1.7448,1.7073,1.6979,1.6784,1.6319,1.6224,1.632,1.6626,1.6959,1.7157,1.6834,1.6787,1.6638,1.6244,1.6094,1.5821,1.5322,1.4879,1.4481,1.3988,1.3352,1.2897,1.2496,1.2268,1.2078,1.178,1.1585,1.1365,1.1011,1.0515,1.0048,0.9763,0.9389,0.905,0.8741,0.8415,0.7994,0.7567,0.7163,0.6631,0.6051,0.5652,0.5455,0.528,0.4921,0.4746,0.4569,0.4391,0.4121,0.0467,0.0605,0.0596,0.0,0.0,0.0,0.0,0.0,0.0,0.2879,0.0,0.878,1.0303,0.0,0.0,1.2934,1.3933,1.4746,1.4883,1.5706,1.6473,1.6867,1.7098,1.7234,1.7359,1.7392,1.7139,1.6476,1.6804,1.6976,1.673,1.6976,1.7139,1.7049,1.7049,1.6886,1.6394,1.6737,1.6737,1.6409,1.7095,1.7509,1.7763,1.7771,1.7771,1.7795,1.8144,1.8295,1.8327,1.8684,1.8827,1.8827,1.8827,1.8827,1.8735,1.8566,1.8288,1.8087,1.7815,1.7527,1.7326,1.7326,1.7153,1.6979,1.6979,1.6784,1.6494,1.6312,1.6224,1.613,1.5832,1.6046,1.6346,1.674,1.6282,1.5954,1.5946,1.5488,1.5165,1.5431,1.4877,1.4214,1.3905,1.3308,1.257,1.2078,1.1785,1.1487,1.1194,1.1194,1.1021,1.0537,1.0123,0.9759,0.9482,0.8838,0.8465,0.8461,0.7856,0.7571,0.772,0.686,0.6224,0.5899,0.5333,0.501,0.501,0.4565,0.43,0.4297,0.3855,0.3408,-0.0172,-0.0258,0.0,-0.012,0.0,0.0,0.0,0.0,0.0,0.0,0.0,0.8051,1.0101,0.0,0.0,1.3111,1.404,1.478,1.5278,1.5593,1.5799,1.6021,1.6244,1.6382,1.6349,1.6595,1.6566,1.6245,1.6484,1.6558,1.6476,1.673,1.673,1.664,1.664,1.6476,1.6162,1.6269,1.6385,1.6523,1.673,1.7079,1.7437,1.7922,1.8144,1.8152,1.8255,1.8438,1.8676,1.8611,1.8566,1.8566,1.8365,1.8465,1.8566,1.828,1.8179,1.8087,1.7815,1.7527,1.7326,1.7326,1.7153,1.6979,1.6784,1.6501,1.6218,1.6028,1.5927,1.5832,1.5635,1.5701,1.5787,1.5879,1.5596,1.5354,1.535,1.5114,1.4759,1.4448,1.4231,1.3754,1.2992,1.271,1.237,1.1785,1.1688,1.1487,1.1194,1.09,1.0529,1.0236,0.9831,0.942,0.9021,0.8675,0.8321,0.8023,0.7521,0.7163,0.7032,0.6545,0.6008,0.5599,0.5032,0.4656,0.4476,0.4212,0.3765,0.3315,0.3317,0.3048,-0.0552,-0.0739,0.0,-0.0724,-0.0768,-0.0495,0.0999,0.0,0.0,0.0,0.0,0.8582,1.0262,1.1307,0.0,1.3215,1.3974,1.4584,1.5092,1.5336,1.5568,1.5781,1.5988,1.6039,1.6002,1.6129,1.6162,1.5846,1.5989,1.6147,1.6237,1.6319,1.6312,1.6394,1.6319,1.6154,1.5914,1.605,1.6148,1.6216,1.6352,1.6607,1.6836,1.7612,1.8008,1.8024,1.8218,1.8545,1.8735,1.8465,1.8381,1.8481,1.828,1.828,1.828,1.8187,1.7994,1.79,1.7621,1.7434,1.7326,1.7326,1.7153,1.6979,1.6683,1.64,1.6123,1.5927,1.5832,1.5737,1.554,1.5452,1.5261,1.5166,1.4998,1.4789,1.4821,1.4528,1.4199,1.3943,1.3653,1.3226,1.2689,1.237,1.2078,1.1683,1.1394,1.1194,1.09,1.044,1.0026,0.9742,0.928,0.8842,0.8473,0.8177,0.7867,0.7503,0.6966,0.6612,0.6346,0.5991,0.5638,0.528,0.4659,0.4302,0.4032,0.3676,0.3227,0.2778,0.2845,0.2569,-0.0755,0.0,0.0,-0.1334,-0.1176,0.0,0.3039,0.4144,0.5335,0.8393,0.0,0.9775,1.0659,1.1485,1.2304,1.314,1.3731,1.4198,1.445,1.4984,1.546,1.5783,1.5928,1.6038,1.5927,1.6011,1.5779,1.5343,1.5516,1.5779,1.6041,1.5809,1.5899,1.6312,1.6162,1.5914,1.5658,1.5948,1.5948,1.5658,1.5955,1.6124,1.6027,1.704,1.7484,1.7666,1.8208,1.8566,1.8735,1.8365,1.828,1.8481,1.8481,1.8288,1.8087,1.8087,1.79,1.7628,1.7426,1.7326,1.7326,1.7326,1.7153,1.6885,1.6683,1.6407,1.6123,1.5832,1.5832,1.5737,1.5547,1.5267,1.4987,1.4694,1.44,1.4298,1.4298,1.3919,1.3539,1.3835,1.3249,1.2759,1.2764,1.2273,1.1878,1.159,1.1082,1.0578,1.0386,1.0018,0.9548,0.9092,0.8651,0.8305,0.7867,0.7408,0.7051,0.7051,0.6435,0.5902,0.5633,0.5458,0.5191,0.4921,0.4212,0.3767,0.3497,0.3136,0.278,0.2423,0.2283,0.2086,-0.0611,-0.0947,0.0,0.0,-0.0532,0.1182,0.4424,0.5307,0.6097,0.8243,0.8926,0.9444,1.0592,1.1226,1.197,1.2892,1.3491,1.3901,1.3992,1.4206,1.4413,1.4483,1.466,1.4721,1.4704,1.4989,1.5021,1.4692,1.5137,1.5433,1.544,1.586,1.5997,1.5816,1.5816,1.5665,1.5506,1.558,1.5489,0.0,1.5496,1.5489,1.5362,1.6601,1.7555,1.8263,1.8419,1.8566,1.8735,1.8566,1.828,1.8187,1.8187,1.8001,1.7815,1.7994,1.79,1.7721,1.7628,1.7527,1.7326,1.7326,1.7052,1.6683,1.6588,1.6305,1.5832,1.5832,1.5832,1.5737,1.5267,1.5178,1.4892,1.422,1.4027,1.4022,1.4298,1.3919,1.3539,1.3539,1.3152,1.2662,1.2273,1.1878,1.1487,1.0998,1.0475,0.9987,0.9895,0.9349,0.8889,0.8631,0.8212,0.7847,0.7591,0.7143,0.6704,0.6346,0.5988,0.5544,0.4926,0.5013,0.4921,0.4476,0.4125,0.3587,0.3047,0.3136,0.278,0.1973,0.1492,0.1043,0.0,0.0,0.0,-0.0566,0.0,0.1402,0.4919,0.5633,0.6196,0.8283,0.8964,0.9509,1.0424,1.1125,1.1873,1.2699,1.315,1.3404,1.3492,1.3637,1.3755,1.3918,1.4018,1.407,1.4139,1.4359,1.4547,1.4374,1.4838,1.5161,1.5309,1.5576,1.5748,1.5733,1.5575,1.5506,1.5431,1.5431,1.5257,1.509,1.5173,1.5259,1.5418,1.6583,1.7443,1.8049,1.8211,1.8373,1.8458,1.8087,1.79,1.79,1.8087,1.79,1.7527,1.7807,1.7721,1.7355,1.7254,1.7052,1.6958,1.6958,1.677,1.6588,1.6407,1.6116,1.5737,1.5635,1.5452,1.5261,1.4981,1.4694,1.44,1.4027,1.3835,1.3732,1.3919,1.3437,1.305,1.3152,1.2662,1.2175,1.1883,1.1487,1.1063,1.0678,1.0088,0.961,0.9514,0.8885,0.8379,0.8018,0.7663,0.7317,0.6881,0.6523,0.6169,0.5816,0.5458,0.5013,0.4569,0.448,0.4389,0.4119,0.3674,0.3229,0.2871,0.269,0.2052,0.106,0.0519,0.0085,0.0,0.0,-0.0537,0.0786,0.11,0.0,0.5319,0.5928,0.6355,0.8261,0.9112,0.9641,1.0212,1.1002,1.1763,1.2357,1.2599,1.282,1.2973,1.3046,1.3145,1.3558,1.3561,1.362,1.3797,1.4031,1.4094,1.41,1.4581,1.4969,1.5216,1.5387,1.5506,1.5658,1.5506,1.5431,1.5431,1.5431,1.5257,1.509,1.509,1.5254,1.5662,1.6518,1.7201,1.7508,1.7934,1.8087,1.8087,1.7707,1.7621,1.7721,1.7994,1.78,1.7326,1.7621,1.7448,1.6979,1.6777,1.6648,1.6518,1.6567,1.6553,1.6425,1.6204,1.6028,1.5724,1.5481,1.5127,1.4777,1.4632,1.4262,1.3908,1.3829,1.3545,1.3443,1.3443,1.2958,1.2565,1.2764,1.2175,1.159,1.1487,1.11,1.0654,1.0491,0.9736,0.9159,0.9007,0.8356,0.7699,0.7333,0.7039,0.6609,0.6171,0.5725,0.5458,0.5282,0.4837,0.4391,0.403,0.3855,0.3669,0.3652,0.3218,0.2864,0.2769,0.1963,0.1061,-0.0,-0.0593,-0.0912,0.0,0.0,0.1154,0.0,0.3551,0.4896,0.0,0.0,0.7486,0.0,0.8792,0.9612,1.0301,1.0799,1.1338,1.1765,1.2003,1.2157,1.2157,1.2305,1.2539,1.2956,1.3119,1.3224,1.3335,1.3663,1.3752,1.3543,1.4212,1.4631,1.4667,1.5187,1.5431,1.5423,1.5431,1.5431,1.5431,1.5431,1.5257,1.509,1.509,1.5346,1.5827,1.6208,1.6733,1.7334,1.7849,1.8087,1.8087,1.8288,1.8102,1.7721,1.7994,1.78,1.7326,1.7621,1.7448,1.6979,1.6979,1.6607,1.6331,1.6497,1.632,1.5982,1.6142,1.5933,1.5488,1.5245,1.5081,1.493,1.4209,1.4129,1.4106,1.334,1.3147,1.3244,1.3443,1.3055,1.2764,1.2764,1.2175,1.1487,1.0998,1.0609,1.0404,1.0083,0.9228,0.855,0.8531,0.7622,0.6913,0.691,0.6266,0.5988,0.6083,0.5282,0.4839,0.4839,0.43,0.376,0.3135,0.3047,0.2933,0.2619,0.3021,0.2843,0.2007,0.0959,0.0174,-0.0434,-0.1666,-0.2282,-0.0487,-0.0214,0.0575,0.0,0.3516,0.4538,0.6886,0.0,0.7871,0.7871,0.8563,0.9342,0.9922,1.035,1.0847,1.147,1.1632,1.1706,1.1855,1.1929,1.2077,1.2378,1.2418,1.2498,1.2567,1.2925,1.3175,1.3101,1.3783,1.4349,1.4613,1.5011,1.5257,1.5431,1.5431,1.5431,1.5431,1.5431,1.5257,1.509,1.4831,1.4986,1.5474,1.574,1.6242,1.678,1.7387,1.7529,1.7452,1.7832,1.7815,1.7527,1.79,1.7602,1.6907,1.7188,1.6865,1.6371,1.6344,1.6113,1.5787,1.5917,1.5683,1.5384,1.5351,1.5086,1.4784,1.4412,1.405,1.374,1.3344,1.3211,1.3012,1.2642,1.2468,1.247,1.247,1.2571,1.2431,1.1824,1.1317,1.0798,1.0396,0.9988,0.9569,0.9378,0.8486,0.7805,0.7713,0.7045,0.6432,0.6254,0.5899,0.5544,0.5102,0.4837,0.4482,0.4123,0.3853,0.3477,0.291,0.2908,0.2517,0.1594,0.1905,0.1831,0.1281,0.0341,-0.0508,-0.1173,-0.238,-0.2826,0.0,0.0,0.0683,0.2494,0.3622,0.4796,0.0,0.0,0.7855,0.0,0.8364,0.8984,0.9428,0.9845,1.0361,1.0953,1.1111,1.1186,1.1335,1.1484,1.1632,1.1855,1.1855,1.1961,1.2032,1.2405,1.2738,1.279,1.3541,1.4124,1.4608,1.4956,1.5173,1.5431,1.5431,1.5431,1.5431,1.535,1.526,1.5249,1.474,1.4747,1.518,1.5425,1.582,1.6235,1.6833,1.7011,1.6838,1.7363,1.7368,1.7176,1.7644,1.737,1.6711,1.6857,1.6422,1.58,1.5738,1.5385,1.5002,1.5074,1.495,1.4676,1.445,1.4292,1.4038,1.3489,1.3097,1.2768,1.2615,1.2279,1.2048,1.1957,1.191,1.177,1.1642,1.1879,1.1834,1.0853,1.0531,1.0292,0.9864,0.9363,0.9035,0.8818,0.8033,0.7329,0.7121,0.6627,0.6074,0.5719,0.5544,0.5188,0.4478,0.448,0.4214,0.3678,0.3481,0.3181,0.2697,0.2508,0.1863,0.0652,0.0588,0.0509,0.0418,-0.05,-0.1322,-0.2035,-0.2992,-0.3354,0.0,0.121,0.0,0.2386,0.4861,0.0,0.0,0.0,0.0,0.7568,0.8121,0.8585,0.8901,0.9346,0.9871,1.0215,1.0293,1.0293,1.0513,1.0887,1.1186,1.1409,1.1632,1.1815,1.2101,1.2376,1.2512,1.2632,1.3467,1.4123,1.4307,1.4842,1.5173,1.5431,1.5431,1.5431,1.5431,1.5123,1.5198,1.565,1.5109,1.5042,1.5347,1.5362,1.5536,1.574,1.6481,1.6669,1.6485,1.6941,1.6949,1.678,1.6964,1.7056,1.7137,1.6865,1.6401,1.5752,1.5503,1.4766,1.3982,1.4251,1.4161,1.39,1.3962,1.3791,1.3483,1.3022,1.2861,1.2638,1.1953,1.1972,1.1957,1.1497,1.1415,1.1394,1.1328,1.1382,1.1133,1.0352,1.0222,1.0032,0.9562,0.927,0.8983,0.8516,0.783,0.7366,0.7171,0.6329,0.5719,0.5719,0.5102,0.475,0.4661,0.4125,0.3857,0.3767,0.3258,0.2699,0.226,0.1533,0.0583,-0.0407,-0.0653,-0.0735,-0.0734,-0.1873,-0.2524,-0.2844,-0.3495,-0.3847,0.0,0.0,0.0,0.202,0.3279,0.4662,0.6005,0.7067,0.7736,0.7439,0.7804,0.8215,0.8181,0.8831,0.9504,0.9916,0.9922,0.9992,1.0443,1.0519,1.0663,1.0962,1.1111,1.1228,1.1401,1.1732,1.1964,1.2142,1.2638,1.3113,1.358,1.3762,1.4163,1.4693,1.4782,1.4953,1.5116,1.4667,1.4648,1.4881,1.4486,1.4593,1.5042,1.5162,1.534,1.5514,1.5757,1.6056,1.6334,1.6733,1.6647,1.6286,1.6551,1.6228,1.5729,1.5831,1.5425,1.4945,1.4863,1.4493,1.4093,1.4014,1.3718,1.3279,1.3187,1.3027,1.2672,1.2046,1.1865,1.174,1.1221,1.1087,1.1097,1.08,1.0562,1.0309,1.0012,1.0315,1.0445,0.9779,0.9375,0.8881,0.8309,0.802,0.775,0.7396,0.6902,0.6508,0.6233,0.5838,0.5341,0.4828,0.4561,0.4102,0.3447,0.3356,0.3183,0.2841,0.2308,0.1606,0.0916,0.033,-0.0326,-0.1192,-0.1828,-0.2067,-0.1907,-0.2464,-0.278,-0.3015,-0.387,-0.4363,0.0192,0.0,0.0,0.0,0.0,0.3698,0.5618,0.0,0.7596,0.7467,0.7613,0.7837,0.7933,0.8299,0.8795,0.9327,0.9321,0.9416,0.9931,0.9947,1.0049,1.0357,1.0438,1.0588,1.0812,1.1053,1.1312,1.1624,1.1955,0.0,1.2955,1.3048,1.3432,1.4044,1.4212,1.4372,1.462,1.4273,1.4245,1.4535,1.4273,1.4429,1.4786,1.5112,1.5257,1.5416,1.5423,1.5624,1.5922,1.6309,1.6139,1.5792,1.6045,1.572,1.5137,1.5156,1.4852,1.4368,1.4294,1.3995,1.3585,1.3405,1.2976,1.2598,1.2324,1.2054,1.1805,1.1289,1.1068,1.0982,1.0554,1.0299,1.0071,0.9958,0.9718,0.9361,0.891,0.9414,0.977,0.9033,0.8555,0.8068,0.7595,0.7136,0.6789,0.6615,0.6171,0.5711,0.5403,0.5137,0.4745,0.4128,0.3947,0.3498,0.2779,0.2606,0.2267,0.1765,0.0918,0.0083,-0.0731,-0.1048,-0.1589,-0.2324,-0.2866,-0.3086,-0.3135,-0.3238,-0.3313,-0.3512,-0.4428,-0.5111,0.0,0.0,0.0,0.0,0.0,0.0,0.6379,0.0,0.7044,0.7474,0.7436,0.7521,0.8168,0.7831,0.7688,0.8253,0.8372,0.8522,0.8937,0.9187,0.9343,0.9573,0.9755,0.9981,1.0207,1.0363,1.0663,1.1037,1.1581,1.2043,1.2426,1.2694,1.3087,1.3574,1.3588,1.3745,1.413,1.3823,1.3892,1.4421,1.445,1.4475,1.4624,1.5112,1.5416,1.5394,1.5416,1.5347,1.5431,1.5575,1.5567,1.5394,1.5567,1.5599,1.5461,1.4916,1.4489,1.4067,1.3623,1.3009,1.2448,1.2363,1.2106,1.1677,1.1413,1.1154,1.0987,1.0727,1.0727,1.0554,1.0125,0.9432,0.8999,0.9165,0.8894,0.854,0.8185,0.867,0.8926,0.832,0.7937,0.7672,0.7489,0.6868,0.6337,0.6077,0.563,0.5144,0.4606,0.4333,0.4126,0.3787,0.3357,0.302,0.2687,0.1846,0.109,0.0503,-0.0658,-0.1705,-0.2514,-0.2776,-0.3253,-0.3927,-0.3697,-0.3874,-0.4571,-0.4242,-0.4165,-0.4282,-0.5287,-0.6272,0.0328,0.0,0.0,0.0,0.0,0.0,0.0,0.0,0.5035,0.7106,0.6708,0.629,0.7531,0.7612,0.756,0.7693,0.7891,0.8179,0.874,0.8679,0.8771,0.9118,0.9192,0.9443,0.9963,1.0043,1.0218,0.0,1.0802,1.0994,1.1226,1.1858,1.2402,1.2789,1.2838,1.3001,1.3181,1.2786,1.2786,1.3167,1.3471,1.3739,1.4116,1.4684,1.4901,1.4901,1.4908,1.4908,1.4908,1.5333,1.5333,1.5166,1.4992,1.4797,1.4457,1.411,1.3848,1.3512,1.3077,1.2765,1.2534,1.2203,1.1952,1.1693,1.1602,1.1348,1.1003,1.0727,1.0467,1.0038,0.9345,0.9087,0.879,0.8476,0.8185,0.7807,0.7267,0.702,0.7018,0.72,0.6966,0.6694,0.6251,0.6002,0.56,0.5075,0.4834,0.4435,0.3817,0.3986,0.3869,0.3126,0.32,0.2772,0.1444,0.0961,0.024,-0.0721,-0.133,-0.2161,-0.3471,-0.3313,-0.37,-0.4549,-0.4692,-0.5132,-0.5835,-0.5135,-0.5038,-0.5425,-0.658,-0.7846,0.0,0.0,0.0,0.0,0.0,0.0,0.3377,0.3836,0.0,0.0,0.6837,0.6459,0.738,0.74,0.7265,0.733,0.74,0.7587,0.8161,0.8106,0.8139,0.8428,0.8475,0.8697,0.9211,0.9343,0.9548,0.9988,1.0082,1.0218,1.0443,1.0808,1.1194,1.1493,1.1646,1.1806,1.1954,1.1879,1.1948,1.2175,1.2698,1.3008,1.3187,1.4015,1.4296,1.4144,1.4511,1.465,1.4566,1.4999,1.4999,1.4824,1.4741,1.4405,1.3913,1.3568,1.3307,1.3052,1.254,1.2369,1.2203,1.1952,1.1541,1.1134,1.123,1.0849,1.0343,1.0076,0.9496,0.8836,0.8243,0.7905,0.7707,0.7436,0.7077,0.6719,0.6383,0.5951,0.5748,0.6239,0.6007,0.5662,0.5402,0.5004,0.4621,0.4453,0.4151,0.3684,0.2902,0.2899,0.271,0.1765,0.1824,0.1412,0.0232,-0.0306,-0.0989,-0.1826,-0.2323,-0.3119,-0.4235,-0.4317,-0.4687,-0.5486,-0.5835,-0.6517,-0.7412,-0.6521,-0.6499,-0.7305,-0.8322,-0.9361,-0.0336,-0.021,0.0,0.0,0.1933,0.0,0.3887,0.4211,0.4843,0.0,0.7017,0.6828,0.7501,0.7122,0.6789,0.7066,0.7028,0.7047,0.7382,0.7414,0.7473,0.7715,0.7756,0.7915,0.8343,0.8533,0.8807,0.9192,0.9409,0.962,0.9771,0.9765,0.9916,1.0062,1.0293,1.0438,1.0663,1.1037,1.1273,1.1303,1.2005,1.2299,1.2196,1.3333,1.3601,1.3326,1.4158,1.4455,1.4314,1.4482,1.4482,1.4398,1.4566,1.4237,1.3568,1.3222,1.2875,1.2534,1.2123,1.178,1.1607,1.158,1.0995,1.0263,1.0514,1.0093,0.9442,0.8928,0.805,0.7267,0.7022,0.645,0.6031,0.6261,0.5761,0.5344,0.5576,0.5077,0.4834,0.549,0.51,0.4703,0.4703,0.4024,0.3515,0.3853,0.3421,0.2726,0.1778,0.1367,0.0875,0.0156,-0.0305,-0.0752,-0.1127,-0.1916,-0.2543,-0.2902,-0.3617,-0.4331,-0.4908,-0.5467,-0.6032,-0.6707,-0.7247,-0.8139,-0.9261,-0.8205,-0.8261,-0.9439,-1.0309,-1.0941,-0.037,-0.028,-0.0184,0.031,0.0,0.0,0.08,0.0655,0.1382,0.0,0.423,0.3896,0.6699,0.6276,0.5743,0.6567,0.6982,0.7099,0.7043,0.7003,0.7083,0.7318,0.7396,0.7633,0.8113,0.8163,0.8356,0.8822,0.8886,0.8927,0.9155,0.9155,0.9301,0.9453,0.9539,0.962,0.9846,0.9922,1.0236,1.0738,1.1099,1.1552,1.2013,1.2437,1.2768,1.3067,1.3283,1.3438,1.3646,1.3815,1.4062,1.4398,1.4243,1.3737,1.313,1.2875,1.2363,1.1843,1.1499,1.1332,1.1042,1.0693,1.0353,1.004,0.9737,0.9335,0.8726,0.7733,0.7123,0.6516,0.5939,0.5613,0.5341,0.5002,0.4651,0.4302,0.4379,0.3889,0.3576,0.4058,0.41,0.4034,0.4287,0.389,0.3187,0.2125,0.1583,0.1078,0.0307,-0.0226,-0.0668,-0.1034,-0.235,-0.3224,-0.337,-0.3937,-0.4285,-0.4277,-0.483,-0.5401,-0.5967,-0.6447,-0.7021,-0.7841,-0.9438,-1.049,-1.1025,-0.9982,-0.992,-1.0739,-1.1502,-1.2454,-0.0808,-0.0687,-0.0608,-0.0424,0.0,0.0,0.0,-0.0186,0.1048,0.4706,0.4492,0.4415,0.6778,0.652,0.6134,0.6653,0.681,0.6757,0.6392,0.6634,0.6811,0.6811,0.6759,0.6881,0.7221,0.7468,0.7737,0.8087,0.8047,0.8069,0.8244,0.8169,0.8209,0.8389,0.8632,0.8789,0.8861,0.916,0.9438,0.9776,1.0171,1.055,1.0985,1.1347,1.1641,1.1932,1.2221,1.2519,1.2737,1.2902,1.306,1.3251,1.3626,1.3392,1.279,1.2357,1.177,1.116,1.082,1.0488,1.0124,0.9771,0.9412,0.8996,0.8664,0.7943,0.706,0.6251,0.5633,0.51,0.4864,0.4297,0.3639,0.3438,0.3029,0.278,0.3219,0.2637,0.223,0.2852,0.2411,0.2125,0.2629,0.2268,0.154,0.0693,0.0226,-0.0445,-0.1408,-0.1907,-0.2254,-0.2471,-0.3375,-0.4133,-0.4561,-0.5063,-0.5434,-0.5566,-0.6105,-0.6668,-0.7207,-0.7718,-0.8476,-0.9516,-1.0923,-1.1799,-1.2239,-1.2159,-1.2102,-1.2117,-1.2999,-1.3946,0.0,0.0,0.0,0.0,0.0,-0.04,0.0,0.0,0.0,0.4254,0.4559,0.0,0.0,0.0,0.0,0.0,0.0,0.0,0.0,0.6193,0.0,0.6266,0.6221,0.6268,0.6302,0.6597,0.6988,0.7315,0.7182,0.7115,0.7302,0.7163,0.7154,0.7299,0.761,0.7841,0.7836,0.8355,0.8726,0.8726,0.9155,0.9476,0.9707,1.0248,1.0623,1.084,1.1265,1.1626,1.1852,1.2006,1.1932,1.1894,1.2812,1.2813,1.2216,1.1617,1.099,1.0335,0.9917,0.9469,0.9073,0.8792,0.8235,0.7549,0.7288,0.6351,0.5228,0.4908,0.4293,0.3606,0.3606,0.2743,0.1724,0.1724,0.1327,0.1089,0.1712,0.1221,0.0824,0.1424,0.0735,0.0219,0.0971,0.0443,-0.0219,-0.0583,-0.1088,-0.1808,-0.289,-0.3237,-0.3585,-0.3866,-0.4279,-0.4771,-0.5467,-0.5855,-0.6282,-0.6612,-0.7288,-0.7909,-0.835,-0.9132,-1.0141,-1.1311,-1.2199,-1.2896,-1.3431,-1.422,-1.421,-1.3421,-1.445,-1.5285,0.0,0.0,0.0,0.0,-0.0551,0.0,0.0,0.0,0.0306,0.1134,0.0,0.0,0.0,0.0,0.0,0.0,0.0,0.0,0.5328,0.5647,0.5827,0.5537,0.6002,0.629,0.601,0.6021,0.6257,0.6494,0.6302,0.6235,0.6539,0.641,0.6417,0.6505,0.6653,0.6721,0.6857,0.7292,0.7579,0.7789,0.8271,0.8655,0.8881,0.9482,0.9925,1.035,1.0455,1.083,1.1364,1.1203,1.1123,1.1209,1.1912,1.1612,1.0882,1.0621,1.0034,0.9288,0.9032,0.8518,0.7897,0.7576,0.6616,0.5562,0.5349,0.4721,0.4014,0.4252,0.3694,0.2824,0.1881,0.094,0.0235,0.0235,-0.0,-0.0303,-0.0379,-0.0594,-0.0584,-0.0365,-0.0429,-0.0354,0.0146,-0.0365,-0.1238,-0.2184,-0.257,-0.2882,-0.3371,-0.3707,-0.419,-0.4867,-0.5519,-0.6039,-0.6506,-0.6788,-0.7124,-0.7443,-0.8039,-0.8569,-0.8918,-1.0487,-1.1855,-1.2914,-1.384,-1.4553,-1.5045,-1.577,-1.5567,-1.4552,-1.5593,-1.6305,0.0,0.0,0.0,0.0,0.0,0.0,0.0082,0.0,0.0345,0.0,0.0,0.0,0.0,0.0,0.0,0.0,0.4727,0.0,0.0,0.0,0.5037,0.0,0.0,0.0,0.5636,0.5564,0.5672,0.5967,0.5785,0.5765,0.5948,0.5748,0.5715,0.5728,0.5878,0.6022,0.609,0.6591,0.6877,0.6948,0.7529,0.7916,0.8249,0.8363,0.8827,0.9515,0.9316,0.9616,1.029,1.0073,0.9932,0.9845,1.0018,1.0302,1.0465,0.9979,0.9242,0.8497,0.8176,0.7465,0.6565,0.5944,0.5172,0.4432,0.3843,0.3454,0.3167,0.2986,0.213,0.1135,0.0389,-0.0388,-0.1231,-0.2029,-0.2152,-0.2112,-0.2336,-0.2411,-0.2556,-0.3052,-0.2846,-0.2515,-0.2303,-0.2406,-0.2712,-0.3195,-0.3507,-0.3888,-0.4363,-0.4849,-0.5342,-0.5947,-0.6505,-0.7012,-0.7516,-0.7875,-0.8226,-0.8705,-0.9635,-1.0441,-1.0958,-1.2247,-1.3284,-1.3959,-1.4782,-1.5415,-1.5885,-1.6566,-1.6804,-1.6567,-1.6729,-1.7216,-0.1862,0.0,0.0,0.0,0.0,0.0,0.0,0.0,0.0,0.0,0.0,0.0,0.0,0.0,0.0,0.0,0.0,0.3697,0.0,0.3944,0.0,0.0,0.0,0.0,0.0,0.5005,0.5132,0.5123,0.0,0.5255,0.5322,0.5167,0.5027,0.5129,0.5173,0.5194,0.5335,0.5755,0.5962,0.6036,0.6569,0.7011,0.7356,0.7347,0.7744,0.8445,0.8157,0.8396,0.9045,0.8802,0.8665,0.8433,0.8284,0.867,0.9291,0.8982,0.826,0.7516,0.7134,0.629,0.5199,0.4512,0.3964,0.3507,0.2857,0.2404,0.2047,0.1491,0.0591,-0.0367,-0.1141,-0.1894,-0.2778,-0.3745,-0.3913,-0.3983,-0.4345,-0.4477,-0.4748,-0.5443,-0.5116,-0.4782,-0.481,-0.4246,-0.384,-0.4001,-0.4254,-0.4708,-0.5291,-0.5906,-0.6496,-0.6967,-0.7568,-0.8091,-0.8575,-0.8921,-0.9409,-1.0113,-1.1083,-1.1982,-1.2748,-1.3657,-1.432,-1.4789,-1.5568,-1.6191,-1.6646,-1.734,-1.7854,-1.826,-1.7894,-1.8159,0.0,0.0,0.0,-0.1478,0.0,0.0,0.0,0.0,-0.012,0.0,0.0,0.0,0.0,0.0,0.0,0.0,0.0,0.0,0.0,0.0,0.0,0.0,0.0,0.0,0.0,0.4314,0.4571,0.0,0.4351,0.0,0.4742,0.4499,0.4443,0.4644,0.4243,0.4239,0.464,0.464,0.4706,0.4843,0.5446,0.5797,0.6015,0.6588,0.6881,0.704,0.7036,0.7246,0.7668,0.7455,0.7308,0.7158,0.7153,0.6956,0.6698,0.7195,0.6901,0.6176,0.5817,0.4879,0.3792,0.3429,0.3136,0.2772,0.2554,0.1604,0.0437,-0.0146,-0.0655,-0.1309,-0.2847,-0.3794,-0.4372,-0.4432,-0.5047,-0.5779,-0.6321,-0.6781,-0.7102,-0.7102,-0.6876,-0.6679,-0.6871,-0.5434,-0.4327,-0.4452,-0.4738,-0.5222,-0.5888,-0.6705,-0.7363,-0.7698,-0.8824,-0.9528,-0.9563,-0.9987,-1.0629,-1.1469,-1.1922,-1.2648,-1.3695,-1.4362,-1.4949,-1.5543,-1.6484,-1.716,-1.7544,-1.8252,-1.8769,-1.9169,-1.9087,-1.9184,0.0,0.0,-0.2302,-0.1884,0.0,0.0,0.0,0.0,0.0,0.0,0.0,0.0,0.0,0.0,0.0,0.0,0.0,0.0,0.0,0.0,0.0,0.0,0.0,0.0,0.0,0.0,0.0,0.0,0.4285,0.0,0.0,0.4549,0.4368,0.4113,0.4032,0.3961,0.3897,0.4028,0.4092,0.4159,0.4599,0.4937,0.5168,0.5388,0.5745,0.6154,0.6117,0.6342,0.6647,0.6456,0.6344,0.6271,0.5881,0.5573,0.5326,0.6082,0.6018,0.544,0.4432,0.393,0.3487,0.2427,0.1989,0.1627,0.0903,0.0207,-0.0486,-0.127,-0.2518,-0.3892,-0.4968,-0.5509,-0.601,-0.6663,-0.7181,-0.7653,-0.8255,-0.8608,-0.8756,-0.9023,-0.8748,-0.852,-0.8717,-0.7837,-0.6949,-0.6331,-0.64,-0.6694,-0.723,-0.7947,-0.8563,-0.8949,-0.9603,-1.0122,-1.0512,-1.1253,-1.1968,-1.2618,-1.3054,-1.3684,-1.4628,-1.5062,-1.5664,-1.6502,-1.7201,-1.7814,-1.8408,-1.8907,-1.9427,-1.9859,-2.0174,-2.0193,-0.3291,-0.3119,0.0,-0.2457,-0.2167,0.0,-0.1323,0.0,-0.1085,0.0,0.0,0.0,0.0,0.0,0.0,0.0,0.0,0.0,0.0,0.0489,0.0,0.0,0.0,0.0,0.0,0.0,0.2972,0.3373,0.3869,0.0,0.0,0.0,0.4148,0.3799,0.3781,0.3659,0.3362,0.3493,0.3491,0.3491,0.3756,0.3994,0.4335,0.4322,0.4572,0.4932,0.4986,0.5136,0.5208,0.5186,0.5083,0.5009,0.4651,0.4356,0.411,0.5017,0.5084,0.4526,0.3327,0.2762,0.2403,0.1319,0.0759,0.0275,-0.0472,-0.1342,-0.2221,-0.3016,-0.4211,-0.547,-0.6279,-0.6792,-0.7391,-0.8258,-0.8914,-0.9307,-0.9156,-0.9825,-1.0321,-1.0066,-1.0106,-1.0271,-1.0585,-1.0038,-0.9112,-0.7926,-0.7835,-0.8062,-0.852,-0.9236,-0.9771,-0.9993,-1.0616,-1.1255,-1.1731,-1.2476,-1.3132,-1.36,-1.4071,-1.4674,-1.5433,-1.5864,-1.6502,-1.7325,-1.7868,-1.8461,-1.9035,-1.9551,-2.005,-2.0447,-2.091,-2.1023]}]]